<?xml version="1.0" encoding="UTF-8" standalone="no" ?>
<gpx xmlns="http://www.topografix.com/GPX/1/1" xmlns:xsi="http://www.w3.org/2001/XMLSchema-instance" xsi:schemaLocation="http://www.topografix.com/GPX/1/1 http://www.topografix.com/GPX/1/1/gpx.xsd" version="1.1" creator="VisuGPX - https://www.visugpx.com">
  <metadata>
    <name>Sun Trip 2019</name>
    <desc><![CDATA[Le parcours du Sun Trip 2019]]></desc>
  </metadata>
  <trk>
    <name><![CDATA[J6]]></name>
    <trkseg>
      <trkpt lat="46.08963" lon="5.40578">
        <ele>256</ele>
        <time>2019-04-17T10:08:24Z</time>
      </trkpt>
      <trkpt lat="46.08934" lon="5.40571">
        <ele>257</ele>
        <time>2019-04-17T10:09:24Z</time>
      </trkpt>
      <trkpt lat="46.08902" lon="5.40709">
        <ele>263</ele>
        <time>2019-04-17T10:10:24Z</time>
      </trkpt>
      <trkpt lat="46.08909" lon="5.4072">
        <ele>264</ele>
        <time>2019-04-17T10:11:24Z</time>
      </trkpt>
      <trkpt lat="46.08918" lon="5.40725">
        <ele>264</ele>
        <time>2019-04-17T10:12:24Z</time>
      </trkpt>
      <trkpt lat="46.08927" lon="5.40727">
        <ele>264</ele>
        <time>2019-04-17T10:13:24Z</time>
      </trkpt>
      <trkpt lat="46.09038" lon="5.4072">
        <ele>265</ele>
        <time>2019-04-17T10:14:24Z</time>
      </trkpt>
      <trkpt lat="46.09165" lon="5.40721">
        <ele>271</ele>
        <time>2019-04-17T10:15:24Z</time>
      </trkpt>
      <trkpt lat="46.09208" lon="5.40717">
        <ele>271</ele>
        <time>2019-04-17T10:16:24Z</time>
      </trkpt>
      <trkpt lat="46.09277" lon="5.407">
        <ele>268</ele>
        <time>2019-04-17T10:17:24Z</time>
      </trkpt>
      <trkpt lat="46.09296" lon="5.40703">
        <ele>269</ele>
        <time>2019-04-17T10:18:24Z</time>
      </trkpt>
      <trkpt lat="46.09347" lon="5.40725">
        <ele>274</ele>
        <time>2019-04-17T10:19:24Z</time>
      </trkpt>
      <trkpt lat="46.09379" lon="5.40746">
        <ele>274</ele>
        <time>2019-04-17T10:20:24Z</time>
      </trkpt>
      <trkpt lat="46.09472" lon="5.4083">
        <ele>277</ele>
        <time>2019-04-17T10:21:24Z</time>
      </trkpt>
      <trkpt lat="46.09557" lon="5.40876">
        <ele>273</ele>
        <time>2019-04-17T10:22:24Z</time>
      </trkpt>
      <trkpt lat="46.09647" lon="5.40893">
        <ele>268</ele>
        <time>2019-04-17T10:23:24Z</time>
      </trkpt>
      <trkpt lat="46.09756" lon="5.40892">
        <ele>263</ele>
        <time>2019-04-17T10:24:24Z</time>
      </trkpt>
      <trkpt lat="46.09835" lon="5.4088">
        <ele>260</ele>
        <time>2019-04-17T10:25:24Z</time>
      </trkpt>
      <trkpt lat="46.09853" lon="5.40882">
        <ele>260</ele>
        <time>2019-04-17T10:26:24Z</time>
      </trkpt>
      <trkpt lat="46.09919" lon="5.40924">
        <ele>262</ele>
        <time>2019-04-17T10:27:24Z</time>
      </trkpt>
      <trkpt lat="46.10006" lon="5.40989">
        <ele>265</ele>
        <time>2019-04-17T10:28:24Z</time>
      </trkpt>
      <trkpt lat="46.10039" lon="5.41026">
        <ele>264</ele>
        <time>2019-04-17T10:29:24Z</time>
      </trkpt>
      <trkpt lat="46.10069" lon="5.41074">
        <ele>264</ele>
        <time>2019-04-17T10:30:24Z</time>
      </trkpt>
      <trkpt lat="46.10133" lon="5.41204">
        <ele>267</ele>
        <time>2019-04-17T10:31:24Z</time>
      </trkpt>
      <trkpt lat="46.10174" lon="5.41259">
        <ele>268</ele>
        <time>2019-04-17T10:32:24Z</time>
      </trkpt>
      <trkpt lat="46.10243" lon="5.41343">
        <ele>269</ele>
        <time>2019-04-17T10:33:24Z</time>
      </trkpt>
      <trkpt lat="46.10294" lon="5.41399">
        <ele>269</ele>
        <time>2019-04-17T10:34:24Z</time>
      </trkpt>
      <trkpt lat="46.10425" lon="5.41534">
        <ele>271</ele>
        <time>2019-04-17T10:35:24Z</time>
      </trkpt>
      <trkpt lat="46.10466" lon="5.41581">
        <ele>272</ele>
        <time>2019-04-17T10:36:24Z</time>
      </trkpt>
      <trkpt lat="46.10553" lon="5.41702">
        <ele>272</ele>
        <time>2019-04-17T10:37:24Z</time>
      </trkpt>
      <trkpt lat="46.10592" lon="5.41763">
        <ele>269</ele>
        <time>2019-04-17T10:38:24Z</time>
      </trkpt>
      <trkpt lat="46.10596" lon="5.41798">
        <ele>273</ele>
        <time>2019-04-17T10:39:24Z</time>
      </trkpt>
      <trkpt lat="46.10599" lon="5.41847">
        <ele>278</ele>
        <time>2019-04-17T10:40:24Z</time>
      </trkpt>
      <trkpt lat="46.10604" lon="5.41887">
        <ele>282</ele>
        <time>2019-04-17T10:41:24Z</time>
      </trkpt>
      <trkpt lat="46.1066" lon="5.42016">
        <ele>287</ele>
        <time>2019-04-17T10:42:24Z</time>
      </trkpt>
      <trkpt lat="46.10725" lon="5.42081">
        <ele>283</ele>
        <time>2019-04-17T10:43:24Z</time>
      </trkpt>
      <trkpt lat="46.10757" lon="5.4212">
        <ele>282</ele>
        <time>2019-04-17T10:44:24Z</time>
      </trkpt>
      <trkpt lat="46.10802" lon="5.42147">
        <ele>282</ele>
        <time>2019-04-17T10:45:24Z</time>
      </trkpt>
      <trkpt lat="46.10983" lon="5.42269">
        <ele>284</ele>
        <time>2019-04-17T10:46:24Z</time>
      </trkpt>
      <trkpt lat="46.11141" lon="5.42369">
        <ele>287</ele>
        <time>2019-04-17T10:47:24Z</time>
      </trkpt>
      <trkpt lat="46.11173" lon="5.42379">
        <ele>287</ele>
        <time>2019-04-17T10:48:24Z</time>
      </trkpt>
      <trkpt lat="46.11253" lon="5.42383">
        <ele>289</ele>
        <time>2019-04-17T10:49:24Z</time>
      </trkpt>
      <trkpt lat="46.11315" lon="5.4239">
        <ele>288</ele>
        <time>2019-04-17T10:50:24Z</time>
      </trkpt>
      <trkpt lat="46.11346" lon="5.42392">
        <ele>287</ele>
        <time>2019-04-17T10:51:24Z</time>
      </trkpt>
      <trkpt lat="46.11422" lon="5.42386">
        <ele>283</ele>
        <time>2019-04-17T10:52:24Z</time>
      </trkpt>
      <trkpt lat="46.11448" lon="5.42389">
        <ele>279</ele>
        <time>2019-04-17T10:53:24Z</time>
      </trkpt>
      <trkpt lat="46.11555" lon="5.42442">
        <ele>278</ele>
        <time>2019-04-17T10:54:24Z</time>
      </trkpt>
      <trkpt lat="46.1159" lon="5.4245">
        <ele>278</ele>
        <time>2019-04-17T10:55:24Z</time>
      </trkpt>
      <trkpt lat="46.11635" lon="5.42455">
        <ele>278</ele>
        <time>2019-04-17T10:56:24Z</time>
      </trkpt>
      <trkpt lat="46.11766" lon="5.42445">
        <ele>283</ele>
        <time>2019-04-17T10:57:24Z</time>
      </trkpt>
      <trkpt lat="46.11798" lon="5.42434">
        <ele>283</ele>
        <time>2019-04-17T10:58:24Z</time>
      </trkpt>
      <trkpt lat="46.11828" lon="5.42417">
        <ele>280</ele>
        <time>2019-04-17T10:59:24Z</time>
      </trkpt>
      <trkpt lat="46.11877" lon="5.42376">
        <ele>279</ele>
        <time>2019-04-17T11:00:24Z</time>
      </trkpt>
      <trkpt lat="46.11969" lon="5.42321">
        <ele>275</ele>
        <time>2019-04-17T11:01:24Z</time>
      </trkpt>
      <trkpt lat="46.11997" lon="5.42315">
        <ele>275</ele>
        <time>2019-04-17T11:02:24Z</time>
      </trkpt>
      <trkpt lat="46.12029" lon="5.42318">
        <ele>275</ele>
        <time>2019-04-17T11:03:24Z</time>
      </trkpt>
      <trkpt lat="46.12053" lon="5.42326">
        <ele>275</ele>
        <time>2019-04-17T11:04:24Z</time>
      </trkpt>
      <trkpt lat="46.12085" lon="5.42346">
        <ele>275</ele>
        <time>2019-04-17T11:05:24Z</time>
      </trkpt>
      <trkpt lat="46.12111" lon="5.4238">
        <ele>276</ele>
        <time>2019-04-17T11:06:24Z</time>
      </trkpt>
      <trkpt lat="46.12126" lon="5.42408">
        <ele>276</ele>
        <time>2019-04-17T11:07:24Z</time>
      </trkpt>
      <trkpt lat="46.12137" lon="5.42437">
        <ele>276</ele>
        <time>2019-04-17T11:08:24Z</time>
      </trkpt>
      <trkpt lat="46.12144" lon="5.42466">
        <ele>277</ele>
        <time>2019-04-17T11:09:24Z</time>
      </trkpt>
      <trkpt lat="46.12153" lon="5.42522">
        <ele>280</ele>
        <time>2019-04-17T11:10:24Z</time>
      </trkpt>
      <trkpt lat="46.12157" lon="5.42599">
        <ele>284</ele>
        <time>2019-04-17T11:11:24Z</time>
      </trkpt>
      <trkpt lat="46.12151" lon="5.42682">
        <ele>288</ele>
        <time>2019-04-17T11:12:24Z</time>
      </trkpt>
      <trkpt lat="46.12134" lon="5.42764">
        <ele>289</ele>
        <time>2019-04-17T11:13:24Z</time>
      </trkpt>
      <trkpt lat="46.12067" lon="5.42886">
        <ele>290</ele>
        <time>2019-04-17T11:14:24Z</time>
      </trkpt>
      <trkpt lat="46.12056" lon="5.42933">
        <ele>288</ele>
        <time>2019-04-17T11:15:24Z</time>
      </trkpt>
      <trkpt lat="46.12056" lon="5.42964">
        <ele>287</ele>
        <time>2019-04-17T11:16:24Z</time>
      </trkpt>
      <trkpt lat="46.12083" lon="5.43063">
        <ele>277</ele>
        <time>2019-04-17T11:17:24Z</time>
      </trkpt>
      <trkpt lat="46.12122" lon="5.43177">
        <ele>281</ele>
        <time>2019-04-17T11:18:24Z</time>
      </trkpt>
      <trkpt lat="46.12149" lon="5.43294">
        <ele>284</ele>
        <time>2019-04-17T11:19:24Z</time>
      </trkpt>
      <trkpt lat="46.12164" lon="5.43349">
        <ele>284</ele>
        <time>2019-04-17T11:20:24Z</time>
      </trkpt>
      <trkpt lat="46.12177" lon="5.43376">
        <ele>286</ele>
        <time>2019-04-17T11:21:24Z</time>
      </trkpt>
      <trkpt lat="46.12189" lon="5.43385">
        <ele>286</ele>
        <time>2019-04-17T11:22:24Z</time>
      </trkpt>
      <trkpt lat="46.12228" lon="5.43407">
        <ele>280</ele>
        <time>2019-04-17T11:23:24Z</time>
      </trkpt>
      <trkpt lat="46.12276" lon="5.43455">
        <ele>277</ele>
        <time>2019-04-17T11:24:24Z</time>
      </trkpt>
      <trkpt lat="46.12304" lon="5.43512">
        <ele>277</ele>
        <time>2019-04-17T11:25:24Z</time>
      </trkpt>
      <trkpt lat="46.12332" lon="5.43602">
        <ele>280</ele>
        <time>2019-04-17T11:26:24Z</time>
      </trkpt>
      <trkpt lat="46.12347" lon="5.43623">
        <ele>282</ele>
        <time>2019-04-17T11:27:24Z</time>
      </trkpt>
      <trkpt lat="46.12441" lon="5.43699">
        <ele>284</ele>
        <time>2019-04-17T11:28:24Z</time>
      </trkpt>
      <trkpt lat="46.12476" lon="5.43706">
        <ele>281</ele>
        <time>2019-04-17T11:29:24Z</time>
      </trkpt>
      <trkpt lat="46.12667" lon="5.43811">
        <ele>290</ele>
        <time>2019-04-17T11:30:24Z</time>
      </trkpt>
      <trkpt lat="46.12706" lon="5.43822">
        <ele>291</ele>
        <time>2019-04-17T11:31:24Z</time>
      </trkpt>
      <trkpt lat="46.1278" lon="5.43834">
        <ele>291</ele>
        <time>2019-04-17T11:32:24Z</time>
      </trkpt>
      <trkpt lat="46.1283" lon="5.43835">
        <ele>290</ele>
        <time>2019-04-17T11:33:24Z</time>
      </trkpt>
      <trkpt lat="46.12843" lon="5.43837">
        <ele>290</ele>
        <time>2019-04-17T11:34:24Z</time>
      </trkpt>
      <trkpt lat="46.12851" lon="5.43843">
        <ele>291</ele>
        <time>2019-04-17T11:35:24Z</time>
      </trkpt>
      <trkpt lat="46.12871" lon="5.43863">
        <ele>295</ele>
        <time>2019-04-17T11:36:24Z</time>
      </trkpt>
      <trkpt lat="46.12883" lon="5.43871">
        <ele>295</ele>
        <time>2019-04-17T11:37:24Z</time>
      </trkpt>
      <trkpt lat="46.12901" lon="5.43879">
        <ele>293</ele>
        <time>2019-04-17T11:38:24Z</time>
      </trkpt>
      <trkpt lat="46.12924" lon="5.43883">
        <ele>292</ele>
        <time>2019-04-17T11:39:24Z</time>
      </trkpt>
      <trkpt lat="46.12937" lon="5.4388">
        <ele>293</ele>
        <time>2019-04-17T11:40:24Z</time>
      </trkpt>
      <trkpt lat="46.12948" lon="5.43873">
        <ele>294</ele>
        <time>2019-04-17T11:41:24Z</time>
      </trkpt>
      <trkpt lat="46.12955" lon="5.43862">
        <ele>294</ele>
        <time>2019-04-17T11:42:24Z</time>
      </trkpt>
      <trkpt lat="46.12966" lon="5.43819">
        <ele>291</ele>
        <time>2019-04-17T11:43:24Z</time>
      </trkpt>
      <trkpt lat="46.12973" lon="5.43808">
        <ele>291</ele>
        <time>2019-04-17T11:44:24Z</time>
      </trkpt>
      <trkpt lat="46.13018" lon="5.43776">
        <ele>295</ele>
        <time>2019-04-17T11:45:24Z</time>
      </trkpt>
      <trkpt lat="46.13044" lon="5.43763">
        <ele>297</ele>
        <time>2019-04-17T11:46:24Z</time>
      </trkpt>
      <trkpt lat="46.13076" lon="5.43754">
        <ele>299</ele>
        <time>2019-04-17T11:47:24Z</time>
      </trkpt>
      <trkpt lat="46.13178" lon="5.43746">
        <ele>306</ele>
        <time>2019-04-17T11:48:24Z</time>
      </trkpt>
      <trkpt lat="46.13223" lon="5.43748">
        <ele>312</ele>
        <time>2019-04-17T11:49:24Z</time>
      </trkpt>
      <trkpt lat="46.13243" lon="5.4375">
        <ele>315</ele>
        <time>2019-04-17T11:50:24Z</time>
      </trkpt>
      <trkpt lat="46.13251" lon="5.43749">
        <ele>316</ele>
        <time>2019-04-17T11:51:24Z</time>
      </trkpt>
      <trkpt lat="46.13258" lon="5.43745">
        <ele>317</ele>
        <time>2019-04-17T11:52:24Z</time>
      </trkpt>
      <trkpt lat="46.13262" lon="5.43739">
        <ele>318</ele>
        <time>2019-04-17T11:53:24Z</time>
      </trkpt>
      <trkpt lat="46.13263" lon="5.4373">
        <ele>318</ele>
        <time>2019-04-17T11:54:24Z</time>
      </trkpt>
      <trkpt lat="46.13261" lon="5.43718">
        <ele>318</ele>
        <time>2019-04-17T11:55:24Z</time>
      </trkpt>
      <trkpt lat="46.13236" lon="5.43661">
        <ele>313</ele>
        <time>2019-04-17T11:56:24Z</time>
      </trkpt>
      <trkpt lat="46.13231" lon="5.43645">
        <ele>312</ele>
        <time>2019-04-17T11:57:24Z</time>
      </trkpt>
      <trkpt lat="46.13229" lon="5.4363">
        <ele>312</ele>
        <time>2019-04-17T11:58:24Z</time>
      </trkpt>
      <trkpt lat="46.13233" lon="5.43609">
        <ele>313</ele>
        <time>2019-04-17T11:59:24Z</time>
      </trkpt>
      <trkpt lat="46.13239" lon="5.43584">
        <ele>314</ele>
        <time>2019-04-17T12:00:24Z</time>
      </trkpt>
      <trkpt lat="46.13245" lon="5.43573">
        <ele>315</ele>
        <time>2019-04-17T12:01:24Z</time>
      </trkpt>
      <trkpt lat="46.13304" lon="5.43504">
        <ele>317</ele>
        <time>2019-04-17T12:02:24Z</time>
      </trkpt>
      <trkpt lat="46.13317" lon="5.43492">
        <ele>317</ele>
        <time>2019-04-17T12:03:24Z</time>
      </trkpt>
      <trkpt lat="46.13349" lon="5.43477">
        <ele>317</ele>
        <time>2019-04-17T12:04:24Z</time>
      </trkpt>
      <trkpt lat="46.13427" lon="5.4345">
        <ele>317</ele>
        <time>2019-04-17T12:05:24Z</time>
      </trkpt>
      <trkpt lat="46.13441" lon="5.43447">
        <ele>317</ele>
        <time>2019-04-17T12:06:24Z</time>
      </trkpt>
      <trkpt lat="46.13464" lon="5.43446">
        <ele>317</ele>
        <time>2019-04-17T12:07:24Z</time>
      </trkpt>
      <trkpt lat="46.13586" lon="5.43452">
        <ele>317</ele>
        <time>2019-04-17T12:08:24Z</time>
      </trkpt>
      <trkpt lat="46.13595" lon="5.43453">
        <ele>316</ele>
        <time>2019-04-17T12:09:24Z</time>
      </trkpt>
      <trkpt lat="46.13608" lon="5.43459">
        <ele>316</ele>
        <time>2019-04-17T12:10:24Z</time>
      </trkpt>
      <trkpt lat="46.13687" lon="5.43511">
        <ele>317</ele>
        <time>2019-04-17T12:11:24Z</time>
      </trkpt>
      <trkpt lat="46.13932" lon="5.43699">
        <ele>316</ele>
        <time>2019-04-17T12:12:24Z</time>
      </trkpt>
      <trkpt lat="46.14018" lon="5.43738">
        <ele>312</ele>
        <time>2019-04-17T12:13:24Z</time>
      </trkpt>
      <trkpt lat="46.14135" lon="5.43785">
        <ele>307</ele>
        <time>2019-04-17T12:14:24Z</time>
      </trkpt>
      <trkpt lat="46.14258" lon="5.43876">
        <ele>305</ele>
        <time>2019-04-17T12:15:24Z</time>
      </trkpt>
      <trkpt lat="46.14303" lon="5.43929">
        <ele>305</ele>
        <time>2019-04-17T12:16:24Z</time>
      </trkpt>
      <trkpt lat="46.14442" lon="5.44039">
        <ele>304</ele>
        <time>2019-04-17T12:17:24Z</time>
      </trkpt>
      <trkpt lat="46.14551" lon="5.44139">
        <ele>302</ele>
        <time>2019-04-17T12:18:24Z</time>
      </trkpt>
      <trkpt lat="46.14601" lon="5.44173">
        <ele>300</ele>
        <time>2019-04-17T12:19:24Z</time>
      </trkpt>
      <trkpt lat="46.14683" lon="5.44247">
        <ele>296</ele>
        <time>2019-04-17T12:20:24Z</time>
      </trkpt>
      <trkpt lat="46.14699" lon="5.44256">
        <ele>295</ele>
        <time>2019-04-17T12:21:24Z</time>
      </trkpt>
      <trkpt lat="46.14786" lon="5.44282">
        <ele>289</ele>
        <time>2019-04-17T12:22:24Z</time>
      </trkpt>
      <trkpt lat="46.14806" lon="5.44291">
        <ele>286</ele>
        <time>2019-04-17T12:23:24Z</time>
      </trkpt>
      <trkpt lat="46.1482" lon="5.44305">
        <ele>285</ele>
        <time>2019-04-17T12:24:24Z</time>
      </trkpt>
      <trkpt lat="46.1486" lon="5.4445">
        <ele>285</ele>
        <time>2019-04-17T12:25:24Z</time>
      </trkpt>
      <trkpt lat="46.14895" lon="5.44527">
        <ele>286</ele>
        <time>2019-04-17T12:26:24Z</time>
      </trkpt>
      <trkpt lat="46.14932" lon="5.44563">
        <ele>284</ele>
        <time>2019-04-17T12:27:24Z</time>
      </trkpt>
      <trkpt lat="46.14974" lon="5.44594">
        <ele>279</ele>
        <time>2019-04-17T12:28:24Z</time>
      </trkpt>
      <trkpt lat="46.15002" lon="5.44618">
        <ele>276</ele>
        <time>2019-04-17T12:29:24Z</time>
      </trkpt>
      <trkpt lat="46.15048" lon="5.44673">
        <ele>276</ele>
        <time>2019-04-17T12:30:24Z</time>
      </trkpt>
      <trkpt lat="46.15098" lon="5.44723">
        <ele>277</ele>
        <time>2019-04-17T12:31:24Z</time>
      </trkpt>
      <trkpt lat="46.15103" lon="5.44731">
        <ele>278</ele>
        <time>2019-04-17T12:32:24Z</time>
      </trkpt>
      <trkpt lat="46.15105" lon="5.44741">
        <ele>279</ele>
        <time>2019-04-17T12:33:24Z</time>
      </trkpt>
      <trkpt lat="46.15105" lon="5.44763">
        <ele>281</ele>
        <time>2019-04-17T12:34:24Z</time>
      </trkpt>
      <trkpt lat="46.15106" lon="5.44774">
        <ele>283</ele>
        <time>2019-04-17T12:35:24Z</time>
      </trkpt>
      <trkpt lat="46.15108" lon="5.4478">
        <ele>283</ele>
        <time>2019-04-17T12:36:24Z</time>
      </trkpt>
      <trkpt lat="46.15114" lon="5.44786">
        <ele>284</ele>
        <time>2019-04-17T12:37:24Z</time>
      </trkpt>
      <trkpt lat="46.1512" lon="5.44787">
        <ele>283</ele>
        <time>2019-04-17T12:38:24Z</time>
      </trkpt>
      <trkpt lat="46.15141" lon="5.44772">
        <ele>279</ele>
        <time>2019-04-17T12:39:24Z</time>
      </trkpt>
      <trkpt lat="46.1515" lon="5.44771">
        <ele>278</ele>
        <time>2019-04-17T12:40:24Z</time>
      </trkpt>
      <trkpt lat="46.15158" lon="5.44774">
        <ele>277</ele>
        <time>2019-04-17T12:41:24Z</time>
      </trkpt>
      <trkpt lat="46.15207" lon="5.44811">
        <ele>280</ele>
        <time>2019-04-17T12:42:24Z</time>
      </trkpt>
      <trkpt lat="46.15244" lon="5.44844">
        <ele>282</ele>
        <time>2019-04-17T12:43:24Z</time>
      </trkpt>
      <trkpt lat="46.1528" lon="5.4487">
        <ele>285</ele>
        <time>2019-04-17T12:44:24Z</time>
      </trkpt>
      <trkpt lat="46.15319" lon="5.4489">
        <ele>285</ele>
        <time>2019-04-17T12:45:24Z</time>
      </trkpt>
      <trkpt lat="46.15354" lon="5.44902">
        <ele>285</ele>
        <time>2019-04-17T12:46:24Z</time>
      </trkpt>
      <trkpt lat="46.15455" lon="5.4493">
        <ele>281</ele>
        <time>2019-04-17T12:47:24Z</time>
      </trkpt>
      <trkpt lat="46.15484" lon="5.44942">
        <ele>280</ele>
        <time>2019-04-17T12:48:24Z</time>
      </trkpt>
      <trkpt lat="46.15566" lon="5.44984">
        <ele>284</ele>
        <time>2019-04-17T12:49:24Z</time>
      </trkpt>
      <trkpt lat="46.15691" lon="5.45054">
        <ele>287</ele>
        <time>2019-04-17T12:50:24Z</time>
      </trkpt>
      <trkpt lat="46.15815" lon="5.45115">
        <ele>283</ele>
        <time>2019-04-17T12:51:24Z</time>
      </trkpt>
      <trkpt lat="46.15886" lon="5.4516">
        <ele>281</ele>
        <time>2019-04-17T12:52:24Z</time>
      </trkpt>
      <trkpt lat="46.1612" lon="5.45358">
        <ele>293</ele>
        <time>2019-04-17T12:53:24Z</time>
      </trkpt>
      <trkpt lat="46.16217" lon="5.4543">
        <ele>290</ele>
        <time>2019-04-17T12:54:24Z</time>
      </trkpt>
      <trkpt lat="46.16353" lon="5.45559">
        <ele>288</ele>
        <time>2019-04-17T12:55:24Z</time>
      </trkpt>
      <trkpt lat="46.16398" lon="5.45616">
        <ele>291</ele>
        <time>2019-04-17T12:56:24Z</time>
      </trkpt>
      <trkpt lat="46.1645" lon="5.45691">
        <ele>299</ele>
        <time>2019-04-17T12:57:24Z</time>
      </trkpt>
      <trkpt lat="46.16523" lon="5.45765">
        <ele>292</ele>
        <time>2019-04-17T12:58:24Z</time>
      </trkpt>
      <trkpt lat="46.16584" lon="5.45814">
        <ele>287</ele>
        <time>2019-04-17T12:59:24Z</time>
      </trkpt>
      <trkpt lat="46.1661" lon="5.45831">
        <ele>287</ele>
        <time>2019-04-17T13:00:24Z</time>
      </trkpt>
      <trkpt lat="46.16625" lon="5.4584">
        <ele>288</ele>
        <time>2019-04-17T13:01:24Z</time>
      </trkpt>
      <trkpt lat="46.16636" lon="5.45844">
        <ele>287</ele>
        <time>2019-04-17T13:02:24Z</time>
      </trkpt>
      <trkpt lat="46.16686" lon="5.45857">
        <ele>283</ele>
        <time>2019-04-17T13:03:24Z</time>
      </trkpt>
      <trkpt lat="46.16727" lon="5.4586">
        <ele>281</ele>
        <time>2019-04-17T13:04:24Z</time>
      </trkpt>
      <trkpt lat="46.16783" lon="5.45868">
        <ele>279</ele>
        <time>2019-04-17T13:05:24Z</time>
      </trkpt>
      <trkpt lat="46.16872" lon="5.45867">
        <ele>277</ele>
        <time>2019-04-17T13:06:24Z</time>
      </trkpt>
      <trkpt lat="46.1689" lon="5.4587">
        <ele>277</ele>
        <time>2019-04-17T13:07:24Z</time>
      </trkpt>
      <trkpt lat="46.16913" lon="5.45876">
        <ele>277</ele>
        <time>2019-04-17T13:08:24Z</time>
      </trkpt>
      <trkpt lat="46.16926" lon="5.45887">
        <ele>278</ele>
        <time>2019-04-17T13:09:24Z</time>
      </trkpt>
      <trkpt lat="46.17058" lon="5.46013">
        <ele>286</ele>
        <time>2019-04-17T13:10:24Z</time>
      </trkpt>
      <trkpt lat="46.17151" lon="5.46097">
        <ele>286</ele>
        <time>2019-04-17T13:11:24Z</time>
      </trkpt>
      <trkpt lat="46.17193" lon="5.46139">
        <ele>286</ele>
        <time>2019-04-17T13:12:24Z</time>
      </trkpt>
      <trkpt lat="46.17255" lon="5.46192">
        <ele>278</ele>
        <time>2019-04-17T13:13:24Z</time>
      </trkpt>
      <trkpt lat="46.1727" lon="5.46207">
        <ele>279</ele>
        <time>2019-04-17T13:14:24Z</time>
      </trkpt>
      <trkpt lat="46.17291" lon="5.46239">
        <ele>279</ele>
        <time>2019-04-17T13:15:24Z</time>
      </trkpt>
      <trkpt lat="46.17321" lon="5.46318">
        <ele>279</ele>
        <time>2019-04-17T13:16:24Z</time>
      </trkpt>
      <trkpt lat="46.17339" lon="5.46362">
        <ele>283</ele>
        <time>2019-04-17T13:17:24Z</time>
      </trkpt>
      <trkpt lat="46.17346" lon="5.46373">
        <ele>285</ele>
        <time>2019-04-17T13:18:24Z</time>
      </trkpt>
      <trkpt lat="46.17355" lon="5.4638">
        <ele>287</ele>
        <time>2019-04-17T13:19:24Z</time>
      </trkpt>
      <trkpt lat="46.17372" lon="5.46385">
        <ele>287</ele>
        <time>2019-04-17T13:20:24Z</time>
      </trkpt>
      <trkpt lat="46.17409" lon="5.46385">
        <ele>287</ele>
        <time>2019-04-17T13:21:24Z</time>
      </trkpt>
      <trkpt lat="46.17442" lon="5.4639">
        <ele>287</ele>
        <time>2019-04-17T13:22:24Z</time>
      </trkpt>
      <trkpt lat="46.17463" lon="5.46391">
        <ele>287</ele>
        <time>2019-04-17T13:23:24Z</time>
      </trkpt>
      <trkpt lat="46.17534" lon="5.46386">
        <ele>285</ele>
        <time>2019-04-17T13:24:24Z</time>
      </trkpt>
      <trkpt lat="46.176" lon="5.46391">
        <ele>289</ele>
        <time>2019-04-17T13:25:24Z</time>
      </trkpt>
      <trkpt lat="46.17647" lon="5.46383">
        <ele>291</ele>
        <time>2019-04-17T13:26:24Z</time>
      </trkpt>
      <trkpt lat="46.17694" lon="5.4637">
        <ele>295</ele>
        <time>2019-04-17T13:27:24Z</time>
      </trkpt>
      <trkpt lat="46.1771" lon="5.46361">
        <ele>296</ele>
        <time>2019-04-17T13:28:24Z</time>
      </trkpt>
      <trkpt lat="46.17722" lon="5.46349">
        <ele>294</ele>
        <time>2019-04-17T13:29:24Z</time>
      </trkpt>
      <trkpt lat="46.17733" lon="5.46335">
        <ele>292</ele>
        <time>2019-04-17T13:30:24Z</time>
      </trkpt>
      <trkpt lat="46.17758" lon="5.46289">
        <ele>289</ele>
        <time>2019-04-17T13:31:24Z</time>
      </trkpt>
      <trkpt lat="46.17802" lon="5.46223">
        <ele>292</ele>
        <time>2019-04-17T13:32:24Z</time>
      </trkpt>
      <trkpt lat="46.1786" lon="5.46126">
        <ele>292</ele>
        <time>2019-04-17T13:33:24Z</time>
      </trkpt>
      <trkpt lat="46.17877" lon="5.46065">
        <ele>291</ele>
        <time>2019-04-17T13:34:24Z</time>
      </trkpt>
      <trkpt lat="46.17878" lon="5.4597">
        <ele>289</ele>
        <time>2019-04-17T13:35:24Z</time>
      </trkpt>
      <trkpt lat="46.17867" lon="5.45901">
        <ele>286</ele>
        <time>2019-04-17T13:36:24Z</time>
      </trkpt>
      <trkpt lat="46.1787" lon="5.45868">
        <ele>285</ele>
        <time>2019-04-17T13:37:24Z</time>
      </trkpt>
      <trkpt lat="46.1788" lon="5.45839">
        <ele>286</ele>
        <time>2019-04-17T13:38:24Z</time>
      </trkpt>
      <trkpt lat="46.17909" lon="5.45783">
        <ele>287</ele>
        <time>2019-04-17T13:39:24Z</time>
      </trkpt>
      <trkpt lat="46.17929" lon="5.45761">
        <ele>288</ele>
        <time>2019-04-17T13:40:24Z</time>
      </trkpt>
      <trkpt lat="46.17946" lon="5.45752">
        <ele>289</ele>
        <time>2019-04-17T13:41:24Z</time>
      </trkpt>
      <trkpt lat="46.1807" lon="5.45735">
        <ele>294</ele>
        <time>2019-04-17T13:42:24Z</time>
      </trkpt>
      <trkpt lat="46.18136" lon="5.45739">
        <ele>294</ele>
        <time>2019-04-17T13:43:24Z</time>
      </trkpt>
      <trkpt lat="46.18162" lon="5.45742">
        <ele>294</ele>
        <time>2019-04-17T13:44:24Z</time>
      </trkpt>
      <trkpt lat="46.18184" lon="5.45752">
        <ele>293</ele>
        <time>2019-04-17T13:45:24Z</time>
      </trkpt>
      <trkpt lat="46.18208" lon="5.45768">
        <ele>293</ele>
        <time>2019-04-17T13:46:24Z</time>
      </trkpt>
      <trkpt lat="46.18296" lon="5.45855">
        <ele>295</ele>
        <time>2019-04-17T13:47:24Z</time>
      </trkpt>
      <trkpt lat="46.1838" lon="5.45932">
        <ele>294</ele>
        <time>2019-04-17T13:48:24Z</time>
      </trkpt>
      <trkpt lat="46.18419" lon="5.45988">
        <ele>292</ele>
        <time>2019-04-17T13:49:24Z</time>
      </trkpt>
      <trkpt lat="46.18436" lon="5.46026">
        <ele>294</ele>
        <time>2019-04-17T13:50:24Z</time>
      </trkpt>
      <trkpt lat="46.18473" lon="5.46084">
        <ele>291</ele>
        <time>2019-04-17T13:51:24Z</time>
      </trkpt>
      <trkpt lat="46.18531" lon="5.46208">
        <ele>293</ele>
        <time>2019-04-17T13:52:24Z</time>
      </trkpt>
      <trkpt lat="46.18589" lon="5.46312">
        <ele>287</ele>
        <time>2019-04-17T13:53:24Z</time>
      </trkpt>
      <trkpt lat="46.18602" lon="5.46348">
        <ele>291</ele>
        <time>2019-04-17T13:54:24Z</time>
      </trkpt>
      <trkpt lat="46.18644" lon="5.4644">
        <ele>297</ele>
        <time>2019-04-17T13:55:24Z</time>
      </trkpt>
      <trkpt lat="46.18719" lon="5.46574">
        <ele>297</ele>
        <time>2019-04-17T13:56:24Z</time>
      </trkpt>
      <trkpt lat="46.1877" lon="5.46641">
        <ele>290</ele>
        <time>2019-04-17T13:57:24Z</time>
      </trkpt>
      <trkpt lat="46.18823" lon="5.46716">
        <ele>289</ele>
        <time>2019-04-17T13:58:24Z</time>
      </trkpt>
      <trkpt lat="46.18843" lon="5.46738">
        <ele>286</ele>
        <time>2019-04-17T13:59:24Z</time>
      </trkpt>
      <trkpt lat="46.18911" lon="5.46746">
        <ele>276</ele>
        <time>2019-04-17T14:00:24Z</time>
      </trkpt>
      <trkpt lat="46.18979" lon="5.46764">
        <ele>278</ele>
        <time>2019-04-17T14:01:24Z</time>
      </trkpt>
      <trkpt lat="46.18992" lon="5.46761">
        <ele>278</ele>
        <time>2019-04-17T14:02:24Z</time>
      </trkpt>
      <trkpt lat="46.19003" lon="5.46752">
        <ele>277</ele>
        <time>2019-04-17T14:03:24Z</time>
      </trkpt>
      <trkpt lat="46.19015" lon="5.46736">
        <ele>277</ele>
        <time>2019-04-17T14:04:24Z</time>
      </trkpt>
      <trkpt lat="46.1903" lon="5.46725">
        <ele>277</ele>
        <time>2019-04-17T14:05:24Z</time>
      </trkpt>
      <trkpt lat="46.1905" lon="5.46717">
        <ele>278</ele>
        <time>2019-04-17T14:06:24Z</time>
      </trkpt>
      <trkpt lat="46.19112" lon="5.46713">
        <ele>281</ele>
        <time>2019-04-17T14:07:24Z</time>
      </trkpt>
      <trkpt lat="46.19153" lon="5.46702">
        <ele>281</ele>
        <time>2019-04-17T14:08:24Z</time>
      </trkpt>
      <trkpt lat="46.19203" lon="5.46685">
        <ele>281</ele>
        <time>2019-04-17T14:09:24Z</time>
      </trkpt>
      <trkpt lat="46.19486" lon="5.46535">
        <ele>281</ele>
        <time>2019-04-17T14:10:24Z</time>
      </trkpt>
      <trkpt lat="46.19634" lon="5.46479">
        <ele>280</ele>
        <time>2019-04-17T14:11:24Z</time>
      </trkpt>
      <trkpt lat="46.1968" lon="5.46471">
        <ele>280</ele>
        <time>2019-04-17T14:12:24Z</time>
      </trkpt>
      <trkpt lat="46.19773" lon="5.46471">
        <ele>280</ele>
        <time>2019-04-17T14:13:24Z</time>
      </trkpt>
      <trkpt lat="46.19806" lon="5.46477">
        <ele>281</ele>
        <time>2019-04-17T14:14:24Z</time>
      </trkpt>
      <trkpt lat="46.19856" lon="5.46496">
        <ele>284</ele>
        <time>2019-04-17T14:15:24Z</time>
      </trkpt>
      <trkpt lat="46.19954" lon="5.46525">
        <ele>290</ele>
        <time>2019-04-17T14:16:24Z</time>
      </trkpt>
      <trkpt lat="46.20131" lon="5.46547">
        <ele>294</ele>
        <time>2019-04-17T14:17:24Z</time>
      </trkpt>
      <trkpt lat="46.20265" lon="5.46579">
        <ele>293</ele>
        <time>2019-04-17T14:18:24Z</time>
      </trkpt>
      <trkpt lat="46.20307" lon="5.46596">
        <ele>298</ele>
        <time>2019-04-17T14:19:24Z</time>
      </trkpt>
      <trkpt lat="46.20339" lon="5.46602">
        <ele>300</ele>
        <time>2019-04-17T14:20:24Z</time>
      </trkpt>
      <trkpt lat="46.20389" lon="5.46598">
        <ele>297</ele>
        <time>2019-04-17T14:21:24Z</time>
      </trkpt>
      <trkpt lat="46.20454" lon="5.46584">
        <ele>297</ele>
        <time>2019-04-17T14:22:24Z</time>
      </trkpt>
      <trkpt lat="46.20466" lon="5.46577">
        <ele>297</ele>
        <time>2019-04-17T14:23:24Z</time>
      </trkpt>
      <trkpt lat="46.20497" lon="5.46554">
        <ele>295</ele>
        <time>2019-04-17T14:24:24Z</time>
      </trkpt>
      <trkpt lat="46.20511" lon="5.46547">
        <ele>297</ele>
        <time>2019-04-17T14:25:24Z</time>
      </trkpt>
      <trkpt lat="46.20541" lon="5.46538">
        <ele>303</ele>
        <time>2019-04-17T14:26:24Z</time>
      </trkpt>
      <trkpt lat="46.20553" lon="5.46532">
        <ele>304</ele>
        <time>2019-04-17T14:27:24Z</time>
      </trkpt>
      <trkpt lat="46.20566" lon="5.4652">
        <ele>303</ele>
        <time>2019-04-17T14:28:24Z</time>
      </trkpt>
      <trkpt lat="46.20581" lon="5.46501">
        <ele>300</ele>
        <time>2019-04-17T14:29:24Z</time>
      </trkpt>
      <trkpt lat="46.20621" lon="5.46441">
        <ele>305</ele>
        <time>2019-04-17T14:30:24Z</time>
      </trkpt>
      <trkpt lat="46.20651" lon="5.46384">
        <ele>303</ele>
        <time>2019-04-17T14:31:24Z</time>
      </trkpt>
      <trkpt lat="46.20667" lon="5.46348">
        <ele>301</ele>
        <time>2019-04-17T14:32:24Z</time>
      </trkpt>
      <trkpt lat="46.20678" lon="5.46317">
        <ele>303</ele>
        <time>2019-04-17T14:33:24Z</time>
      </trkpt>
      <trkpt lat="46.20691" lon="5.46266">
        <ele>303</ele>
        <time>2019-04-17T14:34:24Z</time>
      </trkpt>
      <trkpt lat="46.20706" lon="5.46193">
        <ele>304</ele>
        <time>2019-04-17T14:35:24Z</time>
      </trkpt>
      <trkpt lat="46.20714" lon="5.46115">
        <ele>304</ele>
        <time>2019-04-17T14:36:24Z</time>
      </trkpt>
      <trkpt lat="46.20716" lon="5.46076">
        <ele>303</ele>
        <time>2019-04-17T14:37:24Z</time>
      </trkpt>
      <trkpt lat="46.20717" lon="5.46016">
        <ele>301</ele>
        <time>2019-04-17T14:38:24Z</time>
      </trkpt>
      <trkpt lat="46.20722" lon="5.45981">
        <ele>301</ele>
        <time>2019-04-17T14:39:24Z</time>
      </trkpt>
      <trkpt lat="46.20777" lon="5.45788">
        <ele>304</ele>
        <time>2019-04-17T14:40:24Z</time>
      </trkpt>
      <trkpt lat="46.20786" lon="5.4574">
        <ele>303</ele>
        <time>2019-04-17T14:41:24Z</time>
      </trkpt>
      <trkpt lat="46.20793" lon="5.45715">
        <ele>303</ele>
        <time>2019-04-17T14:42:24Z</time>
      </trkpt>
      <trkpt lat="46.20835" lon="5.45592">
        <ele>304</ele>
        <time>2019-04-17T14:43:24Z</time>
      </trkpt>
      <trkpt lat="46.20837" lon="5.45579">
        <ele>304</ele>
        <time>2019-04-17T14:44:24Z</time>
      </trkpt>
      <trkpt lat="46.20836" lon="5.45563">
        <ele>303</ele>
        <time>2019-04-17T14:45:24Z</time>
      </trkpt>
      <trkpt lat="46.2083" lon="5.45528">
        <ele>300</ele>
        <time>2019-04-17T14:46:24Z</time>
      </trkpt>
      <trkpt lat="46.20829" lon="5.45511">
        <ele>299</ele>
        <time>2019-04-17T14:47:24Z</time>
      </trkpt>
      <trkpt lat="46.2083" lon="5.4549">
        <ele>298</ele>
        <time>2019-04-17T14:48:24Z</time>
      </trkpt>
      <trkpt lat="46.20839" lon="5.45445">
        <ele>298</ele>
        <time>2019-04-17T14:49:24Z</time>
      </trkpt>
      <trkpt lat="46.20855" lon="5.45402">
        <ele>299</ele>
        <time>2019-04-17T14:50:24Z</time>
      </trkpt>
      <trkpt lat="46.20908" lon="5.453">
        <ele>300</ele>
        <time>2019-04-17T14:51:24Z</time>
      </trkpt>
      <trkpt lat="46.2093" lon="5.45266">
        <ele>298</ele>
        <time>2019-04-17T14:52:24Z</time>
      </trkpt>
      <trkpt lat="46.20956" lon="5.45233">
        <ele>299</ele>
        <time>2019-04-17T14:53:24Z</time>
      </trkpt>
      <trkpt lat="46.20977" lon="5.45211">
        <ele>300</ele>
        <time>2019-04-17T14:54:24Z</time>
      </trkpt>
      <trkpt lat="46.20999" lon="5.45195">
        <ele>301</ele>
        <time>2019-04-17T14:55:24Z</time>
      </trkpt>
      <trkpt lat="46.21026" lon="5.45179">
        <ele>302</ele>
        <time>2019-04-17T14:56:24Z</time>
      </trkpt>
      <trkpt lat="46.2105" lon="5.45168">
        <ele>304</ele>
        <time>2019-04-17T14:57:24Z</time>
      </trkpt>
      <trkpt lat="46.21128" lon="5.45148">
        <ele>305</ele>
        <time>2019-04-17T14:58:24Z</time>
      </trkpt>
      <trkpt lat="46.21175" lon="5.45149">
        <ele>305</ele>
        <time>2019-04-17T14:59:24Z</time>
      </trkpt>
      <trkpt lat="46.21343" lon="5.45167">
        <ele>304</ele>
        <time>2019-04-17T15:00:24Z</time>
      </trkpt>
      <trkpt lat="46.21381" lon="5.45175">
        <ele>303</ele>
        <time>2019-04-17T15:01:24Z</time>
      </trkpt>
      <trkpt lat="46.2141" lon="5.45185">
        <ele>303</ele>
        <time>2019-04-17T15:02:24Z</time>
      </trkpt>
      <trkpt lat="46.21437" lon="5.45198">
        <ele>303</ele>
        <time>2019-04-17T15:03:24Z</time>
      </trkpt>
      <trkpt lat="46.21467" lon="5.4522">
        <ele>303</ele>
        <time>2019-04-17T15:04:24Z</time>
      </trkpt>
      <trkpt lat="46.21488" lon="5.45226">
        <ele>301</ele>
        <time>2019-04-17T15:05:24Z</time>
      </trkpt>
      <trkpt lat="46.21484" lon="5.45219">
        <ele>301</ele>
        <time>2019-04-17T15:06:24Z</time>
      </trkpt>
      <trkpt lat="46.21478" lon="5.45212">
        <ele>300</ele>
        <time>2019-04-17T15:07:24Z</time>
      </trkpt>
      <trkpt lat="46.21415" lon="5.4517">
        <ele>301</ele>
        <time>2019-04-17T15:08:24Z</time>
      </trkpt>
      <trkpt lat="46.21388" lon="5.45156">
        <ele>299</ele>
        <time>2019-04-17T15:09:24Z</time>
      </trkpt>
      <trkpt lat="46.21335" lon="5.45145">
        <ele>299</ele>
        <time>2019-04-17T15:10:24Z</time>
      </trkpt>
      <trkpt lat="46.21325" lon="5.4514">
        <ele>298</ele>
        <time>2019-04-17T15:11:24Z</time>
      </trkpt>
      <trkpt lat="46.21322" lon="5.45136">
        <ele>298</ele>
        <time>2019-04-17T15:12:24Z</time>
      </trkpt>
      <trkpt lat="46.21322" lon="5.45129">
        <ele>296</ele>
        <time>2019-04-17T15:13:24Z</time>
      </trkpt>
      <trkpt lat="46.21325" lon="5.45121">
        <ele>294</ele>
        <time>2019-04-17T15:14:24Z</time>
      </trkpt>
      <trkpt lat="46.21331" lon="5.45118">
        <ele>293</ele>
        <time>2019-04-17T15:15:24Z</time>
      </trkpt>
      <trkpt lat="46.21358" lon="5.4512">
        <ele>292</ele>
        <time>2019-04-17T15:16:24Z</time>
      </trkpt>
      <trkpt lat="46.2141" lon="5.4513">
        <ele>292</ele>
        <time>2019-04-17T15:17:24Z</time>
      </trkpt>
      <trkpt lat="46.21446" lon="5.45142">
        <ele>292</ele>
        <time>2019-04-17T15:18:24Z</time>
      </trkpt>
      <trkpt lat="46.21479" lon="5.45162">
        <ele>292</ele>
        <time>2019-04-17T15:19:24Z</time>
      </trkpt>
      <trkpt lat="46.21505" lon="5.45181">
        <ele>291</ele>
        <time>2019-04-17T15:20:24Z</time>
      </trkpt>
      <trkpt lat="46.21514" lon="5.45184">
        <ele>289</ele>
        <time>2019-04-17T15:21:24Z</time>
      </trkpt>
      <trkpt lat="46.21523" lon="5.45179">
        <ele>286</ele>
        <time>2019-04-17T15:22:24Z</time>
      </trkpt>
      <trkpt lat="46.21551" lon="5.45129">
        <ele>278</ele>
        <time>2019-04-17T15:23:24Z</time>
      </trkpt>
      <trkpt lat="46.21523" lon="5.45179">
        <ele>286</ele>
        <time>2019-04-17T15:24:24Z</time>
      </trkpt>
      <trkpt lat="46.21514" lon="5.45184">
        <ele>289</ele>
        <time>2019-04-17T15:25:24Z</time>
      </trkpt>
      <trkpt lat="46.21505" lon="5.45181">
        <ele>291</ele>
        <time>2019-04-17T15:26:24Z</time>
      </trkpt>
      <trkpt lat="46.21479" lon="5.45162">
        <ele>292</ele>
        <time>2019-04-17T15:27:24Z</time>
      </trkpt>
      <trkpt lat="46.21446" lon="5.45142">
        <ele>292</ele>
        <time>2019-04-17T15:28:24Z</time>
      </trkpt>
      <trkpt lat="46.2141" lon="5.4513">
        <ele>292</ele>
        <time>2019-04-17T15:29:24Z</time>
      </trkpt>
      <trkpt lat="46.21358" lon="5.4512">
        <ele>292</ele>
        <time>2019-04-17T15:30:24Z</time>
      </trkpt>
      <trkpt lat="46.21331" lon="5.45118">
        <ele>293</ele>
        <time>2019-04-17T15:31:24Z</time>
      </trkpt>
      <trkpt lat="46.21325" lon="5.45121">
        <ele>294</ele>
        <time>2019-04-17T15:32:24Z</time>
      </trkpt>
      <trkpt lat="46.21322" lon="5.45129">
        <ele>296</ele>
        <time>2019-04-17T15:33:24Z</time>
      </trkpt>
      <trkpt lat="46.21322" lon="5.45136">
        <ele>298</ele>
        <time>2019-04-17T15:34:24Z</time>
      </trkpt>
      <trkpt lat="46.21325" lon="5.4514">
        <ele>298</ele>
        <time>2019-04-17T15:35:24Z</time>
      </trkpt>
      <trkpt lat="46.21335" lon="5.45145">
        <ele>299</ele>
        <time>2019-04-17T15:36:24Z</time>
      </trkpt>
      <trkpt lat="46.21388" lon="5.45156">
        <ele>299</ele>
        <time>2019-04-17T15:37:24Z</time>
      </trkpt>
      <trkpt lat="46.21415" lon="5.4517">
        <ele>301</ele>
        <time>2019-04-17T15:38:24Z</time>
      </trkpt>
      <trkpt lat="46.21478" lon="5.45212">
        <ele>300</ele>
        <time>2019-04-17T15:39:24Z</time>
      </trkpt>
      <trkpt lat="46.21494" lon="5.45233">
        <ele>302</ele>
        <time>2019-04-17T15:40:24Z</time>
      </trkpt>
      <trkpt lat="46.21499" lon="5.45249">
        <ele>304</ele>
        <time>2019-04-17T15:41:24Z</time>
      </trkpt>
      <trkpt lat="46.21512" lon="5.45338">
        <ele>305</ele>
        <time>2019-04-17T15:42:24Z</time>
      </trkpt>
      <trkpt lat="46.21513" lon="5.45403">
        <ele>307</ele>
        <time>2019-04-17T15:43:24Z</time>
      </trkpt>
      <trkpt lat="46.21509" lon="5.45534">
        <ele>306</ele>
        <time>2019-04-17T15:44:24Z</time>
      </trkpt>
      <trkpt lat="46.2149" lon="5.45627">
        <ele>303</ele>
        <time>2019-04-17T15:45:24Z</time>
      </trkpt>
      <trkpt lat="46.21465" lon="5.45786">
        <ele>296</ele>
        <time>2019-04-17T15:46:24Z</time>
      </trkpt>
      <trkpt lat="46.21421" lon="5.45879">
        <ele>291</ele>
        <time>2019-04-17T15:47:24Z</time>
      </trkpt>
      <trkpt lat="46.21411" lon="5.45898">
        <ele>290</ele>
        <time>2019-04-17T15:48:24Z</time>
      </trkpt>
      <trkpt lat="46.21396" lon="5.45914">
        <ele>290</ele>
        <time>2019-04-17T15:49:24Z</time>
      </trkpt>
      <trkpt lat="46.2131" lon="5.45992">
        <ele>290</ele>
        <time>2019-04-17T15:50:24Z</time>
      </trkpt>
      <trkpt lat="46.21264" lon="5.4602">
        <ele>295</ele>
        <time>2019-04-17T15:51:24Z</time>
      </trkpt>
      <trkpt lat="46.21221" lon="5.46031">
        <ele>305</ele>
        <time>2019-04-17T15:52:24Z</time>
      </trkpt>
      <trkpt lat="46.21194" lon="5.46044">
        <ele>310</ele>
        <time>2019-04-17T15:53:24Z</time>
      </trkpt>
      <trkpt lat="46.21159" lon="5.46073">
        <ele>312</ele>
        <time>2019-04-17T15:54:24Z</time>
      </trkpt>
      <trkpt lat="46.21125" lon="5.46109">
        <ele>317</ele>
        <time>2019-04-17T15:55:24Z</time>
      </trkpt>
      <trkpt lat="46.21084" lon="5.46175">
        <ele>305</ele>
        <time>2019-04-17T15:56:24Z</time>
      </trkpt>
      <trkpt lat="46.21043" lon="5.46257">
        <ele>308</ele>
        <time>2019-04-17T15:57:24Z</time>
      </trkpt>
      <trkpt lat="46.21029" lon="5.46293">
        <ele>311</ele>
        <time>2019-04-17T15:58:24Z</time>
      </trkpt>
      <trkpt lat="46.21012" lon="5.46328">
        <ele>312</ele>
        <time>2019-04-17T15:59:24Z</time>
      </trkpt>
      <trkpt lat="46.21001" lon="5.46381">
        <ele>308</ele>
        <time>2019-04-17T16:00:24Z</time>
      </trkpt>
      <trkpt lat="46.20988" lon="5.46473">
        <ele>312</ele>
        <time>2019-04-17T16:01:24Z</time>
      </trkpt>
      <trkpt lat="46.20981" lon="5.46603">
        <ele>312</ele>
        <time>2019-04-17T16:02:24Z</time>
      </trkpt>
      <trkpt lat="46.20982" lon="5.46643">
        <ele>311</ele>
        <time>2019-04-17T16:03:24Z</time>
      </trkpt>
      <trkpt lat="46.20987" lon="5.46707">
        <ele>309</ele>
        <time>2019-04-17T16:04:24Z</time>
      </trkpt>
      <trkpt lat="46.21001" lon="5.46823">
        <ele>309</ele>
        <time>2019-04-17T16:05:24Z</time>
      </trkpt>
      <trkpt lat="46.21024" lon="5.46932">
        <ele>310</ele>
        <time>2019-04-17T16:06:24Z</time>
      </trkpt>
      <trkpt lat="46.21042" lon="5.46983">
        <ele>309</ele>
        <time>2019-04-17T16:07:24Z</time>
      </trkpt>
      <trkpt lat="46.21066" lon="5.47072">
        <ele>309</ele>
        <time>2019-04-17T16:08:24Z</time>
      </trkpt>
      <trkpt lat="46.21076" lon="5.47099">
        <ele>309</ele>
        <time>2019-04-17T16:09:24Z</time>
      </trkpt>
      <trkpt lat="46.21102" lon="5.47159">
        <ele>313</ele>
        <time>2019-04-17T16:10:24Z</time>
      </trkpt>
      <trkpt lat="46.21123" lon="5.47198">
        <ele>312</ele>
        <time>2019-04-17T16:11:24Z</time>
      </trkpt>
      <trkpt lat="46.21158" lon="5.47242">
        <ele>307</ele>
        <time>2019-04-17T16:12:24Z</time>
      </trkpt>
      <trkpt lat="46.21198" lon="5.47304">
        <ele>308</ele>
        <time>2019-04-17T16:13:24Z</time>
      </trkpt>
      <trkpt lat="46.21211" lon="5.47319">
        <ele>308</ele>
        <time>2019-04-17T16:14:24Z</time>
      </trkpt>
      <trkpt lat="46.21251" lon="5.47353">
        <ele>303</ele>
        <time>2019-04-17T16:15:24Z</time>
      </trkpt>
      <trkpt lat="46.21268" lon="5.47371">
        <ele>303</ele>
        <time>2019-04-17T16:16:24Z</time>
      </trkpt>
      <trkpt lat="46.21285" lon="5.47395">
        <ele>305</ele>
        <time>2019-04-17T16:17:24Z</time>
      </trkpt>
      <trkpt lat="46.21311" lon="5.47445">
        <ele>309</ele>
        <time>2019-04-17T16:18:24Z</time>
      </trkpt>
      <trkpt lat="46.21319" lon="5.47455">
        <ele>309</ele>
        <time>2019-04-17T16:19:24Z</time>
      </trkpt>
      <trkpt lat="46.21332" lon="5.47465">
        <ele>308</ele>
        <time>2019-04-17T16:20:24Z</time>
      </trkpt>
      <trkpt lat="46.21383" lon="5.4749">
        <ele>305</ele>
        <time>2019-04-17T16:21:24Z</time>
      </trkpt>
      <trkpt lat="46.2142" lon="5.47515">
        <ele>305</ele>
        <time>2019-04-17T16:22:24Z</time>
      </trkpt>
      <trkpt lat="46.21437" lon="5.47523">
        <ele>306</ele>
        <time>2019-04-17T16:23:24Z</time>
      </trkpt>
      <trkpt lat="46.21456" lon="5.47528">
        <ele>305</ele>
        <time>2019-04-17T16:24:24Z</time>
      </trkpt>
      <trkpt lat="46.21503" lon="5.47534">
        <ele>301</ele>
        <time>2019-04-17T16:25:24Z</time>
      </trkpt>
      <trkpt lat="46.21523" lon="5.47541">
        <ele>301</ele>
        <time>2019-04-17T16:26:24Z</time>
      </trkpt>
      <trkpt lat="46.21548" lon="5.47553">
        <ele>302</ele>
        <time>2019-04-17T16:27:24Z</time>
      </trkpt>
      <trkpt lat="46.21595" lon="5.47585">
        <ele>303</ele>
        <time>2019-04-17T16:28:24Z</time>
      </trkpt>
      <trkpt lat="46.21658" lon="5.4764">
        <ele>305</ele>
        <time>2019-04-17T16:29:24Z</time>
      </trkpt>
      <trkpt lat="46.21743" lon="5.47716">
        <ele>309</ele>
        <time>2019-04-17T16:30:24Z</time>
      </trkpt>
      <trkpt lat="46.21921" lon="5.47881">
        <ele>314</ele>
        <time>2019-04-17T16:31:24Z</time>
      </trkpt>
      <trkpt lat="46.2202" lon="5.47995">
        <ele>315</ele>
        <time>2019-04-17T16:32:24Z</time>
      </trkpt>
      <trkpt lat="46.22069" lon="5.48065">
        <ele>317</ele>
        <time>2019-04-17T16:33:24Z</time>
      </trkpt>
      <trkpt lat="46.22162" lon="5.48216">
        <ele>314</ele>
        <time>2019-04-17T16:34:24Z</time>
      </trkpt>
      <trkpt lat="46.22184" lon="5.48246">
        <ele>313</ele>
        <time>2019-04-17T16:35:24Z</time>
      </trkpt>
      <trkpt lat="46.22218" lon="5.48285">
        <ele>311</ele>
        <time>2019-04-17T16:36:24Z</time>
      </trkpt>
      <trkpt lat="46.2226" lon="5.48331">
        <ele>310</ele>
        <time>2019-04-17T16:37:24Z</time>
      </trkpt>
      <trkpt lat="46.22306" lon="5.48366">
        <ele>313</ele>
        <time>2019-04-17T16:38:24Z</time>
      </trkpt>
      <trkpt lat="46.22472" lon="5.48484">
        <ele>320</ele>
        <time>2019-04-17T16:39:24Z</time>
      </trkpt>
      <trkpt lat="46.22502" lon="5.48499">
        <ele>321</ele>
        <time>2019-04-17T16:40:24Z</time>
      </trkpt>
      <trkpt lat="46.2262" lon="5.48551">
        <ele>324</ele>
        <time>2019-04-17T16:41:24Z</time>
      </trkpt>
      <trkpt lat="46.22732" lon="5.48581">
        <ele>321</ele>
        <time>2019-04-17T16:42:24Z</time>
      </trkpt>
      <trkpt lat="46.22755" lon="5.48591">
        <ele>323</ele>
        <time>2019-04-17T16:43:24Z</time>
      </trkpt>
      <trkpt lat="46.22872" lon="5.48655">
        <ele>323</ele>
        <time>2019-04-17T16:44:24Z</time>
      </trkpt>
      <trkpt lat="46.22902" lon="5.48676">
        <ele>323</ele>
        <time>2019-04-17T16:45:24Z</time>
      </trkpt>
      <trkpt lat="46.23049" lon="5.48817">
        <ele>331</ele>
        <time>2019-04-17T16:46:24Z</time>
      </trkpt>
      <trkpt lat="46.23085" lon="5.48845">
        <ele>328</ele>
        <time>2019-04-17T16:47:24Z</time>
      </trkpt>
      <trkpt lat="46.23142" lon="5.489">
        <ele>330</ele>
        <time>2019-04-17T16:48:24Z</time>
      </trkpt>
      <trkpt lat="46.23196" lon="5.48963">
        <ele>336</ele>
        <time>2019-04-17T16:49:24Z</time>
      </trkpt>
      <trkpt lat="46.23234" lon="5.49012">
        <ele>340</ele>
        <time>2019-04-17T16:50:24Z</time>
      </trkpt>
      <trkpt lat="46.23245" lon="5.49023">
        <ele>339</ele>
        <time>2019-04-17T16:51:24Z</time>
      </trkpt>
      <trkpt lat="46.23263" lon="5.49035">
        <ele>338</ele>
        <time>2019-04-17T16:52:24Z</time>
      </trkpt>
      <trkpt lat="46.23303" lon="5.49058">
        <ele>335</ele>
        <time>2019-04-17T16:53:24Z</time>
      </trkpt>
      <trkpt lat="46.23325" lon="5.49075">
        <ele>334</ele>
        <time>2019-04-17T16:54:24Z</time>
      </trkpt>
      <trkpt lat="46.23411" lon="5.4916">
        <ele>336</ele>
        <time>2019-04-17T16:55:24Z</time>
      </trkpt>
      <trkpt lat="46.23449" lon="5.4919">
        <ele>337</ele>
        <time>2019-04-17T16:56:24Z</time>
      </trkpt>
      <trkpt lat="46.23482" lon="5.49213">
        <ele>336</ele>
        <time>2019-04-17T16:57:24Z</time>
      </trkpt>
      <trkpt lat="46.23507" lon="5.49236">
        <ele>337</ele>
        <time>2019-04-17T16:58:24Z</time>
      </trkpt>
      <trkpt lat="46.23575" lon="5.4929">
        <ele>336</ele>
        <time>2019-04-17T16:59:24Z</time>
      </trkpt>
      <trkpt lat="46.23584" lon="5.49299">
        <ele>336</ele>
        <time>2019-04-17T17:00:24Z</time>
      </trkpt>
      <trkpt lat="46.23594" lon="5.49318">
        <ele>339</ele>
        <time>2019-04-17T17:01:24Z</time>
      </trkpt>
      <trkpt lat="46.23607" lon="5.49345">
        <ele>343</ele>
        <time>2019-04-17T17:02:24Z</time>
      </trkpt>
      <trkpt lat="46.23668" lon="5.49443">
        <ele>338</ele>
        <time>2019-04-17T17:03:24Z</time>
      </trkpt>
      <trkpt lat="46.23713" lon="5.4951">
        <ele>340</ele>
        <time>2019-04-17T17:04:24Z</time>
      </trkpt>
      <trkpt lat="46.23764" lon="5.49599">
        <ele>341</ele>
        <time>2019-04-17T17:05:24Z</time>
      </trkpt>
      <trkpt lat="46.23867" lon="5.49799">
        <ele>344</ele>
        <time>2019-04-17T17:06:24Z</time>
      </trkpt>
      <trkpt lat="46.23906" lon="5.49882">
        <ele>342</ele>
        <time>2019-04-17T17:07:24Z</time>
      </trkpt>
      <trkpt lat="46.2395" lon="5.49954">
        <ele>337</ele>
        <time>2019-04-17T17:08:24Z</time>
      </trkpt>
      <trkpt lat="46.23962" lon="5.49981">
        <ele>335</ele>
        <time>2019-04-17T17:09:24Z</time>
      </trkpt>
      <trkpt lat="46.23971" lon="5.50009">
        <ele>334</ele>
        <time>2019-04-17T17:10:24Z</time>
      </trkpt>
      <trkpt lat="46.23975" lon="5.50034">
        <ele>334</ele>
        <time>2019-04-17T17:11:24Z</time>
      </trkpt>
      <trkpt lat="46.24024" lon="5.50613">
        <ele>358</ele>
        <time>2019-04-17T17:12:24Z</time>
      </trkpt>
      <trkpt lat="46.24026" lon="5.50621">
        <ele>358</ele>
        <time>2019-04-17T17:13:24Z</time>
      </trkpt>
      <trkpt lat="46.24031" lon="5.50629">
        <ele>358</ele>
        <time>2019-04-17T17:14:24Z</time>
      </trkpt>
      <trkpt lat="46.24036" lon="5.50632">
        <ele>358</ele>
        <time>2019-04-17T17:15:24Z</time>
      </trkpt>
      <trkpt lat="46.24041" lon="5.50634">
        <ele>358</ele>
        <time>2019-04-17T17:16:24Z</time>
      </trkpt>
      <trkpt lat="46.24048" lon="5.50631">
        <ele>357</ele>
        <time>2019-04-17T17:17:24Z</time>
      </trkpt>
      <trkpt lat="46.24052" lon="5.50627">
        <ele>357</ele>
        <time>2019-04-17T17:18:24Z</time>
      </trkpt>
      <trkpt lat="46.24082" lon="5.50572">
        <ele>344</ele>
        <time>2019-04-17T17:19:24Z</time>
      </trkpt>
      <trkpt lat="46.24093" lon="5.50557">
        <ele>342</ele>
        <time>2019-04-17T17:20:24Z</time>
      </trkpt>
      <trkpt lat="46.24106" lon="5.50547">
        <ele>341</ele>
        <time>2019-04-17T17:21:24Z</time>
      </trkpt>
      <trkpt lat="46.24119" lon="5.50545">
        <ele>342</ele>
        <time>2019-04-17T17:22:24Z</time>
      </trkpt>
      <trkpt lat="46.24133" lon="5.50545">
        <ele>342</ele>
        <time>2019-04-17T17:23:24Z</time>
      </trkpt>
      <trkpt lat="46.2416" lon="5.50549">
        <ele>345</ele>
        <time>2019-04-17T17:24:24Z</time>
      </trkpt>
      <trkpt lat="46.2417" lon="5.50544">
        <ele>345</ele>
        <time>2019-04-17T17:25:24Z</time>
      </trkpt>
      <trkpt lat="46.24176" lon="5.50536">
        <ele>345</ele>
        <time>2019-04-17T17:26:24Z</time>
      </trkpt>
      <trkpt lat="46.24199" lon="5.50486">
        <ele>339</ele>
        <time>2019-04-17T17:27:24Z</time>
      </trkpt>
      <trkpt lat="46.24212" lon="5.50467">
        <ele>338</ele>
        <time>2019-04-17T17:28:24Z</time>
      </trkpt>
      <trkpt lat="46.24237" lon="5.50438">
        <ele>335</ele>
        <time>2019-04-17T17:29:24Z</time>
      </trkpt>
      <trkpt lat="46.24257" lon="5.50423">
        <ele>334</ele>
        <time>2019-04-17T17:30:24Z</time>
      </trkpt>
      <trkpt lat="46.24271" lon="5.50416">
        <ele>333</ele>
        <time>2019-04-17T17:31:24Z</time>
      </trkpt>
      <trkpt lat="46.24302" lon="5.50409">
        <ele>334</ele>
        <time>2019-04-17T17:32:24Z</time>
      </trkpt>
      <trkpt lat="46.24316" lon="5.50411">
        <ele>336</ele>
        <time>2019-04-17T17:33:24Z</time>
      </trkpt>
      <trkpt lat="46.24387" lon="5.50437">
        <ele>339</ele>
        <time>2019-04-17T17:34:24Z</time>
      </trkpt>
      <trkpt lat="46.24426" lon="5.50456">
        <ele>340</ele>
        <time>2019-04-17T17:35:24Z</time>
      </trkpt>
      <trkpt lat="46.24438" lon="5.50465">
        <ele>340</ele>
        <time>2019-04-17T17:36:24Z</time>
      </trkpt>
      <trkpt lat="46.24474" lon="5.50507">
        <ele>345</ele>
        <time>2019-04-17T17:37:24Z</time>
      </trkpt>
      <trkpt lat="46.24487" lon="5.50518">
        <ele>346</ele>
        <time>2019-04-17T17:38:24Z</time>
      </trkpt>
      <trkpt lat="46.24557" lon="5.50553">
        <ele>340</ele>
        <time>2019-04-17T17:39:24Z</time>
      </trkpt>
      <trkpt lat="46.2472" lon="5.50678">
        <ele>343</ele>
        <time>2019-04-17T17:40:24Z</time>
      </trkpt>
      <trkpt lat="46.24758" lon="5.50703">
        <ele>342</ele>
        <time>2019-04-17T17:41:24Z</time>
      </trkpt>
      <trkpt lat="46.24819" lon="5.50748">
        <ele>346</ele>
        <time>2019-04-17T17:42:24Z</time>
      </trkpt>
      <trkpt lat="46.24845" lon="5.50765">
        <ele>346</ele>
        <time>2019-04-17T17:43:24Z</time>
      </trkpt>
      <trkpt lat="46.24874" lon="5.5078">
        <ele>344</ele>
        <time>2019-04-17T17:44:24Z</time>
      </trkpt>
      <trkpt lat="46.24893" lon="5.50794">
        <ele>343</ele>
        <time>2019-04-17T17:45:24Z</time>
      </trkpt>
      <trkpt lat="46.24943" lon="5.50843">
        <ele>341</ele>
        <time>2019-04-17T17:46:24Z</time>
      </trkpt>
      <trkpt lat="46.24977" lon="5.5089">
        <ele>344</ele>
        <time>2019-04-17T17:47:24Z</time>
      </trkpt>
      <trkpt lat="46.25049" lon="5.50944">
        <ele>338</ele>
        <time>2019-04-17T17:48:24Z</time>
      </trkpt>
      <trkpt lat="46.2511" lon="5.50997">
        <ele>337</ele>
        <time>2019-04-17T17:49:24Z</time>
      </trkpt>
      <trkpt lat="46.25161" lon="5.51064">
        <ele>337</ele>
        <time>2019-04-17T17:50:24Z</time>
      </trkpt>
      <trkpt lat="46.25247" lon="5.51143">
        <ele>336</ele>
        <time>2019-04-17T17:51:24Z</time>
      </trkpt>
      <trkpt lat="46.25306" lon="5.51183">
        <ele>332</ele>
        <time>2019-04-17T17:52:24Z</time>
      </trkpt>
      <trkpt lat="46.2535" lon="5.51221">
        <ele>333</ele>
        <time>2019-04-17T17:53:24Z</time>
      </trkpt>
      <trkpt lat="46.25379" lon="5.51251">
        <ele>332</ele>
        <time>2019-04-17T17:54:24Z</time>
      </trkpt>
      <trkpt lat="46.25438" lon="5.51317">
        <ele>341</ele>
        <time>2019-04-17T17:55:24Z</time>
      </trkpt>
      <trkpt lat="46.25447" lon="5.51324">
        <ele>342</ele>
        <time>2019-04-17T17:56:24Z</time>
      </trkpt>
      <trkpt lat="46.25459" lon="5.51329">
        <ele>341</ele>
        <time>2019-04-17T17:57:24Z</time>
      </trkpt>
      <trkpt lat="46.25471" lon="5.51331">
        <ele>338</ele>
        <time>2019-04-17T17:58:24Z</time>
      </trkpt>
      <trkpt lat="46.25499" lon="5.5133">
        <ele>329</ele>
        <time>2019-04-17T17:59:24Z</time>
      </trkpt>
      <trkpt lat="46.25524" lon="5.51339">
        <ele>328</ele>
        <time>2019-04-17T18:00:24Z</time>
      </trkpt>
      <trkpt lat="46.25598" lon="5.51394">
        <ele>339</ele>
        <time>2019-04-17T18:01:24Z</time>
      </trkpt>
      <trkpt lat="46.25612" lon="5.51402">
        <ele>340</ele>
        <time>2019-04-17T18:02:24Z</time>
      </trkpt>
      <trkpt lat="46.25662" lon="5.51416">
        <ele>332</ele>
        <time>2019-04-17T18:03:24Z</time>
      </trkpt>
      <trkpt lat="46.2573" lon="5.51445">
        <ele>335</ele>
        <time>2019-04-17T18:04:24Z</time>
      </trkpt>
      <trkpt lat="46.25745" lon="5.51448">
        <ele>333</ele>
        <time>2019-04-17T18:05:24Z</time>
      </trkpt>
      <trkpt lat="46.25804" lon="5.51445">
        <ele>328</ele>
        <time>2019-04-17T18:06:24Z</time>
      </trkpt>
      <trkpt lat="46.25913" lon="5.51444">
        <ele>324</ele>
        <time>2019-04-17T18:07:24Z</time>
      </trkpt>
      <trkpt lat="46.25933" lon="5.51446">
        <ele>323</ele>
        <time>2019-04-17T18:08:24Z</time>
      </trkpt>
      <trkpt lat="46.25967" lon="5.51454">
        <ele>322</ele>
        <time>2019-04-17T18:09:24Z</time>
      </trkpt>
      <trkpt lat="46.26151" lon="5.51509">
        <ele>315</ele>
        <time>2019-04-17T18:10:24Z</time>
      </trkpt>
      <trkpt lat="46.26189" lon="5.51523">
        <ele>316</ele>
        <time>2019-04-17T18:11:24Z</time>
      </trkpt>
      <trkpt lat="46.2621" lon="5.51532">
        <ele>316</ele>
        <time>2019-04-17T18:12:24Z</time>
      </trkpt>
      <trkpt lat="46.26224" lon="5.51543">
        <ele>317</ele>
        <time>2019-04-17T18:13:24Z</time>
      </trkpt>
      <trkpt lat="46.26266" lon="5.51589">
        <ele>317</ele>
        <time>2019-04-17T18:14:24Z</time>
      </trkpt>
      <trkpt lat="46.26304" lon="5.51623">
        <ele>317</ele>
        <time>2019-04-17T18:15:24Z</time>
      </trkpt>
      <trkpt lat="46.26318" lon="5.51641">
        <ele>315</ele>
        <time>2019-04-17T18:16:24Z</time>
      </trkpt>
      <trkpt lat="46.26346" lon="5.51713">
        <ele>316</ele>
        <time>2019-04-17T18:17:24Z</time>
      </trkpt>
      <trkpt lat="46.26352" lon="5.51734">
        <ele>317</ele>
        <time>2019-04-17T18:18:24Z</time>
      </trkpt>
      <trkpt lat="46.26364" lon="5.51858">
        <ele>324</ele>
        <time>2019-04-17T18:19:24Z</time>
      </trkpt>
      <trkpt lat="46.2636" lon="5.52001">
        <ele>321</ele>
        <time>2019-04-17T18:20:24Z</time>
      </trkpt>
      <trkpt lat="46.26361" lon="5.52053">
        <ele>320</ele>
        <time>2019-04-17T18:21:24Z</time>
      </trkpt>
      <trkpt lat="46.26364" lon="5.52134">
        <ele>317</ele>
        <time>2019-04-17T18:22:24Z</time>
      </trkpt>
      <trkpt lat="46.26369" lon="5.52169">
        <ele>314</ele>
        <time>2019-04-17T18:23:24Z</time>
      </trkpt>
      <trkpt lat="46.26385" lon="5.52253">
        <ele>306</ele>
        <time>2019-04-17T18:24:24Z</time>
      </trkpt>
      <trkpt lat="46.26396" lon="5.52284">
        <ele>306</ele>
        <time>2019-04-17T18:25:24Z</time>
      </trkpt>
      <trkpt lat="46.26408" lon="5.523">
        <ele>305</ele>
        <time>2019-04-17T18:26:24Z</time>
      </trkpt>
      <trkpt lat="46.26439" lon="5.52352">
        <ele>304</ele>
        <time>2019-04-17T18:27:24Z</time>
      </trkpt>
      <trkpt lat="46.26469" lon="5.52405">
        <ele>302</ele>
        <time>2019-04-17T18:28:24Z</time>
      </trkpt>
      <trkpt lat="46.26476" lon="5.52426">
        <ele>302</ele>
        <time>2019-04-17T18:29:24Z</time>
      </trkpt>
      <trkpt lat="46.2648" lon="5.52442">
        <ele>302</ele>
        <time>2019-04-17T18:30:24Z</time>
      </trkpt>
      <trkpt lat="46.26481" lon="5.52457">
        <ele>302</ele>
        <time>2019-04-17T18:31:24Z</time>
      </trkpt>
      <trkpt lat="46.2648" lon="5.52475">
        <ele>303</ele>
        <time>2019-04-17T18:32:24Z</time>
      </trkpt>
      <trkpt lat="46.26476" lon="5.52496">
        <ele>304</ele>
        <time>2019-04-17T18:33:24Z</time>
      </trkpt>
      <trkpt lat="46.26454" lon="5.52574">
        <ele>308</ele>
        <time>2019-04-17T18:34:24Z</time>
      </trkpt>
      <trkpt lat="46.26447" lon="5.52604">
        <ele>309</ele>
        <time>2019-04-17T18:35:24Z</time>
      </trkpt>
      <trkpt lat="46.26446" lon="5.52617">
        <ele>309</ele>
        <time>2019-04-17T18:36:24Z</time>
      </trkpt>
      <trkpt lat="46.26451" lon="5.52654">
        <ele>309</ele>
        <time>2019-04-17T18:37:24Z</time>
      </trkpt>
      <trkpt lat="46.26488" lon="5.52839">
        <ele>310</ele>
        <time>2019-04-17T18:38:24Z</time>
      </trkpt>
      <trkpt lat="46.26496" lon="5.5287">
        <ele>310</ele>
        <time>2019-04-17T18:39:24Z</time>
      </trkpt>
      <trkpt lat="46.26518" lon="5.52927">
        <ele>310</ele>
        <time>2019-04-17T18:40:24Z</time>
      </trkpt>
      <trkpt lat="46.26601" lon="5.53122">
        <ele>304</ele>
        <time>2019-04-17T18:41:24Z</time>
      </trkpt>
      <trkpt lat="46.26654" lon="5.5324">
        <ele>297</ele>
        <time>2019-04-17T18:42:24Z</time>
      </trkpt>
      <trkpt lat="46.26657" lon="5.53256">
        <ele>296</ele>
        <time>2019-04-17T18:43:24Z</time>
      </trkpt>
      <trkpt lat="46.26665" lon="5.53329">
        <ele>297</ele>
        <time>2019-04-17T18:44:24Z</time>
      </trkpt>
      <trkpt lat="46.2667" lon="5.53358">
        <ele>298</ele>
        <time>2019-04-17T18:45:24Z</time>
      </trkpt>
      <trkpt lat="46.2669" lon="5.53444">
        <ele>301</ele>
        <time>2019-04-17T18:46:24Z</time>
      </trkpt>
      <trkpt lat="46.26704" lon="5.53491">
        <ele>302</ele>
        <time>2019-04-17T18:47:24Z</time>
      </trkpt>
      <trkpt lat="46.26713" lon="5.53516">
        <ele>302</ele>
        <time>2019-04-17T18:48:24Z</time>
      </trkpt>
      <trkpt lat="46.26728" lon="5.53541">
        <ele>300</ele>
        <time>2019-04-17T18:49:24Z</time>
      </trkpt>
      <trkpt lat="46.26754" lon="5.53575">
        <ele>296</ele>
        <time>2019-04-17T18:50:24Z</time>
      </trkpt>
      <trkpt lat="46.26784" lon="5.53621">
        <ele>293</ele>
        <time>2019-04-17T18:51:24Z</time>
      </trkpt>
      <trkpt lat="46.26777" lon="5.53634">
        <ele>294</ele>
        <time>2019-04-17T18:52:24Z</time>
      </trkpt>
      <trkpt lat="46.26772" lon="5.5365">
        <ele>295</ele>
        <time>2019-04-17T18:53:24Z</time>
      </trkpt>
      <trkpt lat="46.26769" lon="5.53672">
        <ele>296</ele>
        <time>2019-04-17T18:54:24Z</time>
      </trkpt>
      <trkpt lat="46.26771" lon="5.53708">
        <ele>296</ele>
        <time>2019-04-17T18:55:24Z</time>
      </trkpt>
      <trkpt lat="46.26784" lon="5.53808">
        <ele>291</ele>
        <time>2019-04-17T18:56:24Z</time>
      </trkpt>
      <trkpt lat="46.268" lon="5.53871">
        <ele>288</ele>
        <time>2019-04-17T18:57:24Z</time>
      </trkpt>
      <trkpt lat="46.26809" lon="5.539">
        <ele>289</ele>
        <time>2019-04-17T18:58:24Z</time>
      </trkpt>
      <trkpt lat="46.26818" lon="5.53918">
        <ele>289</ele>
        <time>2019-04-17T18:59:24Z</time>
      </trkpt>
      <trkpt lat="46.26857" lon="5.53982">
        <ele>291</ele>
        <time>2019-04-17T19:00:24Z</time>
      </trkpt>
      <trkpt lat="46.26864" lon="5.53997">
        <ele>292</ele>
        <time>2019-04-17T19:01:24Z</time>
      </trkpt>
      <trkpt lat="46.2687" lon="5.54025">
        <ele>291</ele>
        <time>2019-04-17T19:02:24Z</time>
      </trkpt>
      <trkpt lat="46.26872" lon="5.54047">
        <ele>291</ele>
        <time>2019-04-17T19:03:24Z</time>
      </trkpt>
      <trkpt lat="46.26872" lon="5.54067">
        <ele>290</ele>
        <time>2019-04-17T19:04:24Z</time>
      </trkpt>
      <trkpt lat="46.26856" lon="5.54269">
        <ele>300</ele>
        <time>2019-04-17T19:05:24Z</time>
      </trkpt>
      <trkpt lat="46.26856" lon="5.54301">
        <ele>303</ele>
        <time>2019-04-17T19:06:24Z</time>
      </trkpt>
      <trkpt lat="46.26865" lon="5.54374">
        <ele>307</ele>
        <time>2019-04-17T19:07:24Z</time>
      </trkpt>
      <trkpt lat="46.26874" lon="5.54416">
        <ele>307</ele>
        <time>2019-04-17T19:08:24Z</time>
      </trkpt>
      <trkpt lat="46.26885" lon="5.54453">
        <ele>308</ele>
        <time>2019-04-17T19:09:24Z</time>
      </trkpt>
      <trkpt lat="46.26907" lon="5.54502">
        <ele>306</ele>
        <time>2019-04-17T19:10:24Z</time>
      </trkpt>
      <trkpt lat="46.26916" lon="5.54531">
        <ele>305</ele>
        <time>2019-04-17T19:11:24Z</time>
      </trkpt>
      <trkpt lat="46.2692" lon="5.5455">
        <ele>306</ele>
        <time>2019-04-17T19:12:24Z</time>
      </trkpt>
      <trkpt lat="46.26921" lon="5.54571">
        <ele>308</ele>
        <time>2019-04-17T19:13:24Z</time>
      </trkpt>
      <trkpt lat="46.26921" lon="5.5465">
        <ele>315</ele>
        <time>2019-04-17T19:14:24Z</time>
      </trkpt>
      <trkpt lat="46.26924" lon="5.54674">
        <ele>318</ele>
        <time>2019-04-17T19:15:24Z</time>
      </trkpt>
      <trkpt lat="46.2693" lon="5.54702">
        <ele>323</ele>
        <time>2019-04-17T19:16:24Z</time>
      </trkpt>
      <trkpt lat="46.26936" lon="5.54713">
        <ele>325</ele>
        <time>2019-04-17T19:17:24Z</time>
      </trkpt>
      <trkpt lat="46.26952" lon="5.54729">
        <ele>326</ele>
        <time>2019-04-17T19:18:24Z</time>
      </trkpt>
      <trkpt lat="46.26963" lon="5.54736">
        <ele>326</ele>
        <time>2019-04-17T19:19:24Z</time>
      </trkpt>
      <trkpt lat="46.26997" lon="5.54748">
        <ele>324</ele>
        <time>2019-04-17T19:20:24Z</time>
      </trkpt>
      <trkpt lat="46.27027" lon="5.54764">
        <ele>326</ele>
        <time>2019-04-17T19:21:24Z</time>
      </trkpt>
      <trkpt lat="46.27054" lon="5.5479">
        <ele>330</ele>
        <time>2019-04-17T19:22:24Z</time>
      </trkpt>
      <trkpt lat="46.2716" lon="5.54915">
        <ele>336</ele>
        <time>2019-04-17T19:23:24Z</time>
      </trkpt>
      <trkpt lat="46.2718" lon="5.54936">
        <ele>339</ele>
        <time>2019-04-17T19:24:24Z</time>
      </trkpt>
      <trkpt lat="46.27239" lon="5.54989">
        <ele>339</ele>
        <time>2019-04-17T19:25:24Z</time>
      </trkpt>
      <trkpt lat="46.27259" lon="5.55015">
        <ele>341</ele>
        <time>2019-04-17T19:26:24Z</time>
      </trkpt>
      <trkpt lat="46.27337" lon="5.55122">
        <ele>347</ele>
        <time>2019-04-17T19:27:24Z</time>
      </trkpt>
      <trkpt lat="46.27352" lon="5.55151">
        <ele>347</ele>
        <time>2019-04-17T19:28:24Z</time>
      </trkpt>
      <trkpt lat="46.27359" lon="5.55169">
        <ele>347</ele>
        <time>2019-04-17T19:29:24Z</time>
      </trkpt>
      <trkpt lat="46.27365" lon="5.55196">
        <ele>343</ele>
        <time>2019-04-17T19:30:24Z</time>
      </trkpt>
      <trkpt lat="46.27366" lon="5.55216">
        <ele>342</ele>
        <time>2019-04-17T19:31:24Z</time>
      </trkpt>
      <trkpt lat="46.27363" lon="5.55241">
        <ele>344</ele>
        <time>2019-04-17T19:32:24Z</time>
      </trkpt>
      <trkpt lat="46.27355" lon="5.55259">
        <ele>345</ele>
        <time>2019-04-17T19:33:24Z</time>
      </trkpt>
      <trkpt lat="46.27344" lon="5.55267">
        <ele>348</ele>
        <time>2019-04-17T19:34:24Z</time>
      </trkpt>
      <trkpt lat="46.27322" lon="5.5527">
        <ele>352</ele>
        <time>2019-04-17T19:35:24Z</time>
      </trkpt>
      <trkpt lat="46.27288" lon="5.55265">
        <ele>355</ele>
        <time>2019-04-17T19:36:24Z</time>
      </trkpt>
      <trkpt lat="46.27276" lon="5.5526">
        <ele>358</ele>
        <time>2019-04-17T19:37:24Z</time>
      </trkpt>
      <trkpt lat="46.27216" lon="5.55226">
        <ele>369</ele>
        <time>2019-04-17T19:38:24Z</time>
      </trkpt>
      <trkpt lat="46.27168" lon="5.55207">
        <ele>374</ele>
        <time>2019-04-17T19:39:24Z</time>
      </trkpt>
      <trkpt lat="46.2713" lon="5.5519">
        <ele>376</ele>
        <time>2019-04-17T19:40:24Z</time>
      </trkpt>
      <trkpt lat="46.27109" lon="5.55176">
        <ele>378</ele>
        <time>2019-04-17T19:41:24Z</time>
      </trkpt>
      <trkpt lat="46.27075" lon="5.55148">
        <ele>383</ele>
        <time>2019-04-17T19:42:24Z</time>
      </trkpt>
      <trkpt lat="46.2705" lon="5.55132">
        <ele>385</ele>
        <time>2019-04-17T19:43:24Z</time>
      </trkpt>
      <trkpt lat="46.26985" lon="5.55107">
        <ele>384</ele>
        <time>2019-04-17T19:44:24Z</time>
      </trkpt>
      <trkpt lat="46.26965" lon="5.5509">
        <ele>385</ele>
        <time>2019-04-17T19:45:24Z</time>
      </trkpt>
      <trkpt lat="46.26954" lon="5.55077">
        <ele>386</ele>
        <time>2019-04-17T19:46:24Z</time>
      </trkpt>
      <trkpt lat="46.26865" lon="5.54953">
        <ele>392</ele>
        <time>2019-04-17T19:47:24Z</time>
      </trkpt>
      <trkpt lat="46.26855" lon="5.54942">
        <ele>393</ele>
        <time>2019-04-17T19:48:24Z</time>
      </trkpt>
      <trkpt lat="46.26837" lon="5.54929">
        <ele>395</ele>
        <time>2019-04-17T19:49:24Z</time>
      </trkpt>
      <trkpt lat="46.26823" lon="5.54923">
        <ele>397</ele>
        <time>2019-04-17T19:50:24Z</time>
      </trkpt>
      <trkpt lat="46.2681" lon="5.54919">
        <ele>398</ele>
        <time>2019-04-17T19:51:24Z</time>
      </trkpt>
      <trkpt lat="46.26763" lon="5.54917">
        <ele>401</ele>
        <time>2019-04-17T19:52:24Z</time>
      </trkpt>
      <trkpt lat="46.26748" lon="5.54912">
        <ele>404</ele>
        <time>2019-04-17T19:53:24Z</time>
      </trkpt>
      <trkpt lat="46.26696" lon="5.54884">
        <ele>413</ele>
        <time>2019-04-17T19:54:24Z</time>
      </trkpt>
      <trkpt lat="46.26665" lon="5.5487">
        <ele>417</ele>
        <time>2019-04-17T19:55:24Z</time>
      </trkpt>
      <trkpt lat="46.26584" lon="5.54848">
        <ele>418</ele>
        <time>2019-04-17T19:56:24Z</time>
      </trkpt>
      <trkpt lat="46.26554" lon="5.54831">
        <ele>422</ele>
        <time>2019-04-17T19:57:24Z</time>
      </trkpt>
      <trkpt lat="46.26527" lon="5.54809">
        <ele>428</ele>
        <time>2019-04-17T19:58:24Z</time>
      </trkpt>
      <trkpt lat="46.26498" lon="5.54792">
        <ele>429</ele>
        <time>2019-04-17T19:59:24Z</time>
      </trkpt>
      <trkpt lat="46.26417" lon="5.54767">
        <ele>432</ele>
        <time>2019-04-17T20:00:24Z</time>
      </trkpt>
      <trkpt lat="46.26401" lon="5.54765">
        <ele>435</ele>
        <time>2019-04-17T20:01:24Z</time>
      </trkpt>
      <trkpt lat="46.26377" lon="5.54769">
        <ele>439</ele>
        <time>2019-04-17T20:02:24Z</time>
      </trkpt>
      <trkpt lat="46.26326" lon="5.54791">
        <ele>444</ele>
        <time>2019-04-17T20:03:24Z</time>
      </trkpt>
      <trkpt lat="46.26312" lon="5.548">
        <ele>448</ele>
        <time>2019-04-17T20:04:24Z</time>
      </trkpt>
      <trkpt lat="46.26297" lon="5.54816">
        <ele>450</ele>
        <time>2019-04-17T20:05:24Z</time>
      </trkpt>
      <trkpt lat="46.26286" lon="5.54835">
        <ele>450</ele>
        <time>2019-04-17T20:06:24Z</time>
      </trkpt>
      <trkpt lat="46.26276" lon="5.54859">
        <ele>449</ele>
        <time>2019-04-17T20:07:24Z</time>
      </trkpt>
      <trkpt lat="46.26262" lon="5.54903">
        <ele>445</ele>
        <time>2019-04-17T20:08:24Z</time>
      </trkpt>
      <trkpt lat="46.26233" lon="5.55018">
        <ele>451</ele>
        <time>2019-04-17T20:09:24Z</time>
      </trkpt>
      <trkpt lat="46.26211" lon="5.55146">
        <ele>454</ele>
        <time>2019-04-17T20:10:24Z</time>
      </trkpt>
      <trkpt lat="46.26211" lon="5.55163">
        <ele>453</ele>
        <time>2019-04-17T20:11:24Z</time>
      </trkpt>
      <trkpt lat="46.26223" lon="5.5521">
        <ele>452</ele>
        <time>2019-04-17T20:12:24Z</time>
      </trkpt>
      <trkpt lat="46.26226" lon="5.55226">
        <ele>452</ele>
        <time>2019-04-17T20:13:24Z</time>
      </trkpt>
      <trkpt lat="46.26225" lon="5.55244">
        <ele>455</ele>
        <time>2019-04-17T20:14:24Z</time>
      </trkpt>
      <trkpt lat="46.26218" lon="5.55271">
        <ele>461</ele>
        <time>2019-04-17T20:15:24Z</time>
      </trkpt>
      <trkpt lat="46.26197" lon="5.55331">
        <ele>466</ele>
        <time>2019-04-17T20:16:24Z</time>
      </trkpt>
      <trkpt lat="46.26181" lon="5.55358">
        <ele>464</ele>
        <time>2019-04-17T20:17:24Z</time>
      </trkpt>
      <trkpt lat="46.26155" lon="5.55394">
        <ele>460</ele>
        <time>2019-04-17T20:18:24Z</time>
      </trkpt>
      <trkpt lat="46.26149" lon="5.55405">
        <ele>458</ele>
        <time>2019-04-17T20:19:24Z</time>
      </trkpt>
      <trkpt lat="46.26146" lon="5.55417">
        <ele>457</ele>
        <time>2019-04-17T20:20:24Z</time>
      </trkpt>
      <trkpt lat="46.26139" lon="5.55464">
        <ele>454</ele>
        <time>2019-04-17T20:21:24Z</time>
      </trkpt>
      <trkpt lat="46.26104" lon="5.55443">
        <ele>455</ele>
        <time>2019-04-17T20:22:24Z</time>
      </trkpt>
      <trkpt lat="46.26088" lon="5.55437">
        <ele>456</ele>
        <time>2019-04-17T20:23:24Z</time>
      </trkpt>
      <trkpt lat="46.26034" lon="5.55421">
        <ele>456</ele>
        <time>2019-04-17T20:24:24Z</time>
      </trkpt>
      <trkpt lat="46.25963" lon="5.55392">
        <ele>456</ele>
        <time>2019-04-17T20:25:24Z</time>
      </trkpt>
      <trkpt lat="46.2594" lon="5.5538">
        <ele>456</ele>
        <time>2019-04-17T20:26:24Z</time>
      </trkpt>
      <trkpt lat="46.25868" lon="5.55328">
        <ele>461</ele>
        <time>2019-04-17T20:27:24Z</time>
      </trkpt>
      <trkpt lat="46.25841" lon="5.55297">
        <ele>462</ele>
        <time>2019-04-17T20:28:24Z</time>
      </trkpt>
      <trkpt lat="46.25819" lon="5.55269">
        <ele>462</ele>
        <time>2019-04-17T20:29:24Z</time>
      </trkpt>
      <trkpt lat="46.25799" lon="5.55246">
        <ele>463</ele>
        <time>2019-04-17T20:30:24Z</time>
      </trkpt>
      <trkpt lat="46.25776" lon="5.55225">
        <ele>465</ele>
        <time>2019-04-17T20:31:24Z</time>
      </trkpt>
      <trkpt lat="46.25738" lon="5.55196">
        <ele>465</ele>
        <time>2019-04-17T20:32:24Z</time>
      </trkpt>
      <trkpt lat="46.25686" lon="5.5516">
        <ele>465</ele>
        <time>2019-04-17T20:33:24Z</time>
      </trkpt>
      <trkpt lat="46.25393" lon="5.54971">
        <ele>467</ele>
        <time>2019-04-17T20:34:24Z</time>
      </trkpt>
      <trkpt lat="46.25261" lon="5.54894">
        <ele>466</ele>
        <time>2019-04-17T20:35:24Z</time>
      </trkpt>
      <trkpt lat="46.25056" lon="5.5478">
        <ele>470</ele>
        <time>2019-04-17T20:36:24Z</time>
      </trkpt>
      <trkpt lat="46.25034" lon="5.54771">
        <ele>470</ele>
        <time>2019-04-17T20:37:24Z</time>
      </trkpt>
      <trkpt lat="46.25011" lon="5.54764">
        <ele>469</ele>
        <time>2019-04-17T20:38:24Z</time>
      </trkpt>
      <trkpt lat="46.24996" lon="5.54764">
        <ele>468</ele>
        <time>2019-04-17T20:39:24Z</time>
      </trkpt>
      <trkpt lat="46.24968" lon="5.5477">
        <ele>467</ele>
        <time>2019-04-17T20:40:24Z</time>
      </trkpt>
      <trkpt lat="46.24939" lon="5.54773">
        <ele>466</ele>
        <time>2019-04-17T20:41:24Z</time>
      </trkpt>
      <trkpt lat="46.24928" lon="5.5477">
        <ele>466</ele>
        <time>2019-04-17T20:42:24Z</time>
      </trkpt>
      <trkpt lat="46.24844" lon="5.54735">
        <ele>468</ele>
        <time>2019-04-17T20:43:24Z</time>
      </trkpt>
      <trkpt lat="46.24775" lon="5.54692">
        <ele>471</ele>
        <time>2019-04-17T20:44:24Z</time>
      </trkpt>
      <trkpt lat="46.24758" lon="5.54685">
        <ele>471</ele>
        <time>2019-04-17T20:45:24Z</time>
      </trkpt>
      <trkpt lat="46.24738" lon="5.54682">
        <ele>471</ele>
        <time>2019-04-17T20:46:24Z</time>
      </trkpt>
      <trkpt lat="46.24665" lon="5.54683">
        <ele>466</ele>
        <time>2019-04-17T20:47:24Z</time>
      </trkpt>
      <trkpt lat="46.24631" lon="5.54677">
        <ele>466</ele>
        <time>2019-04-17T20:48:24Z</time>
      </trkpt>
      <trkpt lat="46.24612" lon="5.5467">
        <ele>466</ele>
        <time>2019-04-17T20:49:24Z</time>
      </trkpt>
      <trkpt lat="46.24473" lon="5.54595">
        <ele>467</ele>
        <time>2019-04-17T20:50:24Z</time>
      </trkpt>
      <trkpt lat="46.24311" lon="5.54499">
        <ele>469</ele>
        <time>2019-04-17T20:51:24Z</time>
      </trkpt>
      <trkpt lat="46.24302" lon="5.54497">
        <ele>469</ele>
        <time>2019-04-17T20:52:24Z</time>
      </trkpt>
      <trkpt lat="46.24258" lon="5.54502">
        <ele>469</ele>
        <time>2019-04-17T20:53:24Z</time>
      </trkpt>
      <trkpt lat="46.24246" lon="5.54502">
        <ele>469</ele>
        <time>2019-04-17T20:54:24Z</time>
      </trkpt>
      <trkpt lat="46.24216" lon="5.54494">
        <ele>469</ele>
        <time>2019-04-17T20:55:24Z</time>
      </trkpt>
      <trkpt lat="46.24201" lon="5.54487">
        <ele>470</ele>
        <time>2019-04-17T20:56:24Z</time>
      </trkpt>
      <trkpt lat="46.24189" lon="5.54476">
        <ele>470</ele>
        <time>2019-04-17T20:57:24Z</time>
      </trkpt>
      <trkpt lat="46.24139" lon="5.54424">
        <ele>474</ele>
        <time>2019-04-17T20:58:24Z</time>
      </trkpt>
      <trkpt lat="46.24103" lon="5.54379">
        <ele>483</ele>
        <time>2019-04-17T20:59:24Z</time>
      </trkpt>
      <trkpt lat="46.24091" lon="5.54366">
        <ele>486</ele>
        <time>2019-04-17T21:00:24Z</time>
      </trkpt>
      <trkpt lat="46.24076" lon="5.54356">
        <ele>488</ele>
        <time>2019-04-17T21:01:24Z</time>
      </trkpt>
      <trkpt lat="46.24058" lon="5.54346">
        <ele>490</ele>
        <time>2019-04-17T21:02:24Z</time>
      </trkpt>
      <trkpt lat="46.24038" lon="5.54339">
        <ele>492</ele>
        <time>2019-04-17T21:03:24Z</time>
      </trkpt>
      <trkpt lat="46.23985" lon="5.54325">
        <ele>494</ele>
        <time>2019-04-17T21:04:24Z</time>
      </trkpt>
      <trkpt lat="46.23778" lon="5.54252">
        <ele>495</ele>
        <time>2019-04-17T21:05:24Z</time>
      </trkpt>
      <trkpt lat="46.23651" lon="5.54201">
        <ele>500</ele>
        <time>2019-04-17T21:06:24Z</time>
      </trkpt>
      <trkpt lat="46.23584" lon="5.54181">
        <ele>503</ele>
        <time>2019-04-17T21:07:24Z</time>
      </trkpt>
      <trkpt lat="46.23514" lon="5.54164">
        <ele>507</ele>
        <time>2019-04-17T21:08:24Z</time>
      </trkpt>
      <trkpt lat="46.23463" lon="5.54162">
        <ele>505</ele>
        <time>2019-04-17T21:09:24Z</time>
      </trkpt>
      <trkpt lat="46.23441" lon="5.54153">
        <ele>505</ele>
        <time>2019-04-17T21:10:24Z</time>
      </trkpt>
      <trkpt lat="46.23429" lon="5.54143">
        <ele>506</ele>
        <time>2019-04-17T21:11:24Z</time>
      </trkpt>
      <trkpt lat="46.23401" lon="5.54107">
        <ele>510</ele>
        <time>2019-04-17T21:12:24Z</time>
      </trkpt>
      <trkpt lat="46.23386" lon="5.54083">
        <ele>513</ele>
        <time>2019-04-17T21:13:24Z</time>
      </trkpt>
      <trkpt lat="46.2335" lon="5.54012">
        <ele>519</ele>
        <time>2019-04-17T21:14:24Z</time>
      </trkpt>
      <trkpt lat="46.23309" lon="5.53957">
        <ele>521</ele>
        <time>2019-04-17T21:15:24Z</time>
      </trkpt>
      <trkpt lat="46.23288" lon="5.53935">
        <ele>521</ele>
        <time>2019-04-17T21:16:24Z</time>
      </trkpt>
      <trkpt lat="46.23206" lon="5.53866">
        <ele>526</ele>
        <time>2019-04-17T21:17:24Z</time>
      </trkpt>
      <trkpt lat="46.23189" lon="5.53854">
        <ele>527</ele>
        <time>2019-04-17T21:18:24Z</time>
      </trkpt>
      <trkpt lat="46.23137" lon="5.53842">
        <ele>529</ele>
        <time>2019-04-17T21:19:24Z</time>
      </trkpt>
      <trkpt lat="46.2308" lon="5.53819">
        <ele>533</ele>
        <time>2019-04-17T21:20:24Z</time>
      </trkpt>
      <trkpt lat="46.23001" lon="5.53822">
        <ele>531</ele>
        <time>2019-04-17T21:21:24Z</time>
      </trkpt>
      <trkpt lat="46.22969" lon="5.53811">
        <ele>529</ele>
        <time>2019-04-17T21:22:24Z</time>
      </trkpt>
      <trkpt lat="46.22932" lon="5.53793">
        <ele>527</ele>
        <time>2019-04-17T21:23:24Z</time>
      </trkpt>
      <trkpt lat="46.22909" lon="5.53777">
        <ele>526</ele>
        <time>2019-04-17T21:24:24Z</time>
      </trkpt>
      <trkpt lat="46.22814" lon="5.53695">
        <ele>525</ele>
        <time>2019-04-17T21:25:24Z</time>
      </trkpt>
      <trkpt lat="46.22797" lon="5.53685">
        <ele>525</ele>
        <time>2019-04-17T21:26:24Z</time>
      </trkpt>
      <trkpt lat="46.22772" lon="5.53679">
        <ele>524</ele>
        <time>2019-04-17T21:27:24Z</time>
      </trkpt>
      <trkpt lat="46.2261" lon="5.53703">
        <ele>519</ele>
        <time>2019-04-17T21:28:24Z</time>
      </trkpt>
      <trkpt lat="46.22571" lon="5.53704">
        <ele>520</ele>
        <time>2019-04-17T21:29:24Z</time>
      </trkpt>
      <trkpt lat="46.22556" lon="5.53706">
        <ele>520</ele>
        <time>2019-04-17T21:30:24Z</time>
      </trkpt>
      <trkpt lat="46.22536" lon="5.53713">
        <ele>520</ele>
        <time>2019-04-17T21:31:24Z</time>
      </trkpt>
      <trkpt lat="46.22495" lon="5.53757">
        <ele>517</ele>
        <time>2019-04-17T21:32:24Z</time>
      </trkpt>
      <trkpt lat="46.22463" lon="5.53775">
        <ele>513</ele>
        <time>2019-04-17T21:33:24Z</time>
      </trkpt>
      <trkpt lat="46.22442" lon="5.53775">
        <ele>513</ele>
        <time>2019-04-17T21:34:24Z</time>
      </trkpt>
      <trkpt lat="46.2237" lon="5.5376">
        <ele>516</ele>
        <time>2019-04-17T21:35:24Z</time>
      </trkpt>
      <trkpt lat="46.22344" lon="5.53762">
        <ele>514</ele>
        <time>2019-04-17T21:36:24Z</time>
      </trkpt>
      <trkpt lat="46.22312" lon="5.53753">
        <ele>513</ele>
        <time>2019-04-17T21:37:24Z</time>
      </trkpt>
      <trkpt lat="46.22241" lon="5.53722">
        <ele>510</ele>
        <time>2019-04-17T21:38:24Z</time>
      </trkpt>
      <trkpt lat="46.22226" lon="5.5371">
        <ele>510</ele>
        <time>2019-04-17T21:39:24Z</time>
      </trkpt>
      <trkpt lat="46.22201" lon="5.53675">
        <ele>510</ele>
        <time>2019-04-17T21:40:24Z</time>
      </trkpt>
      <trkpt lat="46.22168" lon="5.53643">
        <ele>507</ele>
        <time>2019-04-17T21:41:24Z</time>
      </trkpt>
      <trkpt lat="46.22136" lon="5.53629">
        <ele>507</ele>
        <time>2019-04-17T21:42:24Z</time>
      </trkpt>
      <trkpt lat="46.22107" lon="5.53627">
        <ele>505</ele>
        <time>2019-04-17T21:43:24Z</time>
      </trkpt>
      <trkpt lat="46.22071" lon="5.53631">
        <ele>503</ele>
        <time>2019-04-17T21:44:24Z</time>
      </trkpt>
      <trkpt lat="46.22001" lon="5.53657">
        <ele>500</ele>
        <time>2019-04-17T21:45:24Z</time>
      </trkpt>
      <trkpt lat="46.21944" lon="5.53683">
        <ele>492</ele>
        <time>2019-04-17T21:46:24Z</time>
      </trkpt>
      <trkpt lat="46.21906" lon="5.53698">
        <ele>487</ele>
        <time>2019-04-17T21:47:24Z</time>
      </trkpt>
      <trkpt lat="46.21875" lon="5.53707">
        <ele>484</ele>
        <time>2019-04-17T21:48:24Z</time>
      </trkpt>
      <trkpt lat="46.21834" lon="5.53701">
        <ele>483</ele>
        <time>2019-04-17T21:49:24Z</time>
      </trkpt>
      <trkpt lat="46.2171" lon="5.53669">
        <ele>479</ele>
        <time>2019-04-17T21:50:24Z</time>
      </trkpt>
      <trkpt lat="46.21675" lon="5.53663">
        <ele>477</ele>
        <time>2019-04-17T21:51:24Z</time>
      </trkpt>
      <trkpt lat="46.21641" lon="5.53664">
        <ele>474</ele>
        <time>2019-04-17T21:52:24Z</time>
      </trkpt>
      <trkpt lat="46.21578" lon="5.53682">
        <ele>468</ele>
        <time>2019-04-17T21:53:24Z</time>
      </trkpt>
      <trkpt lat="46.21469" lon="5.53696">
        <ele>468</ele>
        <time>2019-04-17T21:54:24Z</time>
      </trkpt>
      <trkpt lat="46.21442" lon="5.53688">
        <ele>467</ele>
        <time>2019-04-17T21:55:24Z</time>
      </trkpt>
      <trkpt lat="46.2133" lon="5.53619">
        <ele>469</ele>
        <time>2019-04-17T21:56:24Z</time>
      </trkpt>
      <trkpt lat="46.21293" lon="5.536">
        <ele>470</ele>
        <time>2019-04-17T21:57:24Z</time>
      </trkpt>
      <trkpt lat="46.21275" lon="5.53597">
        <ele>470</ele>
        <time>2019-04-17T21:58:24Z</time>
      </trkpt>
      <trkpt lat="46.21249" lon="5.53598">
        <ele>469</ele>
        <time>2019-04-17T21:59:24Z</time>
      </trkpt>
      <trkpt lat="46.21209" lon="5.53587">
        <ele>470</ele>
        <time>2019-04-17T22:00:24Z</time>
      </trkpt>
      <trkpt lat="46.21164" lon="5.53571">
        <ele>470</ele>
        <time>2019-04-17T22:01:24Z</time>
      </trkpt>
      <trkpt lat="46.2112" lon="5.53551">
        <ele>468</ele>
        <time>2019-04-17T22:02:24Z</time>
      </trkpt>
      <trkpt lat="46.21079" lon="5.53521">
        <ele>468</ele>
        <time>2019-04-17T22:03:24Z</time>
      </trkpt>
      <trkpt lat="46.21004" lon="5.53477">
        <ele>467</ele>
        <time>2019-04-17T22:04:24Z</time>
      </trkpt>
      <trkpt lat="46.2096" lon="5.53453">
        <ele>466</ele>
        <time>2019-04-17T22:05:24Z</time>
      </trkpt>
      <trkpt lat="46.20915" lon="5.53431">
        <ele>464</ele>
        <time>2019-04-17T22:06:24Z</time>
      </trkpt>
      <trkpt lat="46.20866" lon="5.53412">
        <ele>466</ele>
        <time>2019-04-17T22:07:24Z</time>
      </trkpt>
      <trkpt lat="46.20754" lon="5.53412">
        <ele>466</ele>
        <time>2019-04-17T22:08:24Z</time>
      </trkpt>
      <trkpt lat="46.20742" lon="5.53601">
        <ele>456</ele>
        <time>2019-04-17T22:09:24Z</time>
      </trkpt>
      <trkpt lat="46.20734" lon="5.53623">
        <ele>455</ele>
        <time>2019-04-17T22:10:24Z</time>
      </trkpt>
      <trkpt lat="46.20711" lon="5.53637">
        <ele>453</ele>
        <time>2019-04-17T22:11:24Z</time>
      </trkpt>
      <trkpt lat="46.20657" lon="5.5364">
        <ele>453</ele>
        <time>2019-04-17T22:12:24Z</time>
      </trkpt>
      <trkpt lat="46.20647" lon="5.53644">
        <ele>453</ele>
        <time>2019-04-17T22:13:24Z</time>
      </trkpt>
      <trkpt lat="46.20631" lon="5.53663">
        <ele>452</ele>
        <time>2019-04-17T22:14:24Z</time>
      </trkpt>
      <trkpt lat="46.20603" lon="5.53734">
        <ele>454</ele>
        <time>2019-04-17T22:15:24Z</time>
      </trkpt>
      <trkpt lat="46.20575" lon="5.53729">
        <ele>455</ele>
        <time>2019-04-17T22:16:24Z</time>
      </trkpt>
      <trkpt lat="46.2054" lon="5.53727">
        <ele>457</ele>
        <time>2019-04-17T22:17:24Z</time>
      </trkpt>
      <trkpt lat="46.20518" lon="5.5374">
        <ele>459</ele>
        <time>2019-04-17T22:18:24Z</time>
      </trkpt>
      <trkpt lat="46.20497" lon="5.53771">
        <ele>462</ele>
        <time>2019-04-17T22:19:24Z</time>
      </trkpt>
      <trkpt lat="46.20494" lon="5.53796">
        <ele>464</ele>
        <time>2019-04-17T22:20:24Z</time>
      </trkpt>
      <trkpt lat="46.20496" lon="5.5383">
        <ele>466</ele>
        <time>2019-04-17T22:21:24Z</time>
      </trkpt>
      <trkpt lat="46.2051" lon="5.53954">
        <ele>467</ele>
        <time>2019-04-17T22:22:24Z</time>
      </trkpt>
      <trkpt lat="46.20502" lon="5.53974">
        <ele>466</ele>
        <time>2019-04-17T22:23:24Z</time>
      </trkpt>
      <trkpt lat="46.20482" lon="5.53988">
        <ele>465</ele>
        <time>2019-04-17T22:24:24Z</time>
      </trkpt>
      <trkpt lat="46.20421" lon="5.53983">
        <ele>464</ele>
        <time>2019-04-17T22:25:24Z</time>
      </trkpt>
      <trkpt lat="46.2036" lon="5.53967">
        <ele>463</ele>
        <time>2019-04-17T22:26:24Z</time>
      </trkpt>
      <trkpt lat="46.20349" lon="5.53975">
        <ele>464</ele>
        <time>2019-04-17T22:27:24Z</time>
      </trkpt>
      <trkpt lat="46.20311" lon="5.54025">
        <ele>465</ele>
        <time>2019-04-17T22:28:24Z</time>
      </trkpt>
      <trkpt lat="46.2022" lon="5.54055">
        <ele>469</ele>
        <time>2019-04-17T22:29:24Z</time>
      </trkpt>
      <trkpt lat="46.20145" lon="5.54095">
        <ele>472</ele>
        <time>2019-04-17T22:30:24Z</time>
      </trkpt>
      <trkpt lat="46.20115" lon="5.54097">
        <ele>472</ele>
        <time>2019-04-17T22:31:24Z</time>
      </trkpt>
      <trkpt lat="46.20062" lon="5.54091">
        <ele>473</ele>
        <time>2019-04-17T22:32:24Z</time>
      </trkpt>
      <trkpt lat="46.20007" lon="5.54065">
        <ele>475</ele>
        <time>2019-04-17T22:33:24Z</time>
      </trkpt>
      <trkpt lat="46.19983" lon="5.54045">
        <ele>475</ele>
        <time>2019-04-17T22:34:24Z</time>
      </trkpt>
      <trkpt lat="46.19951" lon="5.54024">
        <ele>475</ele>
        <time>2019-04-17T22:35:24Z</time>
      </trkpt>
      <trkpt lat="46.1993" lon="5.54017">
        <ele>475</ele>
        <time>2019-04-17T22:36:24Z</time>
      </trkpt>
      <trkpt lat="46.19884" lon="5.54023">
        <ele>477</ele>
        <time>2019-04-17T22:37:24Z</time>
      </trkpt>
      <trkpt lat="46.19837" lon="5.54039">
        <ele>478</ele>
        <time>2019-04-17T22:38:24Z</time>
      </trkpt>
      <trkpt lat="46.19695" lon="5.54112">
        <ele>478</ele>
        <time>2019-04-17T22:39:24Z</time>
      </trkpt>
      <trkpt lat="46.1964" lon="5.54134">
        <ele>479</ele>
        <time>2019-04-17T22:40:24Z</time>
      </trkpt>
      <trkpt lat="46.1962" lon="5.54145">
        <ele>479</ele>
        <time>2019-04-17T22:41:24Z</time>
      </trkpt>
      <trkpt lat="46.19592" lon="5.54175">
        <ele>480</ele>
        <time>2019-04-17T22:42:24Z</time>
      </trkpt>
      <trkpt lat="46.1954" lon="5.54215">
        <ele>481</ele>
        <time>2019-04-17T22:43:24Z</time>
      </trkpt>
      <trkpt lat="46.19469" lon="5.54244">
        <ele>482</ele>
        <time>2019-04-17T22:44:24Z</time>
      </trkpt>
      <trkpt lat="46.19456" lon="5.54256">
        <ele>482</ele>
        <time>2019-04-17T22:45:24Z</time>
      </trkpt>
      <trkpt lat="46.19414" lon="5.54344">
        <ele>482</ele>
        <time>2019-04-17T22:46:24Z</time>
      </trkpt>
      <trkpt lat="46.19279" lon="5.54291">
        <ele>480</ele>
        <time>2019-04-17T22:47:24Z</time>
      </trkpt>
      <trkpt lat="46.19263" lon="5.54289">
        <ele>479</ele>
        <time>2019-04-17T22:48:24Z</time>
      </trkpt>
      <trkpt lat="46.19234" lon="5.54292">
        <ele>477</ele>
        <time>2019-04-17T22:49:24Z</time>
      </trkpt>
      <trkpt lat="46.19156" lon="5.54332">
        <ele>481</ele>
        <time>2019-04-17T22:50:24Z</time>
      </trkpt>
      <trkpt lat="46.191" lon="5.54344">
        <ele>482</ele>
        <time>2019-04-17T22:51:24Z</time>
      </trkpt>
      <trkpt lat="46.18868" lon="5.54345">
        <ele>482</ele>
        <time>2019-04-17T22:52:24Z</time>
      </trkpt>
      <trkpt lat="46.18849" lon="5.54351">
        <ele>481</ele>
        <time>2019-04-17T22:53:24Z</time>
      </trkpt>
      <trkpt lat="46.18699" lon="5.54479">
        <ele>487</ele>
        <time>2019-04-17T22:54:24Z</time>
      </trkpt>
      <trkpt lat="46.18627" lon="5.54546">
        <ele>489</ele>
        <time>2019-04-17T22:55:24Z</time>
      </trkpt>
      <trkpt lat="46.18513" lon="5.54643">
        <ele>488</ele>
        <time>2019-04-17T22:56:24Z</time>
      </trkpt>
      <trkpt lat="46.18329" lon="5.54777">
        <ele>485</ele>
        <time>2019-04-17T22:57:24Z</time>
      </trkpt>
      <trkpt lat="46.18287" lon="5.54805">
        <ele>484</ele>
        <time>2019-04-17T22:58:24Z</time>
      </trkpt>
      <trkpt lat="46.18247" lon="5.54824">
        <ele>481</ele>
        <time>2019-04-17T22:59:24Z</time>
      </trkpt>
      <trkpt lat="46.18211" lon="5.54845">
        <ele>481</ele>
        <time>2019-04-17T23:00:24Z</time>
      </trkpt>
      <trkpt lat="46.18037" lon="5.54966">
        <ele>479</ele>
        <time>2019-04-17T23:01:24Z</time>
      </trkpt>
      <trkpt lat="46.17994" lon="5.5498">
        <ele>478</ele>
        <time>2019-04-17T23:02:24Z</time>
      </trkpt>
      <trkpt lat="46.17957" lon="5.54985">
        <ele>478</ele>
        <time>2019-04-17T23:03:24Z</time>
      </trkpt>
      <trkpt lat="46.17956" lon="5.54979">
        <ele>478</ele>
        <time>2019-04-17T23:04:24Z</time>
      </trkpt>
      <trkpt lat="46.17952" lon="5.54968">
        <ele>478</ele>
        <time>2019-04-17T23:05:24Z</time>
      </trkpt>
      <trkpt lat="46.17948" lon="5.54964">
        <ele>478</ele>
        <time>2019-04-17T23:06:24Z</time>
      </trkpt>
      <trkpt lat="46.17939" lon="5.54961">
        <ele>478</ele>
        <time>2019-04-17T23:07:24Z</time>
      </trkpt>
      <trkpt lat="46.17929" lon="5.54965">
        <ele>478</ele>
        <time>2019-04-17T23:08:24Z</time>
      </trkpt>
      <trkpt lat="46.17923" lon="5.54979">
        <ele>478</ele>
        <time>2019-04-17T23:09:24Z</time>
      </trkpt>
      <trkpt lat="46.17914" lon="5.54983">
        <ele>478</ele>
        <time>2019-04-17T23:10:24Z</time>
      </trkpt>
      <trkpt lat="46.17904" lon="5.55019">
        <ele>478</ele>
        <time>2019-04-17T23:11:24Z</time>
      </trkpt>
      <trkpt lat="46.17887" lon="5.55063">
        <ele>478</ele>
        <time>2019-04-17T23:12:24Z</time>
      </trkpt>
      <trkpt lat="46.17817" lon="5.55284">
        <ele>481</ele>
        <time>2019-04-17T23:13:24Z</time>
      </trkpt>
      <trkpt lat="46.17805" lon="5.55312">
        <ele>481</ele>
        <time>2019-04-17T23:14:24Z</time>
      </trkpt>
      <trkpt lat="46.17737" lon="5.555">
        <ele>481</ele>
        <time>2019-04-17T23:15:24Z</time>
      </trkpt>
      <trkpt lat="46.17727" lon="5.55555">
        <ele>481</ele>
        <time>2019-04-17T23:16:24Z</time>
      </trkpt>
      <trkpt lat="46.17707" lon="5.55618">
        <ele>480</ele>
        <time>2019-04-17T23:17:24Z</time>
      </trkpt>
      <trkpt lat="46.17672" lon="5.55742">
        <ele>480</ele>
        <time>2019-04-17T23:18:24Z</time>
      </trkpt>
      <trkpt lat="46.17643" lon="5.55819">
        <ele>478</ele>
        <time>2019-04-17T23:19:24Z</time>
      </trkpt>
      <trkpt lat="46.17635" lon="5.55828">
        <ele>478</ele>
        <time>2019-04-17T23:20:24Z</time>
      </trkpt>
      <trkpt lat="46.17611" lon="5.55846">
        <ele>478</ele>
        <time>2019-04-17T23:21:24Z</time>
      </trkpt>
      <trkpt lat="46.17608" lon="5.55857">
        <ele>478</ele>
        <time>2019-04-17T23:22:24Z</time>
      </trkpt>
      <trkpt lat="46.17605" lon="5.55879">
        <ele>478</ele>
        <time>2019-04-17T23:23:24Z</time>
      </trkpt>
      <trkpt lat="46.17608" lon="5.55905">
        <ele>478</ele>
        <time>2019-04-17T23:24:24Z</time>
      </trkpt>
      <trkpt lat="46.17595" lon="5.55973">
        <ele>479</ele>
        <time>2019-04-17T23:25:24Z</time>
      </trkpt>
      <trkpt lat="46.17497" lon="5.56293">
        <ele>478</ele>
        <time>2019-04-17T23:26:24Z</time>
      </trkpt>
      <trkpt lat="46.17471" lon="5.56351">
        <ele>478</ele>
        <time>2019-04-17T23:27:24Z</time>
      </trkpt>
      <trkpt lat="46.17468" lon="5.56371">
        <ele>478</ele>
        <time>2019-04-17T23:28:24Z</time>
      </trkpt>
      <trkpt lat="46.17454" lon="5.56422">
        <ele>479</ele>
        <time>2019-04-17T23:29:24Z</time>
      </trkpt>
      <trkpt lat="46.17426" lon="5.56505">
        <ele>480</ele>
        <time>2019-04-17T23:30:24Z</time>
      </trkpt>
      <trkpt lat="46.17369" lon="5.56697">
        <ele>480</ele>
        <time>2019-04-17T23:31:24Z</time>
      </trkpt>
      <trkpt lat="46.17375" lon="5.56704">
        <ele>480</ele>
        <time>2019-04-17T23:32:24Z</time>
      </trkpt>
      <trkpt lat="46.17354" lon="5.56769">
        <ele>479</ele>
        <time>2019-04-17T23:33:24Z</time>
      </trkpt>
      <trkpt lat="46.1733" lon="5.5686">
        <ele>479</ele>
        <time>2019-04-17T23:34:24Z</time>
      </trkpt>
      <trkpt lat="46.17309" lon="5.5693">
        <ele>478</ele>
        <time>2019-04-17T23:35:24Z</time>
      </trkpt>
      <trkpt lat="46.17275" lon="5.57014">
        <ele>479</ele>
        <time>2019-04-17T23:36:24Z</time>
      </trkpt>
      <trkpt lat="46.1726" lon="5.5706">
        <ele>480</ele>
        <time>2019-04-17T23:37:24Z</time>
      </trkpt>
      <trkpt lat="46.17194" lon="5.57274">
        <ele>481</ele>
        <time>2019-04-17T23:38:24Z</time>
      </trkpt>
      <trkpt lat="46.17182" lon="5.5731">
        <ele>482</ele>
        <time>2019-04-17T23:39:24Z</time>
      </trkpt>
      <trkpt lat="46.17174" lon="5.57325">
        <ele>482</ele>
        <time>2019-04-17T23:40:24Z</time>
      </trkpt>
      <trkpt lat="46.17167" lon="5.57323">
        <ele>482</ele>
        <time>2019-04-17T23:41:24Z</time>
      </trkpt>
      <trkpt lat="46.17163" lon="5.57327">
        <ele>482</ele>
        <time>2019-04-17T23:42:24Z</time>
      </trkpt>
      <trkpt lat="46.17162" lon="5.57333">
        <ele>482</ele>
        <time>2019-04-17T23:43:24Z</time>
      </trkpt>
      <trkpt lat="46.17162" lon="5.57349">
        <ele>482</ele>
        <time>2019-04-17T23:44:24Z</time>
      </trkpt>
      <trkpt lat="46.1716" lon="5.57372">
        <ele>482</ele>
        <time>2019-04-17T23:45:24Z</time>
      </trkpt>
      <trkpt lat="46.17155" lon="5.5739">
        <ele>482</ele>
        <time>2019-04-17T23:46:24Z</time>
      </trkpt>
      <trkpt lat="46.17157" lon="5.57399">
        <ele>482</ele>
        <time>2019-04-17T23:47:24Z</time>
      </trkpt>
      <trkpt lat="46.17142" lon="5.57435">
        <ele>481</ele>
        <time>2019-04-17T23:48:24Z</time>
      </trkpt>
      <trkpt lat="46.17081" lon="5.57621">
        <ele>482</ele>
        <time>2019-04-17T23:49:24Z</time>
      </trkpt>
      <trkpt lat="46.17074" lon="5.5762">
        <ele>482</ele>
        <time>2019-04-17T23:50:24Z</time>
      </trkpt>
      <trkpt lat="46.17068" lon="5.57624">
        <ele>482</ele>
        <time>2019-04-17T23:51:24Z</time>
      </trkpt>
      <trkpt lat="46.17066" lon="5.57628">
        <ele>482</ele>
        <time>2019-04-17T23:52:24Z</time>
      </trkpt>
      <trkpt lat="46.17065" lon="5.57637">
        <ele>482</ele>
        <time>2019-04-17T23:53:24Z</time>
      </trkpt>
      <trkpt lat="46.17067" lon="5.57646">
        <ele>482</ele>
        <time>2019-04-17T23:54:24Z</time>
      </trkpt>
      <trkpt lat="46.16982" lon="5.5773">
        <ele>485</ele>
        <time>2019-04-17T23:55:24Z</time>
      </trkpt>
      <trkpt lat="46.1695" lon="5.57747">
        <ele>486</ele>
        <time>2019-04-17T23:56:24Z</time>
      </trkpt>
      <trkpt lat="46.16861" lon="5.57781">
        <ele>489</ele>
        <time>2019-04-17T23:57:24Z</time>
      </trkpt>
      <trkpt lat="46.16818" lon="5.57799">
        <ele>487</ele>
        <time>2019-04-17T23:58:24Z</time>
      </trkpt>
      <trkpt lat="46.16773" lon="5.57832">
        <ele>485</ele>
        <time>2019-04-17T23:59:24Z</time>
      </trkpt>
      <trkpt lat="46.16761" lon="5.57847">
        <ele>485</ele>
        <time>2019-04-18T00:00:24Z</time>
      </trkpt>
      <trkpt lat="46.16741" lon="5.57881">
        <ele>487</ele>
        <time>2019-04-18T00:01:24Z</time>
      </trkpt>
      <trkpt lat="46.16726" lon="5.57959">
        <ele>499</ele>
        <time>2019-04-18T00:02:24Z</time>
      </trkpt>
      <trkpt lat="46.16717" lon="5.57991">
        <ele>501</ele>
        <time>2019-04-18T00:03:24Z</time>
      </trkpt>
      <trkpt lat="46.16698" lon="5.58051">
        <ele>506</ele>
        <time>2019-04-18T00:04:24Z</time>
      </trkpt>
      <trkpt lat="46.1666" lon="5.5815">
        <ele>500</ele>
        <time>2019-04-18T00:05:24Z</time>
      </trkpt>
      <trkpt lat="46.16603" lon="5.58283">
        <ele>497</ele>
        <time>2019-04-18T00:06:24Z</time>
      </trkpt>
      <trkpt lat="46.16576" lon="5.58352">
        <ele>498</ele>
        <time>2019-04-18T00:07:24Z</time>
      </trkpt>
      <trkpt lat="46.16546" lon="5.5839">
        <ele>498</ele>
        <time>2019-04-18T00:08:24Z</time>
      </trkpt>
      <trkpt lat="46.16521" lon="5.5844">
        <ele>495</ele>
        <time>2019-04-18T00:09:24Z</time>
      </trkpt>
      <trkpt lat="46.16505" lon="5.58493">
        <ele>494</ele>
        <time>2019-04-18T00:10:24Z</time>
      </trkpt>
      <trkpt lat="46.16475" lon="5.58603">
        <ele>500</ele>
        <time>2019-04-18T00:11:24Z</time>
      </trkpt>
      <trkpt lat="46.16448" lon="5.5868">
        <ele>498</ele>
        <time>2019-04-18T00:12:24Z</time>
      </trkpt>
      <trkpt lat="46.16419" lon="5.58773">
        <ele>494</ele>
        <time>2019-04-18T00:13:24Z</time>
      </trkpt>
      <trkpt lat="46.1639" lon="5.58853">
        <ele>499</ele>
        <time>2019-04-18T00:14:24Z</time>
      </trkpt>
      <trkpt lat="46.16377" lon="5.58922">
        <ele>501</ele>
        <time>2019-04-18T00:15:24Z</time>
      </trkpt>
      <trkpt lat="46.16353" lon="5.59082">
        <ele>500</ele>
        <time>2019-04-18T00:16:24Z</time>
      </trkpt>
      <trkpt lat="46.16313" lon="5.59315">
        <ele>488</ele>
        <time>2019-04-18T00:17:24Z</time>
      </trkpt>
      <trkpt lat="46.16266" lon="5.59618">
        <ele>491</ele>
        <time>2019-04-18T00:18:24Z</time>
      </trkpt>
      <trkpt lat="46.16218" lon="5.59751">
        <ele>490</ele>
        <time>2019-04-18T00:19:24Z</time>
      </trkpt>
      <trkpt lat="46.1618" lon="5.59835">
        <ele>489</ele>
        <time>2019-04-18T00:20:24Z</time>
      </trkpt>
      <trkpt lat="46.16133" lon="5.59919">
        <ele>490</ele>
        <time>2019-04-18T00:21:24Z</time>
      </trkpt>
      <trkpt lat="46.16101" lon="5.59971">
        <ele>490</ele>
        <time>2019-04-18T00:22:24Z</time>
      </trkpt>
      <trkpt lat="46.16057" lon="5.60061">
        <ele>493</ele>
        <time>2019-04-18T00:23:24Z</time>
      </trkpt>
      <trkpt lat="46.1603" lon="5.60097">
        <ele>491</ele>
        <time>2019-04-18T00:24:24Z</time>
      </trkpt>
      <trkpt lat="46.15905" lon="5.60202">
        <ele>484</ele>
        <time>2019-04-18T00:25:24Z</time>
      </trkpt>
      <trkpt lat="46.15701" lon="5.60417">
        <ele>487</ele>
        <time>2019-04-18T00:26:24Z</time>
      </trkpt>
      <trkpt lat="46.15653" lon="5.60448">
        <ele>487</ele>
        <time>2019-04-18T00:27:24Z</time>
      </trkpt>
      <trkpt lat="46.15639" lon="5.60455">
        <ele>487</ele>
        <time>2019-04-18T00:28:24Z</time>
      </trkpt>
      <trkpt lat="46.15628" lon="5.60457">
        <ele>486</ele>
        <time>2019-04-18T00:29:24Z</time>
      </trkpt>
      <trkpt lat="46.15466" lon="5.60445">
        <ele>483</ele>
        <time>2019-04-18T00:30:24Z</time>
      </trkpt>
      <trkpt lat="46.15453" lon="5.60447">
        <ele>483</ele>
        <time>2019-04-18T00:31:24Z</time>
      </trkpt>
      <trkpt lat="46.15386" lon="5.6047">
        <ele>483</ele>
        <time>2019-04-18T00:32:24Z</time>
      </trkpt>
      <trkpt lat="46.15362" lon="5.60484">
        <ele>483</ele>
        <time>2019-04-18T00:33:24Z</time>
      </trkpt>
      <trkpt lat="46.15226" lon="5.60669">
        <ele>483</ele>
        <time>2019-04-18T00:34:24Z</time>
      </trkpt>
      <trkpt lat="46.1519" lon="5.60713">
        <ele>484</ele>
        <time>2019-04-18T00:35:24Z</time>
      </trkpt>
      <trkpt lat="46.15145" lon="5.60727">
        <ele>484</ele>
        <time>2019-04-18T00:36:24Z</time>
      </trkpt>
      <trkpt lat="46.15029" lon="5.60781">
        <ele>487</ele>
        <time>2019-04-18T00:37:24Z</time>
      </trkpt>
      <trkpt lat="46.14895" lon="5.60851">
        <ele>488</ele>
        <time>2019-04-18T00:38:24Z</time>
      </trkpt>
      <trkpt lat="46.14878" lon="5.6087">
        <ele>488</ele>
        <time>2019-04-18T00:39:24Z</time>
      </trkpt>
      <trkpt lat="46.14449" lon="5.61486">
        <ele>490</ele>
        <time>2019-04-18T00:40:24Z</time>
      </trkpt>
      <trkpt lat="46.144" lon="5.61554">
        <ele>494</ele>
        <time>2019-04-18T00:41:24Z</time>
      </trkpt>
      <trkpt lat="46.14272" lon="5.61744">
        <ele>501</ele>
        <time>2019-04-18T00:42:24Z</time>
      </trkpt>
      <trkpt lat="46.14248" lon="5.61787">
        <ele>502</ele>
        <time>2019-04-18T00:43:24Z</time>
      </trkpt>
      <trkpt lat="46.14238" lon="5.61813">
        <ele>503</ele>
        <time>2019-04-18T00:44:24Z</time>
      </trkpt>
      <trkpt lat="46.14219" lon="5.61883">
        <ele>507</ele>
        <time>2019-04-18T00:45:24Z</time>
      </trkpt>
      <trkpt lat="46.14198" lon="5.61938">
        <ele>508</ele>
        <time>2019-04-18T00:46:24Z</time>
      </trkpt>
      <trkpt lat="46.14122" lon="5.6216">
        <ele>507</ele>
        <time>2019-04-18T00:47:24Z</time>
      </trkpt>
      <trkpt lat="46.1399" lon="5.62524">
        <ele>521</ele>
        <time>2019-04-18T00:48:24Z</time>
      </trkpt>
      <trkpt lat="46.1398" lon="5.62539">
        <ele>522</ele>
        <time>2019-04-18T00:49:24Z</time>
      </trkpt>
      <trkpt lat="46.13933" lon="5.62594">
        <ele>520</ele>
        <time>2019-04-18T00:50:24Z</time>
      </trkpt>
      <trkpt lat="46.13922" lon="5.6261">
        <ele>518</ele>
        <time>2019-04-18T00:51:24Z</time>
      </trkpt>
      <trkpt lat="46.13915" lon="5.62626">
        <ele>518</ele>
        <time>2019-04-18T00:52:24Z</time>
      </trkpt>
      <trkpt lat="46.13911" lon="5.62642">
        <ele>518</ele>
        <time>2019-04-18T00:53:24Z</time>
      </trkpt>
      <trkpt lat="46.13909" lon="5.62685">
        <ele>519</ele>
        <time>2019-04-18T00:54:24Z</time>
      </trkpt>
      <trkpt lat="46.13911" lon="5.62733">
        <ele>518</ele>
        <time>2019-04-18T00:55:24Z</time>
      </trkpt>
      <trkpt lat="46.13915" lon="5.62747">
        <ele>518</ele>
        <time>2019-04-18T00:56:24Z</time>
      </trkpt>
      <trkpt lat="46.14064" lon="5.63059">
        <ele>529</ele>
        <time>2019-04-18T00:57:24Z</time>
      </trkpt>
      <trkpt lat="46.14081" lon="5.63089">
        <ele>530</ele>
        <time>2019-04-18T00:58:24Z</time>
      </trkpt>
      <trkpt lat="46.1409" lon="5.63113">
        <ele>532</ele>
        <time>2019-04-18T00:59:24Z</time>
      </trkpt>
      <trkpt lat="46.14122" lon="5.63182">
        <ele>534</ele>
        <time>2019-04-18T01:00:24Z</time>
      </trkpt>
      <trkpt lat="46.14194" lon="5.6333">
        <ele>537</ele>
        <time>2019-04-18T01:01:24Z</time>
      </trkpt>
      <trkpt lat="46.14432" lon="5.63838">
        <ele>532</ele>
        <time>2019-04-18T01:02:24Z</time>
      </trkpt>
      <trkpt lat="46.1448" lon="5.63952">
        <ele>537</ele>
        <time>2019-04-18T01:03:24Z</time>
      </trkpt>
      <trkpt lat="46.14507" lon="5.64024">
        <ele>542</ele>
        <time>2019-04-18T01:04:24Z</time>
      </trkpt>
      <trkpt lat="46.14558" lon="5.64135">
        <ele>550</ele>
        <time>2019-04-18T01:05:24Z</time>
      </trkpt>
      <trkpt lat="46.14588" lon="5.64183">
        <ele>555</ele>
        <time>2019-04-18T01:06:24Z</time>
      </trkpt>
      <trkpt lat="46.14619" lon="5.64218">
        <ele>558</ele>
        <time>2019-04-18T01:07:24Z</time>
      </trkpt>
      <trkpt lat="46.14673" lon="5.64269">
        <ele>557</ele>
        <time>2019-04-18T01:08:24Z</time>
      </trkpt>
      <trkpt lat="46.14865" lon="5.6442">
        <ele>564</ele>
        <time>2019-04-18T01:09:24Z</time>
      </trkpt>
      <trkpt lat="46.14904" lon="5.64459">
        <ele>568</ele>
        <time>2019-04-18T01:10:24Z</time>
      </trkpt>
      <trkpt lat="46.14934" lon="5.64494">
        <ele>570</ele>
        <time>2019-04-18T01:11:24Z</time>
      </trkpt>
      <trkpt lat="46.14967" lon="5.64537">
        <ele>573</ele>
        <time>2019-04-18T01:12:24Z</time>
      </trkpt>
      <trkpt lat="46.15061" lon="5.64678">
        <ele>581</ele>
        <time>2019-04-18T01:13:24Z</time>
      </trkpt>
      <trkpt lat="46.15091" lon="5.64711">
        <ele>579</ele>
        <time>2019-04-18T01:14:24Z</time>
      </trkpt>
      <trkpt lat="46.1512" lon="5.64734">
        <ele>579</ele>
        <time>2019-04-18T01:15:24Z</time>
      </trkpt>
      <trkpt lat="46.15227" lon="5.64805">
        <ele>584</ele>
        <time>2019-04-18T01:16:24Z</time>
      </trkpt>
      <trkpt lat="46.15289" lon="5.64853">
        <ele>592</ele>
        <time>2019-04-18T01:17:24Z</time>
      </trkpt>
      <trkpt lat="46.15304" lon="5.64868">
        <ele>594</ele>
        <time>2019-04-18T01:18:24Z</time>
      </trkpt>
      <trkpt lat="46.15342" lon="5.64907">
        <ele>598</ele>
        <time>2019-04-18T01:19:24Z</time>
      </trkpt>
      <trkpt lat="46.15472" lon="5.65061">
        <ele>612</ele>
        <time>2019-04-18T01:20:24Z</time>
      </trkpt>
      <trkpt lat="46.15515" lon="5.6511">
        <ele>612</ele>
        <time>2019-04-18T01:21:24Z</time>
      </trkpt>
      <trkpt lat="46.15562" lon="5.65169">
        <ele>613</ele>
        <time>2019-04-18T01:22:24Z</time>
      </trkpt>
      <trkpt lat="46.15592" lon="5.65196">
        <ele>613</ele>
        <time>2019-04-18T01:23:24Z</time>
      </trkpt>
      <trkpt lat="46.15627" lon="5.65222">
        <ele>613</ele>
        <time>2019-04-18T01:24:24Z</time>
      </trkpt>
      <trkpt lat="46.15664" lon="5.65241">
        <ele>614</ele>
        <time>2019-04-18T01:25:24Z</time>
      </trkpt>
      <trkpt lat="46.15704" lon="5.65255">
        <ele>615</ele>
        <time>2019-04-18T01:26:24Z</time>
      </trkpt>
      <trkpt lat="46.1573" lon="5.65259">
        <ele>616</ele>
        <time>2019-04-18T01:27:24Z</time>
      </trkpt>
      <trkpt lat="46.1576" lon="5.65261">
        <ele>616</ele>
        <time>2019-04-18T01:28:24Z</time>
      </trkpt>
      <trkpt lat="46.15787" lon="5.65259">
        <ele>614</ele>
        <time>2019-04-18T01:29:24Z</time>
      </trkpt>
      <trkpt lat="46.15821" lon="5.65251">
        <ele>613</ele>
        <time>2019-04-18T01:30:24Z</time>
      </trkpt>
      <trkpt lat="46.15879" lon="5.6523">
        <ele>609</ele>
        <time>2019-04-18T01:31:24Z</time>
      </trkpt>
      <trkpt lat="46.15927" lon="5.65219">
        <ele>606</ele>
        <time>2019-04-18T01:32:24Z</time>
      </trkpt>
      <trkpt lat="46.15957" lon="5.65215">
        <ele>607</ele>
        <time>2019-04-18T01:33:24Z</time>
      </trkpt>
      <trkpt lat="46.16019" lon="5.65227">
        <ele>609</ele>
        <time>2019-04-18T01:34:24Z</time>
      </trkpt>
      <trkpt lat="46.16051" lon="5.65246">
        <ele>613</ele>
        <time>2019-04-18T01:35:24Z</time>
      </trkpt>
      <trkpt lat="46.1608" lon="5.65276">
        <ele>615</ele>
        <time>2019-04-18T01:36:24Z</time>
      </trkpt>
      <trkpt lat="46.16105" lon="5.65326">
        <ele>615</ele>
        <time>2019-04-18T01:37:24Z</time>
      </trkpt>
      <trkpt lat="46.16123" lon="5.65375">
        <ele>617</ele>
        <time>2019-04-18T01:38:24Z</time>
      </trkpt>
      <trkpt lat="46.16133" lon="5.65421">
        <ele>616</ele>
        <time>2019-04-18T01:39:24Z</time>
      </trkpt>
      <trkpt lat="46.16137" lon="5.65469">
        <ele>615</ele>
        <time>2019-04-18T01:40:24Z</time>
      </trkpt>
      <trkpt lat="46.16137" lon="5.65525">
        <ele>612</ele>
        <time>2019-04-18T01:41:24Z</time>
      </trkpt>
      <trkpt lat="46.1613" lon="5.6565">
        <ele>608</ele>
        <time>2019-04-18T01:42:24Z</time>
      </trkpt>
      <trkpt lat="46.16129" lon="5.65707">
        <ele>607</ele>
        <time>2019-04-18T01:43:24Z</time>
      </trkpt>
      <trkpt lat="46.16131" lon="5.65783">
        <ele>608</ele>
        <time>2019-04-18T01:44:24Z</time>
      </trkpt>
      <trkpt lat="46.16134" lon="5.6585">
        <ele>609</ele>
        <time>2019-04-18T01:45:24Z</time>
      </trkpt>
      <trkpt lat="46.1614" lon="5.65893">
        <ele>610</ele>
        <time>2019-04-18T01:46:24Z</time>
      </trkpt>
      <trkpt lat="46.16154" lon="5.65945">
        <ele>609</ele>
        <time>2019-04-18T01:47:24Z</time>
      </trkpt>
      <trkpt lat="46.16213" lon="5.66094">
        <ele>612</ele>
        <time>2019-04-18T01:48:24Z</time>
      </trkpt>
      <trkpt lat="46.16226" lon="5.66135">
        <ele>612</ele>
        <time>2019-04-18T01:49:24Z</time>
      </trkpt>
      <trkpt lat="46.16394" lon="5.66942">
        <ele>611</ele>
        <time>2019-04-18T01:50:24Z</time>
      </trkpt>
      <trkpt lat="46.1644" lon="5.67105">
        <ele>617</ele>
        <time>2019-04-18T01:51:24Z</time>
      </trkpt>
      <trkpt lat="46.16485" lon="5.67255">
        <ele>618</ele>
        <time>2019-04-18T01:52:24Z</time>
      </trkpt>
      <trkpt lat="46.16502" lon="5.67293">
        <ele>614</ele>
        <time>2019-04-18T01:53:24Z</time>
      </trkpt>
      <trkpt lat="46.16591" lon="5.67464">
        <ele>612</ele>
        <time>2019-04-18T01:54:24Z</time>
      </trkpt>
      <trkpt lat="46.16649" lon="5.67541">
        <ele>612</ele>
        <time>2019-04-18T01:55:24Z</time>
      </trkpt>
      <trkpt lat="46.16729" lon="5.67629">
        <ele>610</ele>
        <time>2019-04-18T01:56:24Z</time>
      </trkpt>
      <trkpt lat="46.16769" lon="5.67681">
        <ele>607</ele>
        <time>2019-04-18T01:57:24Z</time>
      </trkpt>
      <trkpt lat="46.1681" lon="5.67751">
        <ele>605</ele>
        <time>2019-04-18T01:58:24Z</time>
      </trkpt>
      <trkpt lat="46.16871" lon="5.67894">
        <ele>602</ele>
        <time>2019-04-18T01:59:24Z</time>
      </trkpt>
      <trkpt lat="46.16884" lon="5.67931">
        <ele>601</ele>
        <time>2019-04-18T02:00:24Z</time>
      </trkpt>
      <trkpt lat="46.16895" lon="5.67975">
        <ele>598</ele>
        <time>2019-04-18T02:01:24Z</time>
      </trkpt>
      <trkpt lat="46.16901" lon="5.68027">
        <ele>596</ele>
        <time>2019-04-18T02:02:24Z</time>
      </trkpt>
      <trkpt lat="46.16901" lon="5.68061">
        <ele>596</ele>
        <time>2019-04-18T02:03:24Z</time>
      </trkpt>
      <trkpt lat="46.16896" lon="5.68133">
        <ele>596</ele>
        <time>2019-04-18T02:04:24Z</time>
      </trkpt>
      <trkpt lat="46.16838" lon="5.68518">
        <ele>594</ele>
        <time>2019-04-18T02:05:24Z</time>
      </trkpt>
      <trkpt lat="46.1683" lon="5.68563">
        <ele>595</ele>
        <time>2019-04-18T02:06:24Z</time>
      </trkpt>
      <trkpt lat="46.16824" lon="5.6859">
        <ele>597</ele>
        <time>2019-04-18T02:07:24Z</time>
      </trkpt>
      <trkpt lat="46.16813" lon="5.68622">
        <ele>600</ele>
        <time>2019-04-18T02:08:24Z</time>
      </trkpt>
      <trkpt lat="46.1679" lon="5.68675">
        <ele>600</ele>
        <time>2019-04-18T02:09:24Z</time>
      </trkpt>
      <trkpt lat="46.16753" lon="5.68753">
        <ele>594</ele>
        <time>2019-04-18T02:10:24Z</time>
      </trkpt>
      <trkpt lat="46.16731" lon="5.68815">
        <ele>597</ele>
        <time>2019-04-18T02:11:24Z</time>
      </trkpt>
      <trkpt lat="46.16719" lon="5.68873">
        <ele>599</ele>
        <time>2019-04-18T02:12:24Z</time>
      </trkpt>
      <trkpt lat="46.16708" lon="5.68965">
        <ele>600</ele>
        <time>2019-04-18T02:13:24Z</time>
      </trkpt>
      <trkpt lat="46.16694" lon="5.69027">
        <ele>598</ele>
        <time>2019-04-18T02:14:24Z</time>
      </trkpt>
      <trkpt lat="46.16673" lon="5.69092">
        <ele>594</ele>
        <time>2019-04-18T02:15:24Z</time>
      </trkpt>
      <trkpt lat="46.16634" lon="5.69195">
        <ele>594</ele>
        <time>2019-04-18T02:16:24Z</time>
      </trkpt>
      <trkpt lat="46.16599" lon="5.69295">
        <ele>596</ele>
        <time>2019-04-18T02:17:24Z</time>
      </trkpt>
      <trkpt lat="46.16586" lon="5.69326">
        <ele>596</ele>
        <time>2019-04-18T02:18:24Z</time>
      </trkpt>
      <trkpt lat="46.16569" lon="5.69357">
        <ele>596</ele>
        <time>2019-04-18T02:19:24Z</time>
      </trkpt>
      <trkpt lat="46.16553" lon="5.69375">
        <ele>595</ele>
        <time>2019-04-18T02:20:24Z</time>
      </trkpt>
      <trkpt lat="46.16528" lon="5.69393">
        <ele>593</ele>
        <time>2019-04-18T02:21:24Z</time>
      </trkpt>
      <trkpt lat="46.16492" lon="5.69408">
        <ele>590</ele>
        <time>2019-04-18T02:22:24Z</time>
      </trkpt>
      <trkpt lat="46.16423" lon="5.69428">
        <ele>590</ele>
        <time>2019-04-18T02:23:24Z</time>
      </trkpt>
      <trkpt lat="46.16411" lon="5.69438">
        <ele>591</ele>
        <time>2019-04-18T02:24:24Z</time>
      </trkpt>
      <trkpt lat="46.16397" lon="5.6946">
        <ele>592</ele>
        <time>2019-04-18T02:25:24Z</time>
      </trkpt>
      <trkpt lat="46.16372" lon="5.69532">
        <ele>594</ele>
        <time>2019-04-18T02:26:24Z</time>
      </trkpt>
      <trkpt lat="46.16343" lon="5.69635">
        <ele>588</ele>
        <time>2019-04-18T02:27:24Z</time>
      </trkpt>
      <trkpt lat="46.16337" lon="5.69673">
        <ele>586</ele>
        <time>2019-04-18T02:28:24Z</time>
      </trkpt>
      <trkpt lat="46.16333" lon="5.69756">
        <ele>586</ele>
        <time>2019-04-18T02:29:24Z</time>
      </trkpt>
      <trkpt lat="46.16335" lon="5.69791">
        <ele>587</ele>
        <time>2019-04-18T02:30:24Z</time>
      </trkpt>
      <trkpt lat="46.16357" lon="5.69925">
        <ele>590</ele>
        <time>2019-04-18T02:31:24Z</time>
      </trkpt>
      <trkpt lat="46.16356" lon="5.69952">
        <ele>589</ele>
        <time>2019-04-18T02:32:24Z</time>
      </trkpt>
      <trkpt lat="46.1635" lon="5.69982">
        <ele>586</ele>
        <time>2019-04-18T02:33:24Z</time>
      </trkpt>
      <trkpt lat="46.1635" lon="5.69993">
        <ele>585</ele>
        <time>2019-04-18T02:34:24Z</time>
      </trkpt>
      <trkpt lat="46.16365" lon="5.7012">
        <ele>585</ele>
        <time>2019-04-18T02:35:24Z</time>
      </trkpt>
      <trkpt lat="46.16379" lon="5.70182">
        <ele>585</ele>
        <time>2019-04-18T02:36:24Z</time>
      </trkpt>
      <trkpt lat="46.16407" lon="5.7029">
        <ele>575</ele>
        <time>2019-04-18T02:37:24Z</time>
      </trkpt>
      <trkpt lat="46.16472" lon="5.70533">
        <ele>563</ele>
        <time>2019-04-18T02:38:24Z</time>
      </trkpt>
      <trkpt lat="46.16531" lon="5.70744">
        <ele>555</ele>
        <time>2019-04-18T02:39:24Z</time>
      </trkpt>
      <trkpt lat="46.16593" lon="5.70977">
        <ele>551</ele>
        <time>2019-04-18T02:40:24Z</time>
      </trkpt>
      <trkpt lat="46.16643" lon="5.71151">
        <ele>552</ele>
        <time>2019-04-18T02:41:24Z</time>
      </trkpt>
      <trkpt lat="46.1665" lon="5.7118">
        <ele>551</ele>
        <time>2019-04-18T02:42:24Z</time>
      </trkpt>
      <trkpt lat="46.16687" lon="5.71375">
        <ele>549</ele>
        <time>2019-04-18T02:43:24Z</time>
      </trkpt>
      <trkpt lat="46.16706" lon="5.71487">
        <ele>548</ele>
        <time>2019-04-18T02:44:24Z</time>
      </trkpt>
      <trkpt lat="46.16716" lon="5.71516">
        <ele>546</ele>
        <time>2019-04-18T02:45:24Z</time>
      </trkpt>
      <trkpt lat="46.16743" lon="5.71572">
        <ele>541</ele>
        <time>2019-04-18T02:46:24Z</time>
      </trkpt>
      <trkpt lat="46.16753" lon="5.71603">
        <ele>540</ele>
        <time>2019-04-18T02:47:24Z</time>
      </trkpt>
      <trkpt lat="46.16756" lon="5.71625">
        <ele>540</ele>
        <time>2019-04-18T02:48:24Z</time>
      </trkpt>
      <trkpt lat="46.16764" lon="5.71707">
        <ele>540</ele>
        <time>2019-04-18T02:49:24Z</time>
      </trkpt>
      <trkpt lat="46.16776" lon="5.71747">
        <ele>541</ele>
        <time>2019-04-18T02:50:24Z</time>
      </trkpt>
      <trkpt lat="46.16788" lon="5.71773">
        <ele>541</ele>
        <time>2019-04-18T02:51:24Z</time>
      </trkpt>
      <trkpt lat="46.16867" lon="5.71879">
        <ele>541</ele>
        <time>2019-04-18T02:52:24Z</time>
      </trkpt>
      <trkpt lat="46.16879" lon="5.719">
        <ele>540</ele>
        <time>2019-04-18T02:53:24Z</time>
      </trkpt>
      <trkpt lat="46.16888" lon="5.71921">
        <ele>538</ele>
        <time>2019-04-18T02:54:24Z</time>
      </trkpt>
      <trkpt lat="46.16894" lon="5.71946">
        <ele>536</ele>
        <time>2019-04-18T02:55:24Z</time>
      </trkpt>
      <trkpt lat="46.1691" lon="5.72073">
        <ele>527</ele>
        <time>2019-04-18T02:56:24Z</time>
      </trkpt>
      <trkpt lat="46.16918" lon="5.72111">
        <ele>525</ele>
        <time>2019-04-18T02:57:24Z</time>
      </trkpt>
      <trkpt lat="46.16986" lon="5.72314">
        <ele>523</ele>
        <time>2019-04-18T02:58:24Z</time>
      </trkpt>
      <trkpt lat="46.16993" lon="5.7233">
        <ele>522</ele>
        <time>2019-04-18T02:59:24Z</time>
      </trkpt>
      <trkpt lat="46.17009" lon="5.72357">
        <ele>522</ele>
        <time>2019-04-18T03:00:24Z</time>
      </trkpt>
      <trkpt lat="46.17025" lon="5.72377">
        <ele>523</ele>
        <time>2019-04-18T03:01:24Z</time>
      </trkpt>
      <trkpt lat="46.17043" lon="5.72394">
        <ele>523</ele>
        <time>2019-04-18T03:02:24Z</time>
      </trkpt>
      <trkpt lat="46.1709" lon="5.72426">
        <ele>523</ele>
        <time>2019-04-18T03:03:24Z</time>
      </trkpt>
      <trkpt lat="46.17121" lon="5.72463">
        <ele>526</ele>
        <time>2019-04-18T03:04:24Z</time>
      </trkpt>
      <trkpt lat="46.17142" lon="5.725">
        <ele>527</ele>
        <time>2019-04-18T03:05:24Z</time>
      </trkpt>
      <trkpt lat="46.17162" lon="5.72568">
        <ele>524</ele>
        <time>2019-04-18T03:06:24Z</time>
      </trkpt>
      <trkpt lat="46.17177" lon="5.72633">
        <ele>525</ele>
        <time>2019-04-18T03:07:24Z</time>
      </trkpt>
      <trkpt lat="46.17186" lon="5.72687">
        <ele>525</ele>
        <time>2019-04-18T03:08:24Z</time>
      </trkpt>
      <trkpt lat="46.17198" lon="5.72732">
        <ele>525</ele>
        <time>2019-04-18T03:09:24Z</time>
      </trkpt>
      <trkpt lat="46.17226" lon="5.72795">
        <ele>522</ele>
        <time>2019-04-18T03:10:24Z</time>
      </trkpt>
      <trkpt lat="46.17275" lon="5.72884">
        <ele>514</ele>
        <time>2019-04-18T03:11:24Z</time>
      </trkpt>
      <trkpt lat="46.17281" lon="5.72907">
        <ele>513</ele>
        <time>2019-04-18T03:12:24Z</time>
      </trkpt>
      <trkpt lat="46.17288" lon="5.72906">
        <ele>513</ele>
        <time>2019-04-18T03:13:24Z</time>
      </trkpt>
      <trkpt lat="46.17296" lon="5.72912">
        <ele>512</ele>
        <time>2019-04-18T03:14:24Z</time>
      </trkpt>
      <trkpt lat="46.17385" lon="5.7304">
        <ele>515</ele>
        <time>2019-04-18T03:15:24Z</time>
      </trkpt>
      <trkpt lat="46.17445" lon="5.73121">
        <ele>514</ele>
        <time>2019-04-18T03:16:24Z</time>
      </trkpt>
      <trkpt lat="46.17518" lon="5.73225">
        <ele>510</ele>
        <time>2019-04-18T03:17:24Z</time>
      </trkpt>
      <trkpt lat="46.17575" lon="5.73281">
        <ele>510</ele>
        <time>2019-04-18T03:18:24Z</time>
      </trkpt>
      <trkpt lat="46.17586" lon="5.73294">
        <ele>510</ele>
        <time>2019-04-18T03:19:24Z</time>
      </trkpt>
      <trkpt lat="46.176" lon="5.73316">
        <ele>510</ele>
        <time>2019-04-18T03:20:24Z</time>
      </trkpt>
      <trkpt lat="46.17622" lon="5.73361">
        <ele>510</ele>
        <time>2019-04-18T03:21:24Z</time>
      </trkpt>
      <trkpt lat="46.17629" lon="5.7337">
        <ele>510</ele>
        <time>2019-04-18T03:22:24Z</time>
      </trkpt>
      <trkpt lat="46.17647" lon="5.73383">
        <ele>510</ele>
        <time>2019-04-18T03:23:24Z</time>
      </trkpt>
      <trkpt lat="46.17662" lon="5.73397">
        <ele>509</ele>
        <time>2019-04-18T03:24:24Z</time>
      </trkpt>
      <trkpt lat="46.17687" lon="5.73431">
        <ele>510</ele>
        <time>2019-04-18T03:25:24Z</time>
      </trkpt>
      <trkpt lat="46.17765" lon="5.73551">
        <ele>512</ele>
        <time>2019-04-18T03:26:24Z</time>
      </trkpt>
      <trkpt lat="46.17779" lon="5.73576">
        <ele>512</ele>
        <time>2019-04-18T03:27:24Z</time>
      </trkpt>
      <trkpt lat="46.17796" lon="5.73623">
        <ele>513</ele>
        <time>2019-04-18T03:28:24Z</time>
      </trkpt>
      <trkpt lat="46.178" lon="5.7365">
        <ele>514</ele>
        <time>2019-04-18T03:29:24Z</time>
      </trkpt>
      <trkpt lat="46.17799" lon="5.73712">
        <ele>513</ele>
        <time>2019-04-18T03:30:24Z</time>
      </trkpt>
      <trkpt lat="46.17806" lon="5.73783">
        <ele>512</ele>
        <time>2019-04-18T03:31:24Z</time>
      </trkpt>
      <trkpt lat="46.17801" lon="5.73834">
        <ele>508</ele>
        <time>2019-04-18T03:32:24Z</time>
      </trkpt>
      <trkpt lat="46.17804" lon="5.73842">
        <ele>507</ele>
        <time>2019-04-18T03:33:24Z</time>
      </trkpt>
      <trkpt lat="46.17744" lon="5.73922">
        <ele>502</ele>
        <time>2019-04-18T03:34:24Z</time>
      </trkpt>
      <trkpt lat="46.17726" lon="5.7396">
        <ele>503</ele>
        <time>2019-04-18T03:35:24Z</time>
      </trkpt>
      <trkpt lat="46.17695" lon="5.74073">
        <ele>497</ele>
        <time>2019-04-18T03:36:24Z</time>
      </trkpt>
      <trkpt lat="46.17688" lon="5.74092">
        <ele>497</ele>
        <time>2019-04-18T03:37:24Z</time>
      </trkpt>
      <trkpt lat="46.1768" lon="5.74094">
        <ele>498</ele>
        <time>2019-04-18T03:38:24Z</time>
      </trkpt>
      <trkpt lat="46.17681" lon="5.74112">
        <ele>496</ele>
        <time>2019-04-18T03:39:24Z</time>
      </trkpt>
      <trkpt lat="46.1768" lon="5.7414">
        <ele>494</ele>
        <time>2019-04-18T03:40:24Z</time>
      </trkpt>
      <trkpt lat="46.17679" lon="5.74152">
        <ele>493</ele>
        <time>2019-04-18T03:41:24Z</time>
      </trkpt>
      <trkpt lat="46.17672" lon="5.74178">
        <ele>492</ele>
        <time>2019-04-18T03:42:24Z</time>
      </trkpt>
      <trkpt lat="46.17655" lon="5.74216">
        <ele>492</ele>
        <time>2019-04-18T03:43:24Z</time>
      </trkpt>
      <trkpt lat="46.17548" lon="5.74384">
        <ele>502</ele>
        <time>2019-04-18T03:44:24Z</time>
      </trkpt>
      <trkpt lat="46.17536" lon="5.74409">
        <ele>501</ele>
        <time>2019-04-18T03:45:24Z</time>
      </trkpt>
      <trkpt lat="46.17522" lon="5.74442">
        <ele>500</ele>
        <time>2019-04-18T03:46:24Z</time>
      </trkpt>
      <trkpt lat="46.175" lon="5.74514">
        <ele>489</ele>
        <time>2019-04-18T03:47:24Z</time>
      </trkpt>
      <trkpt lat="46.17494" lon="5.74526">
        <ele>489</ele>
        <time>2019-04-18T03:48:24Z</time>
      </trkpt>
      <trkpt lat="46.17481" lon="5.74546">
        <ele>488</ele>
        <time>2019-04-18T03:49:24Z</time>
      </trkpt>
      <trkpt lat="46.17472" lon="5.74555">
        <ele>488</ele>
        <time>2019-04-18T03:50:24Z</time>
      </trkpt>
      <trkpt lat="46.17451" lon="5.7457">
        <ele>489</ele>
        <time>2019-04-18T03:51:24Z</time>
      </trkpt>
      <trkpt lat="46.17386" lon="5.74611">
        <ele>493</ele>
        <time>2019-04-18T03:52:24Z</time>
      </trkpt>
      <trkpt lat="46.17348" lon="5.7463">
        <ele>493</ele>
        <time>2019-04-18T03:53:24Z</time>
      </trkpt>
      <trkpt lat="46.17308" lon="5.74647">
        <ele>492</ele>
        <time>2019-04-18T03:54:24Z</time>
      </trkpt>
      <trkpt lat="46.17292" lon="5.74656">
        <ele>490</ele>
        <time>2019-04-18T03:55:24Z</time>
      </trkpt>
      <trkpt lat="46.17265" lon="5.74683">
        <ele>487</ele>
        <time>2019-04-18T03:56:24Z</time>
      </trkpt>
      <trkpt lat="46.17181" lon="5.74758">
        <ele>484</ele>
        <time>2019-04-18T03:57:24Z</time>
      </trkpt>
      <trkpt lat="46.17169" lon="5.74777">
        <ele>484</ele>
        <time>2019-04-18T03:58:24Z</time>
      </trkpt>
      <trkpt lat="46.17156" lon="5.7481">
        <ele>483</ele>
        <time>2019-04-18T03:59:24Z</time>
      </trkpt>
      <trkpt lat="46.17133" lon="5.74884">
        <ele>481</ele>
        <time>2019-04-18T04:00:24Z</time>
      </trkpt>
      <trkpt lat="46.17117" lon="5.74918">
        <ele>482</ele>
        <time>2019-04-18T04:01:24Z</time>
      </trkpt>
      <trkpt lat="46.17091" lon="5.74956">
        <ele>480</ele>
        <time>2019-04-18T04:02:24Z</time>
      </trkpt>
      <trkpt lat="46.17054" lon="5.75002">
        <ele>480</ele>
        <time>2019-04-18T04:03:24Z</time>
      </trkpt>
      <trkpt lat="46.17043" lon="5.75018">
        <ele>481</ele>
        <time>2019-04-18T04:04:24Z</time>
      </trkpt>
      <trkpt lat="46.17027" lon="5.75046">
        <ele>481</ele>
        <time>2019-04-18T04:05:24Z</time>
      </trkpt>
      <trkpt lat="46.17006" lon="5.75099">
        <ele>478</ele>
        <time>2019-04-18T04:06:24Z</time>
      </trkpt>
      <trkpt lat="46.16995" lon="5.7513">
        <ele>475</ele>
        <time>2019-04-18T04:07:24Z</time>
      </trkpt>
      <trkpt lat="46.16983" lon="5.75173">
        <ele>471</ele>
        <time>2019-04-18T04:08:24Z</time>
      </trkpt>
      <trkpt lat="46.16959" lon="5.75275">
        <ele>465</ele>
        <time>2019-04-18T04:09:24Z</time>
      </trkpt>
      <trkpt lat="46.16951" lon="5.75301">
        <ele>465</ele>
        <time>2019-04-18T04:10:24Z</time>
      </trkpt>
      <trkpt lat="46.16932" lon="5.75346">
        <ele>464</ele>
        <time>2019-04-18T04:11:24Z</time>
      </trkpt>
      <trkpt lat="46.16899" lon="5.75408">
        <ele>461</ele>
        <time>2019-04-18T04:12:24Z</time>
      </trkpt>
      <trkpt lat="46.16885" lon="5.75443">
        <ele>461</ele>
        <time>2019-04-18T04:13:24Z</time>
      </trkpt>
      <trkpt lat="46.16868" lon="5.75496">
        <ele>460</ele>
        <time>2019-04-18T04:14:24Z</time>
      </trkpt>
      <trkpt lat="46.1683" lon="5.75646">
        <ele>450</ele>
        <time>2019-04-18T04:15:24Z</time>
      </trkpt>
      <trkpt lat="46.16799" lon="5.75753">
        <ele>442</ele>
        <time>2019-04-18T04:16:24Z</time>
      </trkpt>
      <trkpt lat="46.16778" lon="5.75806">
        <ele>439</ele>
        <time>2019-04-18T04:17:24Z</time>
      </trkpt>
      <trkpt lat="46.16733" lon="5.75904">
        <ele>436</ele>
        <time>2019-04-18T04:18:24Z</time>
      </trkpt>
      <trkpt lat="46.16707" lon="5.75962">
        <ele>436</ele>
        <time>2019-04-18T04:19:24Z</time>
      </trkpt>
      <trkpt lat="46.16688" lon="5.76001">
        <ele>435</ele>
        <time>2019-04-18T04:20:24Z</time>
      </trkpt>
      <trkpt lat="46.16656" lon="5.76057">
        <ele>435</ele>
        <time>2019-04-18T04:21:24Z</time>
      </trkpt>
      <trkpt lat="46.16605" lon="5.76123">
        <ele>435</ele>
        <time>2019-04-18T04:22:24Z</time>
      </trkpt>
      <trkpt lat="46.16531" lon="5.76204">
        <ele>439</ele>
        <time>2019-04-18T04:23:24Z</time>
      </trkpt>
      <trkpt lat="46.16494" lon="5.76248">
        <ele>438</ele>
        <time>2019-04-18T04:24:24Z</time>
      </trkpt>
      <trkpt lat="46.16471" lon="5.7628">
        <ele>448</ele>
        <time>2019-04-18T04:25:24Z</time>
      </trkpt>
      <trkpt lat="46.16457" lon="5.76304">
        <ele>453</ele>
        <time>2019-04-18T04:26:24Z</time>
      </trkpt>
      <trkpt lat="46.16435" lon="5.76348">
        <ele>456</ele>
        <time>2019-04-18T04:27:24Z</time>
      </trkpt>
      <trkpt lat="46.16427" lon="5.76368">
        <ele>455</ele>
        <time>2019-04-18T04:28:24Z</time>
      </trkpt>
      <trkpt lat="46.16406" lon="5.76432">
        <ele>453</ele>
        <time>2019-04-18T04:29:24Z</time>
      </trkpt>
      <trkpt lat="46.16393" lon="5.76495">
        <ele>453</ele>
        <time>2019-04-18T04:30:24Z</time>
      </trkpt>
      <trkpt lat="46.16388" lon="5.76528">
        <ele>453</ele>
        <time>2019-04-18T04:31:24Z</time>
      </trkpt>
      <trkpt lat="46.16381" lon="5.76601">
        <ele>453</ele>
        <time>2019-04-18T04:32:24Z</time>
      </trkpt>
      <trkpt lat="46.16374" lon="5.76651">
        <ele>453</ele>
        <time>2019-04-18T04:33:24Z</time>
      </trkpt>
      <trkpt lat="46.16365" lon="5.76688">
        <ele>454</ele>
        <time>2019-04-18T04:34:24Z</time>
      </trkpt>
      <trkpt lat="46.16349" lon="5.76745">
        <ele>452</ele>
        <time>2019-04-18T04:35:24Z</time>
      </trkpt>
      <trkpt lat="46.1632" lon="5.76812">
        <ele>454</ele>
        <time>2019-04-18T04:36:24Z</time>
      </trkpt>
      <trkpt lat="46.16302" lon="5.76863">
        <ele>456</ele>
        <time>2019-04-18T04:37:24Z</time>
      </trkpt>
      <trkpt lat="46.16292" lon="5.76904">
        <ele>454</ele>
        <time>2019-04-18T04:38:24Z</time>
      </trkpt>
      <trkpt lat="46.1628" lon="5.76982">
        <ele>450</ele>
        <time>2019-04-18T04:39:24Z</time>
      </trkpt>
      <trkpt lat="46.16271" lon="5.77024">
        <ele>450</ele>
        <time>2019-04-18T04:40:24Z</time>
      </trkpt>
      <trkpt lat="46.16258" lon="5.77062">
        <ele>450</ele>
        <time>2019-04-18T04:41:24Z</time>
      </trkpt>
      <trkpt lat="46.16229" lon="5.77128">
        <ele>453</ele>
        <time>2019-04-18T04:42:24Z</time>
      </trkpt>
      <trkpt lat="46.16222" lon="5.77149">
        <ele>455</ele>
        <time>2019-04-18T04:43:24Z</time>
      </trkpt>
      <trkpt lat="46.16218" lon="5.77162">
        <ele>455</ele>
        <time>2019-04-18T04:44:24Z</time>
      </trkpt>
      <trkpt lat="46.16213" lon="5.77192">
        <ele>459</ele>
        <time>2019-04-18T04:45:24Z</time>
      </trkpt>
      <trkpt lat="46.16213" lon="5.77225">
        <ele>461</ele>
        <time>2019-04-18T04:46:24Z</time>
      </trkpt>
      <trkpt lat="46.16215" lon="5.77256">
        <ele>462</ele>
        <time>2019-04-18T04:47:24Z</time>
      </trkpt>
      <trkpt lat="46.1624" lon="5.77499">
        <ele>459</ele>
        <time>2019-04-18T04:48:24Z</time>
      </trkpt>
      <trkpt lat="46.16241" lon="5.77521">
        <ele>458</ele>
        <time>2019-04-18T04:49:24Z</time>
      </trkpt>
      <trkpt lat="46.16227" lon="5.77631">
        <ele>473</ele>
        <time>2019-04-18T04:50:24Z</time>
      </trkpt>
      <trkpt lat="46.16228" lon="5.77663">
        <ele>474</ele>
        <time>2019-04-18T04:51:24Z</time>
      </trkpt>
      <trkpt lat="46.16234" lon="5.77696">
        <ele>469</ele>
        <time>2019-04-18T04:52:24Z</time>
      </trkpt>
      <trkpt lat="46.16236" lon="5.77725">
        <ele>467</ele>
        <time>2019-04-18T04:53:24Z</time>
      </trkpt>
      <trkpt lat="46.16234" lon="5.77744">
        <ele>468</ele>
        <time>2019-04-18T04:54:24Z</time>
      </trkpt>
      <trkpt lat="46.16226" lon="5.77773">
        <ele>467</ele>
        <time>2019-04-18T04:55:24Z</time>
      </trkpt>
      <trkpt lat="46.16209" lon="5.77815">
        <ele>466</ele>
        <time>2019-04-18T04:56:24Z</time>
      </trkpt>
      <trkpt lat="46.16196" lon="5.77838">
        <ele>467</ele>
        <time>2019-04-18T04:57:24Z</time>
      </trkpt>
      <trkpt lat="46.16172" lon="5.77861">
        <ele>472</ele>
        <time>2019-04-18T04:58:24Z</time>
      </trkpt>
      <trkpt lat="46.16157" lon="5.77869">
        <ele>475</ele>
        <time>2019-04-18T04:59:24Z</time>
      </trkpt>
      <trkpt lat="46.1613" lon="5.7788">
        <ele>482</ele>
        <time>2019-04-18T05:00:24Z</time>
      </trkpt>
      <trkpt lat="46.16112" lon="5.77892">
        <ele>485</ele>
        <time>2019-04-18T05:01:24Z</time>
      </trkpt>
      <trkpt lat="46.16095" lon="5.77911">
        <ele>485</ele>
        <time>2019-04-18T05:02:24Z</time>
      </trkpt>
      <trkpt lat="46.16077" lon="5.77939">
        <ele>485</ele>
        <time>2019-04-18T05:03:24Z</time>
      </trkpt>
      <trkpt lat="46.16042" lon="5.78017">
        <ele>487</ele>
        <time>2019-04-18T05:04:24Z</time>
      </trkpt>
      <trkpt lat="46.15992" lon="5.78138">
        <ele>486</ele>
        <time>2019-04-18T05:05:24Z</time>
      </trkpt>
      <trkpt lat="46.15978" lon="5.78169">
        <ele>485</ele>
        <time>2019-04-18T05:06:24Z</time>
      </trkpt>
      <trkpt lat="46.15894" lon="5.78313">
        <ele>490</ele>
        <time>2019-04-18T05:07:24Z</time>
      </trkpt>
      <trkpt lat="46.15843" lon="5.78419">
        <ele>487</ele>
        <time>2019-04-18T05:08:24Z</time>
      </trkpt>
      <trkpt lat="46.15832" lon="5.78439">
        <ele>488</ele>
        <time>2019-04-18T05:09:24Z</time>
      </trkpt>
      <trkpt lat="46.15812" lon="5.78468">
        <ele>488</ele>
        <time>2019-04-18T05:10:24Z</time>
      </trkpt>
      <trkpt lat="46.15802" lon="5.78481">
        <ele>488</ele>
        <time>2019-04-18T05:11:24Z</time>
      </trkpt>
      <trkpt lat="46.1576" lon="5.78519">
        <ele>492</ele>
        <time>2019-04-18T05:12:24Z</time>
      </trkpt>
      <trkpt lat="46.1571" lon="5.7856">
        <ele>495</ele>
        <time>2019-04-18T05:13:24Z</time>
      </trkpt>
      <trkpt lat="46.15688" lon="5.78583">
        <ele>495</ele>
        <time>2019-04-18T05:14:24Z</time>
      </trkpt>
      <trkpt lat="46.15668" lon="5.78611">
        <ele>495</ele>
        <time>2019-04-18T05:15:24Z</time>
      </trkpt>
      <trkpt lat="46.15641" lon="5.7866">
        <ele>494</ele>
        <time>2019-04-18T05:16:24Z</time>
      </trkpt>
      <trkpt lat="46.15534" lon="5.7888">
        <ele>490</ele>
        <time>2019-04-18T05:17:24Z</time>
      </trkpt>
      <trkpt lat="46.15521" lon="5.78901">
        <ele>491</ele>
        <time>2019-04-18T05:18:24Z</time>
      </trkpt>
      <trkpt lat="46.15506" lon="5.78921">
        <ele>494</ele>
        <time>2019-04-18T05:19:24Z</time>
      </trkpt>
      <trkpt lat="46.15488" lon="5.78939">
        <ele>495</ele>
        <time>2019-04-18T05:20:24Z</time>
      </trkpt>
      <trkpt lat="46.15478" lon="5.78947">
        <ele>495</ele>
        <time>2019-04-18T05:21:24Z</time>
      </trkpt>
      <trkpt lat="46.15451" lon="5.78963">
        <ele>496</ele>
        <time>2019-04-18T05:22:24Z</time>
      </trkpt>
      <trkpt lat="46.15419" lon="5.78974">
        <ele>499</ele>
        <time>2019-04-18T05:23:24Z</time>
      </trkpt>
      <trkpt lat="46.15333" lon="5.78993">
        <ele>504</ele>
        <time>2019-04-18T05:24:24Z</time>
      </trkpt>
      <trkpt lat="46.15263" lon="5.79025">
        <ele>508</ele>
        <time>2019-04-18T05:25:24Z</time>
      </trkpt>
      <trkpt lat="46.1523" lon="5.79047">
        <ele>509</ele>
        <time>2019-04-18T05:26:24Z</time>
      </trkpt>
      <trkpt lat="46.1506" lon="5.7918">
        <ele>512</ele>
        <time>2019-04-18T05:27:24Z</time>
      </trkpt>
      <trkpt lat="46.14844" lon="5.7937">
        <ele>515</ele>
        <time>2019-04-18T05:28:24Z</time>
      </trkpt>
      <trkpt lat="46.14824" lon="5.79385">
        <ele>517</ele>
        <time>2019-04-18T05:29:24Z</time>
      </trkpt>
      <trkpt lat="46.14786" lon="5.79403">
        <ele>518</ele>
        <time>2019-04-18T05:30:24Z</time>
      </trkpt>
      <trkpt lat="46.14787" lon="5.79409">
        <ele>517</ele>
        <time>2019-04-18T05:31:24Z</time>
      </trkpt>
      <trkpt lat="46.14785" lon="5.7942">
        <ele>516</ele>
        <time>2019-04-18T05:32:24Z</time>
      </trkpt>
      <trkpt lat="46.14782" lon="5.79425">
        <ele>515</ele>
        <time>2019-04-18T05:33:24Z</time>
      </trkpt>
      <trkpt lat="46.14525" lon="5.79644">
        <ele>524</ele>
        <time>2019-04-18T05:34:24Z</time>
      </trkpt>
      <trkpt lat="46.14436" lon="5.79723">
        <ele>531</ele>
        <time>2019-04-18T05:35:24Z</time>
      </trkpt>
      <trkpt lat="46.14478" lon="5.79741">
        <ele>536</ele>
        <time>2019-04-18T05:36:24Z</time>
      </trkpt>
      <trkpt lat="46.1449" lon="5.79753">
        <ele>538</ele>
        <time>2019-04-18T05:37:24Z</time>
      </trkpt>
      <trkpt lat="46.14497" lon="5.79773">
        <ele>541</ele>
        <time>2019-04-18T05:38:24Z</time>
      </trkpt>
      <trkpt lat="46.14498" lon="5.79782">
        <ele>542</ele>
        <time>2019-04-18T05:39:24Z</time>
      </trkpt>
      <trkpt lat="46.14497" lon="5.79789">
        <ele>542</ele>
        <time>2019-04-18T05:40:24Z</time>
      </trkpt>
      <trkpt lat="46.14476" lon="5.79818">
        <ele>543</ele>
        <time>2019-04-18T05:41:24Z</time>
      </trkpt>
      <trkpt lat="46.14476" lon="5.79835">
        <ele>544</ele>
        <time>2019-04-18T05:42:24Z</time>
      </trkpt>
      <trkpt lat="46.14479" lon="5.79845">
        <ele>544</ele>
        <time>2019-04-18T05:43:24Z</time>
      </trkpt>
      <trkpt lat="46.14486" lon="5.79854">
        <ele>545</ele>
        <time>2019-04-18T05:44:24Z</time>
      </trkpt>
      <trkpt lat="46.14499" lon="5.79863">
        <ele>546</ele>
        <time>2019-04-18T05:45:24Z</time>
      </trkpt>
      <trkpt lat="46.14516" lon="5.79884">
        <ele>548</ele>
        <time>2019-04-18T05:46:24Z</time>
      </trkpt>
      <trkpt lat="46.14512" lon="5.79922">
        <ele>546</ele>
        <time>2019-04-18T05:47:24Z</time>
      </trkpt>
      <trkpt lat="46.14512" lon="5.79946">
        <ele>545</ele>
        <time>2019-04-18T05:48:24Z</time>
      </trkpt>
      <trkpt lat="46.14509" lon="5.79956">
        <ele>544</ele>
        <time>2019-04-18T05:49:24Z</time>
      </trkpt>
      <trkpt lat="46.14501" lon="5.79973">
        <ele>542</ele>
        <time>2019-04-18T05:50:24Z</time>
      </trkpt>
      <trkpt lat="46.14494" lon="5.80006">
        <ele>541</ele>
        <time>2019-04-18T05:51:24Z</time>
      </trkpt>
      <trkpt lat="46.14486" lon="5.80014">
        <ele>540</ele>
        <time>2019-04-18T05:52:24Z</time>
      </trkpt>
      <trkpt lat="46.14484" lon="5.80042">
        <ele>538</ele>
        <time>2019-04-18T05:53:24Z</time>
      </trkpt>
      <trkpt lat="46.14472" lon="5.8009">
        <ele>536</ele>
        <time>2019-04-18T05:54:24Z</time>
      </trkpt>
      <trkpt lat="46.14467" lon="5.80102">
        <ele>535</ele>
        <time>2019-04-18T05:55:24Z</time>
      </trkpt>
      <trkpt lat="46.14451" lon="5.80135">
        <ele>534</ele>
        <time>2019-04-18T05:56:24Z</time>
      </trkpt>
      <trkpt lat="46.14429" lon="5.80167">
        <ele>533</ele>
        <time>2019-04-18T05:57:24Z</time>
      </trkpt>
      <trkpt lat="46.14399" lon="5.80205">
        <ele>531</ele>
        <time>2019-04-18T05:58:24Z</time>
      </trkpt>
      <trkpt lat="46.14373" lon="5.80229">
        <ele>531</ele>
        <time>2019-04-18T05:59:24Z</time>
      </trkpt>
      <trkpt lat="46.14338" lon="5.80251">
        <ele>531</ele>
        <time>2019-04-18T06:00:24Z</time>
      </trkpt>
      <trkpt lat="46.14106" lon="5.80356">
        <ele>517</ele>
        <time>2019-04-18T06:01:24Z</time>
      </trkpt>
      <trkpt lat="46.13761" lon="5.80416">
        <ele>508</ele>
        <time>2019-04-18T06:02:24Z</time>
      </trkpt>
      <trkpt lat="46.13675" lon="5.80452">
        <ele>500</ele>
        <time>2019-04-18T06:03:24Z</time>
      </trkpt>
      <trkpt lat="46.13653" lon="5.80458">
        <ele>498</ele>
        <time>2019-04-18T06:04:24Z</time>
      </trkpt>
      <trkpt lat="46.1364" lon="5.80459">
        <ele>497</ele>
        <time>2019-04-18T06:05:24Z</time>
      </trkpt>
      <trkpt lat="46.13625" lon="5.80456">
        <ele>496</ele>
        <time>2019-04-18T06:06:24Z</time>
      </trkpt>
      <trkpt lat="46.13609" lon="5.80446">
        <ele>496</ele>
        <time>2019-04-18T06:07:24Z</time>
      </trkpt>
      <trkpt lat="46.13596" lon="5.80433">
        <ele>496</ele>
        <time>2019-04-18T06:08:24Z</time>
      </trkpt>
      <trkpt lat="46.13585" lon="5.80415">
        <ele>497</ele>
        <time>2019-04-18T06:09:24Z</time>
      </trkpt>
      <trkpt lat="46.13579" lon="5.80401">
        <ele>498</ele>
        <time>2019-04-18T06:10:24Z</time>
      </trkpt>
      <trkpt lat="46.13573" lon="5.80375">
        <ele>498</ele>
        <time>2019-04-18T06:11:24Z</time>
      </trkpt>
      <trkpt lat="46.13568" lon="5.80315">
        <ele>501</ele>
        <time>2019-04-18T06:12:24Z</time>
      </trkpt>
      <trkpt lat="46.13561" lon="5.80268">
        <ele>505</ele>
        <time>2019-04-18T06:13:24Z</time>
      </trkpt>
      <trkpt lat="46.13554" lon="5.80252">
        <ele>506</ele>
        <time>2019-04-18T06:14:24Z</time>
      </trkpt>
      <trkpt lat="46.13545" lon="5.80241">
        <ele>507</ele>
        <time>2019-04-18T06:15:24Z</time>
      </trkpt>
      <trkpt lat="46.13538" lon="5.80238">
        <ele>507</ele>
        <time>2019-04-18T06:16:24Z</time>
      </trkpt>
      <trkpt lat="46.13526" lon="5.8024">
        <ele>507</ele>
        <time>2019-04-18T06:17:24Z</time>
      </trkpt>
      <trkpt lat="46.1352" lon="5.80243">
        <ele>508</ele>
        <time>2019-04-18T06:18:24Z</time>
      </trkpt>
      <trkpt lat="46.13512" lon="5.80254">
        <ele>507</ele>
        <time>2019-04-18T06:19:24Z</time>
      </trkpt>
      <trkpt lat="46.13507" lon="5.80267">
        <ele>506</ele>
        <time>2019-04-18T06:20:24Z</time>
      </trkpt>
      <trkpt lat="46.13504" lon="5.80289">
        <ele>504</ele>
        <time>2019-04-18T06:21:24Z</time>
      </trkpt>
      <trkpt lat="46.13506" lon="5.8035">
        <ele>499</ele>
        <time>2019-04-18T06:22:24Z</time>
      </trkpt>
      <trkpt lat="46.13503" lon="5.80378">
        <ele>498</ele>
        <time>2019-04-18T06:23:24Z</time>
      </trkpt>
      <trkpt lat="46.13474" lon="5.80519">
        <ele>489</ele>
        <time>2019-04-18T06:24:24Z</time>
      </trkpt>
      <trkpt lat="46.13465" lon="5.80546">
        <ele>486</ele>
        <time>2019-04-18T06:25:24Z</time>
      </trkpt>
      <trkpt lat="46.13457" lon="5.8056">
        <ele>484</ele>
        <time>2019-04-18T06:26:24Z</time>
      </trkpt>
      <trkpt lat="46.13439" lon="5.80578">
        <ele>481</ele>
        <time>2019-04-18T06:27:24Z</time>
      </trkpt>
      <trkpt lat="46.13417" lon="5.80591">
        <ele>479</ele>
        <time>2019-04-18T06:28:24Z</time>
      </trkpt>
      <trkpt lat="46.13338" lon="5.80625">
        <ele>476</ele>
        <time>2019-04-18T06:29:24Z</time>
      </trkpt>
      <trkpt lat="46.13296" lon="5.80646">
        <ele>476</ele>
        <time>2019-04-18T06:30:24Z</time>
      </trkpt>
      <trkpt lat="46.1326" lon="5.80665">
        <ele>477</ele>
        <time>2019-04-18T06:31:24Z</time>
      </trkpt>
      <trkpt lat="46.13234" lon="5.80683">
        <ele>477</ele>
        <time>2019-04-18T06:32:24Z</time>
      </trkpt>
      <trkpt lat="46.13197" lon="5.80722">
        <ele>477</ele>
        <time>2019-04-18T06:33:24Z</time>
      </trkpt>
      <trkpt lat="46.13183" lon="5.80742">
        <ele>476</ele>
        <time>2019-04-18T06:34:24Z</time>
      </trkpt>
      <trkpt lat="46.13112" lon="5.80861">
        <ele>467</ele>
        <time>2019-04-18T06:35:24Z</time>
      </trkpt>
      <trkpt lat="46.13089" lon="5.80904">
        <ele>466</ele>
        <time>2019-04-18T06:36:24Z</time>
      </trkpt>
      <trkpt lat="46.13066" lon="5.8094">
        <ele>463</ele>
        <time>2019-04-18T06:37:24Z</time>
      </trkpt>
      <trkpt lat="46.1304" lon="5.80976">
        <ele>459</ele>
        <time>2019-04-18T06:38:24Z</time>
      </trkpt>
      <trkpt lat="46.1302" lon="5.80999">
        <ele>457</ele>
        <time>2019-04-18T06:39:24Z</time>
      </trkpt>
      <trkpt lat="46.12979" lon="5.81038">
        <ele>456</ele>
        <time>2019-04-18T06:40:24Z</time>
      </trkpt>
      <trkpt lat="46.1294" lon="5.81064">
        <ele>455</ele>
        <time>2019-04-18T06:41:24Z</time>
      </trkpt>
      <trkpt lat="46.12896" lon="5.81089">
        <ele>454</ele>
        <time>2019-04-18T06:42:24Z</time>
      </trkpt>
      <trkpt lat="46.12875" lon="5.81105">
        <ele>453</ele>
        <time>2019-04-18T06:43:24Z</time>
      </trkpt>
      <trkpt lat="46.12854" lon="5.81127">
        <ele>452</ele>
        <time>2019-04-18T06:44:24Z</time>
      </trkpt>
      <trkpt lat="46.12829" lon="5.81159">
        <ele>450</ele>
        <time>2019-04-18T06:45:24Z</time>
      </trkpt>
      <trkpt lat="46.12826" lon="5.81156">
        <ele>450</ele>
        <time>2019-04-18T06:46:24Z</time>
      </trkpt>
      <trkpt lat="46.12818" lon="5.81154">
        <ele>450</ele>
        <time>2019-04-18T06:47:24Z</time>
      </trkpt>
      <trkpt lat="46.12811" lon="5.81157">
        <ele>450</ele>
        <time>2019-04-18T06:48:24Z</time>
      </trkpt>
      <trkpt lat="46.12808" lon="5.81161">
        <ele>450</ele>
        <time>2019-04-18T06:49:24Z</time>
      </trkpt>
      <trkpt lat="46.12805" lon="5.81171">
        <ele>450</ele>
        <time>2019-04-18T06:50:24Z</time>
      </trkpt>
      <trkpt lat="46.12806" lon="5.81181">
        <ele>449</ele>
        <time>2019-04-18T06:51:24Z</time>
      </trkpt>
      <trkpt lat="46.12812" lon="5.81192">
        <ele>449</ele>
        <time>2019-04-18T06:52:24Z</time>
      </trkpt>
      <trkpt lat="46.12766" lon="5.81276">
        <ele>446</ele>
        <time>2019-04-18T06:53:24Z</time>
      </trkpt>
      <trkpt lat="46.12675" lon="5.81431">
        <ele>443</ele>
        <time>2019-04-18T06:54:24Z</time>
      </trkpt>
      <trkpt lat="46.12631" lon="5.81512">
        <ele>442</ele>
        <time>2019-04-18T06:55:24Z</time>
      </trkpt>
      <trkpt lat="46.12615" lon="5.81555">
        <ele>440</ele>
        <time>2019-04-18T06:56:24Z</time>
      </trkpt>
      <trkpt lat="46.12581" lon="5.8168">
        <ele>434</ele>
        <time>2019-04-18T06:57:24Z</time>
      </trkpt>
      <trkpt lat="46.12574" lon="5.81698">
        <ele>434</ele>
        <time>2019-04-18T06:58:24Z</time>
      </trkpt>
      <trkpt lat="46.12563" lon="5.81723">
        <ele>433</ele>
        <time>2019-04-18T06:59:24Z</time>
      </trkpt>
      <trkpt lat="46.12547" lon="5.81749">
        <ele>432</ele>
        <time>2019-04-18T07:00:24Z</time>
      </trkpt>
      <trkpt lat="46.12521" lon="5.81781">
        <ele>431</ele>
        <time>2019-04-18T07:01:24Z</time>
      </trkpt>
      <trkpt lat="46.12492" lon="5.81804">
        <ele>430</ele>
        <time>2019-04-18T07:02:24Z</time>
      </trkpt>
      <trkpt lat="46.1245" lon="5.81824">
        <ele>430</ele>
        <time>2019-04-18T07:03:24Z</time>
      </trkpt>
      <trkpt lat="46.1239" lon="5.81849">
        <ele>429</ele>
        <time>2019-04-18T07:04:24Z</time>
      </trkpt>
      <trkpt lat="46.12325" lon="5.81871">
        <ele>427</ele>
        <time>2019-04-18T07:05:24Z</time>
      </trkpt>
      <trkpt lat="46.12245" lon="5.81892">
        <ele>423</ele>
        <time>2019-04-18T07:06:24Z</time>
      </trkpt>
      <trkpt lat="46.12228" lon="5.81894">
        <ele>423</ele>
        <time>2019-04-18T07:07:24Z</time>
      </trkpt>
      <trkpt lat="46.12188" lon="5.81889">
        <ele>423</ele>
        <time>2019-04-18T07:08:24Z</time>
      </trkpt>
      <trkpt lat="46.12166" lon="5.8189">
        <ele>423</ele>
        <time>2019-04-18T07:09:24Z</time>
      </trkpt>
      <trkpt lat="46.12149" lon="5.81896">
        <ele>424</ele>
        <time>2019-04-18T07:10:24Z</time>
      </trkpt>
      <trkpt lat="46.12116" lon="5.81921">
        <ele>423</ele>
        <time>2019-04-18T07:11:24Z</time>
      </trkpt>
      <trkpt lat="46.12097" lon="5.8194">
        <ele>421</ele>
        <time>2019-04-18T07:12:24Z</time>
      </trkpt>
      <trkpt lat="46.12079" lon="5.81965">
        <ele>417</ele>
        <time>2019-04-18T07:13:24Z</time>
      </trkpt>
      <trkpt lat="46.12062" lon="5.81995">
        <ele>414</ele>
        <time>2019-04-18T07:14:24Z</time>
      </trkpt>
      <trkpt lat="46.12043" lon="5.82041">
        <ele>409</ele>
        <time>2019-04-18T07:15:24Z</time>
      </trkpt>
      <trkpt lat="46.12036" lon="5.82063">
        <ele>407</ele>
        <time>2019-04-18T07:16:24Z</time>
      </trkpt>
      <trkpt lat="46.12023" lon="5.82111">
        <ele>406</ele>
        <time>2019-04-18T07:17:24Z</time>
      </trkpt>
      <trkpt lat="46.12017" lon="5.82141">
        <ele>406</ele>
        <time>2019-04-18T07:18:24Z</time>
      </trkpt>
      <trkpt lat="46.12004" lon="5.82253">
        <ele>406</ele>
        <time>2019-04-18T07:19:24Z</time>
      </trkpt>
      <trkpt lat="46.11999" lon="5.82274">
        <ele>405</ele>
        <time>2019-04-18T07:20:24Z</time>
      </trkpt>
      <trkpt lat="46.11988" lon="5.82291">
        <ele>403</ele>
        <time>2019-04-18T07:21:24Z</time>
      </trkpt>
      <trkpt lat="46.11972" lon="5.82302">
        <ele>401</ele>
        <time>2019-04-18T07:22:24Z</time>
      </trkpt>
      <trkpt lat="46.11952" lon="5.82308">
        <ele>400</ele>
        <time>2019-04-18T07:23:24Z</time>
      </trkpt>
      <trkpt lat="46.11864" lon="5.82324">
        <ele>396</ele>
        <time>2019-04-18T07:24:24Z</time>
      </trkpt>
      <trkpt lat="46.11844" lon="5.82325">
        <ele>396</ele>
        <time>2019-04-18T07:25:24Z</time>
      </trkpt>
      <trkpt lat="46.11833" lon="5.82321">
        <ele>396</ele>
        <time>2019-04-18T07:26:24Z</time>
      </trkpt>
      <trkpt lat="46.11824" lon="5.82312">
        <ele>396</ele>
        <time>2019-04-18T07:27:24Z</time>
      </trkpt>
      <trkpt lat="46.11803" lon="5.82283">
        <ele>399</ele>
        <time>2019-04-18T07:28:24Z</time>
      </trkpt>
      <trkpt lat="46.11788" lon="5.82275">
        <ele>399</ele>
        <time>2019-04-18T07:29:24Z</time>
      </trkpt>
      <trkpt lat="46.1175" lon="5.82269">
        <ele>397</ele>
        <time>2019-04-18T07:30:24Z</time>
      </trkpt>
      <trkpt lat="46.11728" lon="5.82264">
        <ele>397</ele>
        <time>2019-04-18T07:31:24Z</time>
      </trkpt>
      <trkpt lat="46.11638" lon="5.82235">
        <ele>397</ele>
        <time>2019-04-18T07:32:24Z</time>
      </trkpt>
      <trkpt lat="46.11611" lon="5.82234">
        <ele>396</ele>
        <time>2019-04-18T07:33:24Z</time>
      </trkpt>
      <trkpt lat="46.11588" lon="5.82238">
        <ele>394</ele>
        <time>2019-04-18T07:34:24Z</time>
      </trkpt>
      <trkpt lat="46.11559" lon="5.82247">
        <ele>395</ele>
        <time>2019-04-18T07:35:24Z</time>
      </trkpt>
      <trkpt lat="46.11534" lon="5.82262">
        <ele>394</ele>
        <time>2019-04-18T07:36:24Z</time>
      </trkpt>
      <trkpt lat="46.11508" lon="5.82283">
        <ele>392</ele>
        <time>2019-04-18T07:37:24Z</time>
      </trkpt>
      <trkpt lat="46.11476" lon="5.82315">
        <ele>390</ele>
        <time>2019-04-18T07:38:24Z</time>
      </trkpt>
      <trkpt lat="46.11461" lon="5.82334">
        <ele>388</ele>
        <time>2019-04-18T07:39:24Z</time>
      </trkpt>
      <trkpt lat="46.11432" lon="5.82378">
        <ele>386</ele>
        <time>2019-04-18T07:40:24Z</time>
      </trkpt>
      <trkpt lat="46.11386" lon="5.8246">
        <ele>382</ele>
        <time>2019-04-18T07:41:24Z</time>
      </trkpt>
      <trkpt lat="46.11358" lon="5.82499">
        <ele>381</ele>
        <time>2019-04-18T07:42:24Z</time>
      </trkpt>
      <trkpt lat="46.11313" lon="5.82537">
        <ele>380</ele>
        <time>2019-04-18T07:43:24Z</time>
      </trkpt>
      <trkpt lat="46.11291" lon="5.82561">
        <ele>379</ele>
        <time>2019-04-18T07:44:24Z</time>
      </trkpt>
      <trkpt lat="46.1127" lon="5.82591">
        <ele>377</ele>
        <time>2019-04-18T07:45:24Z</time>
      </trkpt>
      <trkpt lat="46.1125" lon="5.82635">
        <ele>374</ele>
        <time>2019-04-18T07:46:24Z</time>
      </trkpt>
      <trkpt lat="46.11241" lon="5.82651">
        <ele>373</ele>
        <time>2019-04-18T07:47:24Z</time>
      </trkpt>
      <trkpt lat="46.11178" lon="5.82723">
        <ele>370</ele>
        <time>2019-04-18T07:48:24Z</time>
      </trkpt>
      <trkpt lat="46.11172" lon="5.82719">
        <ele>370</ele>
        <time>2019-04-18T07:49:24Z</time>
      </trkpt>
      <trkpt lat="46.11169" lon="5.82721">
        <ele>370</ele>
        <time>2019-04-18T07:50:24Z</time>
      </trkpt>
      <trkpt lat="46.11167" lon="5.82726">
        <ele>369</ele>
        <time>2019-04-18T07:51:24Z</time>
      </trkpt>
      <trkpt lat="46.11169" lon="5.82733">
        <ele>369</ele>
        <time>2019-04-18T07:52:24Z</time>
      </trkpt>
      <trkpt lat="46.11162" lon="5.82744">
        <ele>368</ele>
        <time>2019-04-18T07:53:24Z</time>
      </trkpt>
      <trkpt lat="46.11151" lon="5.82761">
        <ele>368</ele>
        <time>2019-04-18T07:54:24Z</time>
      </trkpt>
      <trkpt lat="46.11135" lon="5.82776">
        <ele>368</ele>
        <time>2019-04-18T07:55:24Z</time>
      </trkpt>
      <trkpt lat="46.11079" lon="5.82821">
        <ele>364</ele>
        <time>2019-04-18T07:56:24Z</time>
      </trkpt>
      <trkpt lat="46.11067" lon="5.82827">
        <ele>363</ele>
        <time>2019-04-18T07:57:24Z</time>
      </trkpt>
      <trkpt lat="46.11052" lon="5.82832">
        <ele>362</ele>
        <time>2019-04-18T07:58:24Z</time>
      </trkpt>
      <trkpt lat="46.11031" lon="5.82829">
        <ele>361</ele>
        <time>2019-04-18T07:59:24Z</time>
      </trkpt>
      <trkpt lat="46.11003" lon="5.82814">
        <ele>360</ele>
        <time>2019-04-18T08:00:24Z</time>
      </trkpt>
      <trkpt lat="46.11001" lon="5.8282">
        <ele>360</ele>
        <time>2019-04-18T08:01:24Z</time>
      </trkpt>
      <trkpt lat="46.10978" lon="5.8281">
        <ele>359</ele>
        <time>2019-04-18T08:02:24Z</time>
      </trkpt>
      <trkpt lat="46.10963" lon="5.8281">
        <ele>357</ele>
        <time>2019-04-18T08:03:24Z</time>
      </trkpt>
      <trkpt lat="46.10959" lon="5.82813">
        <ele>357</ele>
        <time>2019-04-18T08:04:24Z</time>
      </trkpt>
      <trkpt lat="46.10956" lon="5.82807">
        <ele>357</ele>
        <time>2019-04-18T08:05:24Z</time>
      </trkpt>
      <trkpt lat="46.1086" lon="5.82904">
        <ele>347</ele>
        <time>2019-04-18T08:06:24Z</time>
      </trkpt>
      <trkpt lat="46.10849" lon="5.8292">
        <ele>346</ele>
        <time>2019-04-18T08:07:24Z</time>
      </trkpt>
      <trkpt lat="46.10845" lon="5.82931">
        <ele>345</ele>
        <time>2019-04-18T08:08:24Z</time>
      </trkpt>
      <trkpt lat="46.10841" lon="5.82951">
        <ele>344</ele>
        <time>2019-04-18T08:09:24Z</time>
      </trkpt>
      <trkpt lat="46.10826" lon="5.83057">
        <ele>345</ele>
        <time>2019-04-18T08:10:24Z</time>
      </trkpt>
      <trkpt lat="46.10818" lon="5.83101">
        <ele>349</ele>
        <time>2019-04-18T08:11:24Z</time>
      </trkpt>
      <trkpt lat="46.10812" lon="5.83119">
        <ele>352</ele>
        <time>2019-04-18T08:12:24Z</time>
      </trkpt>
      <trkpt lat="46.10806" lon="5.83131">
        <ele>353</ele>
        <time>2019-04-18T08:13:24Z</time>
      </trkpt>
      <trkpt lat="46.10807" lon="5.83142">
        <ele>355</ele>
        <time>2019-04-18T08:14:24Z</time>
      </trkpt>
      <trkpt lat="46.10794" lon="5.83183">
        <ele>359</ele>
        <time>2019-04-18T08:15:24Z</time>
      </trkpt>
      <trkpt lat="46.1079" lon="5.83193">
        <ele>360</ele>
        <time>2019-04-18T08:16:24Z</time>
      </trkpt>
      <trkpt lat="46.1076" lon="5.83239">
        <ele>359</ele>
        <time>2019-04-18T08:17:24Z</time>
      </trkpt>
      <trkpt lat="46.10752" lon="5.83255">
        <ele>359</ele>
        <time>2019-04-18T08:18:24Z</time>
      </trkpt>
      <trkpt lat="46.10731" lon="5.83312">
        <ele>365</ele>
        <time>2019-04-18T08:19:24Z</time>
      </trkpt>
      <trkpt lat="46.10705" lon="5.8339">
        <ele>372</ele>
        <time>2019-04-18T08:20:24Z</time>
      </trkpt>
      <trkpt lat="46.10659" lon="5.83491">
        <ele>376</ele>
        <time>2019-04-18T08:21:24Z</time>
      </trkpt>
      <trkpt lat="46.10637" lon="5.83512">
        <ele>377</ele>
        <time>2019-04-18T08:22:24Z</time>
      </trkpt>
      <trkpt lat="46.10621" lon="5.83533">
        <ele>379</ele>
        <time>2019-04-18T08:23:24Z</time>
      </trkpt>
      <trkpt lat="46.10581" lon="5.83594">
        <ele>387</ele>
        <time>2019-04-18T08:24:24Z</time>
      </trkpt>
      <trkpt lat="46.1057" lon="5.83615">
        <ele>388</ele>
        <time>2019-04-18T08:25:24Z</time>
      </trkpt>
      <trkpt lat="46.10542" lon="5.83656">
        <ele>387</ele>
        <time>2019-04-18T08:26:24Z</time>
      </trkpt>
      <trkpt lat="46.10535" lon="5.83673">
        <ele>387</ele>
        <time>2019-04-18T08:27:24Z</time>
      </trkpt>
      <trkpt lat="46.1052" lon="5.83747">
        <ele>392</ele>
        <time>2019-04-18T08:28:24Z</time>
      </trkpt>
      <trkpt lat="46.10522" lon="5.8381">
        <ele>400</ele>
        <time>2019-04-18T08:29:24Z</time>
      </trkpt>
      <trkpt lat="46.10521" lon="5.83834">
        <ele>402</ele>
        <time>2019-04-18T08:30:24Z</time>
      </trkpt>
      <trkpt lat="46.10518" lon="5.83859">
        <ele>405</ele>
        <time>2019-04-18T08:31:24Z</time>
      </trkpt>
      <trkpt lat="46.10512" lon="5.83882">
        <ele>406</ele>
        <time>2019-04-18T08:32:24Z</time>
      </trkpt>
      <trkpt lat="46.10502" lon="5.83904">
        <ele>407</ele>
        <time>2019-04-18T08:33:24Z</time>
      </trkpt>
      <trkpt lat="46.10482" lon="5.83938">
        <ele>403</ele>
        <time>2019-04-18T08:34:24Z</time>
      </trkpt>
      <trkpt lat="46.10477" lon="5.83952">
        <ele>403</ele>
        <time>2019-04-18T08:35:24Z</time>
      </trkpt>
      <trkpt lat="46.10473" lon="5.83972">
        <ele>403</ele>
        <time>2019-04-18T08:36:24Z</time>
      </trkpt>
      <trkpt lat="46.10472" lon="5.84005">
        <ele>405</ele>
        <time>2019-04-18T08:37:24Z</time>
      </trkpt>
      <trkpt lat="46.10474" lon="5.84036">
        <ele>409</ele>
        <time>2019-04-18T08:38:24Z</time>
      </trkpt>
      <trkpt lat="46.10488" lon="5.84172">
        <ele>425</ele>
        <time>2019-04-18T08:39:24Z</time>
      </trkpt>
      <trkpt lat="46.10491" lon="5.84186">
        <ele>427</ele>
        <time>2019-04-18T08:40:24Z</time>
      </trkpt>
      <trkpt lat="46.10499" lon="5.84202">
        <ele>429</ele>
        <time>2019-04-18T08:41:24Z</time>
      </trkpt>
      <trkpt lat="46.10495" lon="5.84221">
        <ele>430</ele>
        <time>2019-04-18T08:42:24Z</time>
      </trkpt>
      <trkpt lat="46.10491" lon="5.84233">
        <ele>430</ele>
        <time>2019-04-18T08:43:24Z</time>
      </trkpt>
      <trkpt lat="46.10455" lon="5.84301">
        <ele>434</ele>
        <time>2019-04-18T08:44:24Z</time>
      </trkpt>
      <trkpt lat="46.10431" lon="5.84355">
        <ele>437</ele>
        <time>2019-04-18T08:45:24Z</time>
      </trkpt>
      <trkpt lat="46.10413" lon="5.84424">
        <ele>445</ele>
        <time>2019-04-18T08:46:24Z</time>
      </trkpt>
      <trkpt lat="46.10407" lon="5.84433">
        <ele>446</ele>
        <time>2019-04-18T08:47:24Z</time>
      </trkpt>
      <trkpt lat="46.10393" lon="5.84442">
        <ele>447</ele>
        <time>2019-04-18T08:48:24Z</time>
      </trkpt>
      <trkpt lat="46.10383" lon="5.84445">
        <ele>447</ele>
        <time>2019-04-18T08:49:24Z</time>
      </trkpt>
      <trkpt lat="46.10364" lon="5.84446">
        <ele>447</ele>
        <time>2019-04-18T08:50:24Z</time>
      </trkpt>
      <trkpt lat="46.10345" lon="5.84451">
        <ele>448</ele>
        <time>2019-04-18T08:51:24Z</time>
      </trkpt>
      <trkpt lat="46.10307" lon="5.84468">
        <ele>448</ele>
        <time>2019-04-18T08:52:24Z</time>
      </trkpt>
      <trkpt lat="46.10285" lon="5.84482">
        <ele>448</ele>
        <time>2019-04-18T08:53:24Z</time>
      </trkpt>
      <trkpt lat="46.10263" lon="5.84499">
        <ele>449</ele>
        <time>2019-04-18T08:54:24Z</time>
      </trkpt>
      <trkpt lat="46.10231" lon="5.8453">
        <ele>449</ele>
        <time>2019-04-18T08:55:24Z</time>
      </trkpt>
      <trkpt lat="46.10197" lon="5.84566">
        <ele>450</ele>
        <time>2019-04-18T08:56:24Z</time>
      </trkpt>
      <trkpt lat="46.1019" lon="5.84579">
        <ele>451</ele>
        <time>2019-04-18T08:57:24Z</time>
      </trkpt>
      <trkpt lat="46.10187" lon="5.84597">
        <ele>452</ele>
        <time>2019-04-18T08:58:24Z</time>
      </trkpt>
      <trkpt lat="46.10184" lon="5.84622">
        <ele>454</ele>
        <time>2019-04-18T08:59:24Z</time>
      </trkpt>
      <trkpt lat="46.10183" lon="5.8464">
        <ele>456</ele>
        <time>2019-04-18T09:00:24Z</time>
      </trkpt>
      <trkpt lat="46.10189" lon="5.84677">
        <ele>461</ele>
        <time>2019-04-18T09:01:24Z</time>
      </trkpt>
      <trkpt lat="46.10189" lon="5.84691">
        <ele>464</ele>
        <time>2019-04-18T09:02:24Z</time>
      </trkpt>
      <trkpt lat="46.10188" lon="5.847">
        <ele>466</ele>
        <time>2019-04-18T09:03:24Z</time>
      </trkpt>
      <trkpt lat="46.10183" lon="5.84711">
        <ele>468</ele>
        <time>2019-04-18T09:04:24Z</time>
      </trkpt>
      <trkpt lat="46.10173" lon="5.84723">
        <ele>469</ele>
        <time>2019-04-18T09:05:24Z</time>
      </trkpt>
      <trkpt lat="46.10137" lon="5.84743">
        <ele>471</ele>
        <time>2019-04-18T09:06:24Z</time>
      </trkpt>
      <trkpt lat="46.1008" lon="5.84784">
        <ele>473</ele>
        <time>2019-04-18T09:07:24Z</time>
      </trkpt>
      <trkpt lat="46.10074" lon="5.84791">
        <ele>474</ele>
        <time>2019-04-18T09:08:24Z</time>
      </trkpt>
      <trkpt lat="46.10059" lon="5.84816">
        <ele>477</ele>
        <time>2019-04-18T09:09:24Z</time>
      </trkpt>
      <trkpt lat="46.10044" lon="5.84829">
        <ele>478</ele>
        <time>2019-04-18T09:10:24Z</time>
      </trkpt>
      <trkpt lat="46.10036" lon="5.84833">
        <ele>478</ele>
        <time>2019-04-18T09:11:24Z</time>
      </trkpt>
      <trkpt lat="46.10024" lon="5.84834">
        <ele>478</ele>
        <time>2019-04-18T09:12:24Z</time>
      </trkpt>
      <trkpt lat="46.10009" lon="5.84832">
        <ele>477</ele>
        <time>2019-04-18T09:13:24Z</time>
      </trkpt>
      <trkpt lat="46.09971" lon="5.84821">
        <ele>474</ele>
        <time>2019-04-18T09:14:24Z</time>
      </trkpt>
      <trkpt lat="46.09954" lon="5.84824">
        <ele>473</ele>
        <time>2019-04-18T09:15:24Z</time>
      </trkpt>
      <trkpt lat="46.0994" lon="5.84831">
        <ele>474</ele>
        <time>2019-04-18T09:16:24Z</time>
      </trkpt>
      <trkpt lat="46.09907" lon="5.84867">
        <ele>476</ele>
        <time>2019-04-18T09:17:24Z</time>
      </trkpt>
      <trkpt lat="46.09878" lon="5.84902">
        <ele>477</ele>
        <time>2019-04-18T09:18:24Z</time>
      </trkpt>
      <trkpt lat="46.09854" lon="5.84947">
        <ele>477</ele>
        <time>2019-04-18T09:19:24Z</time>
      </trkpt>
      <trkpt lat="46.09815" lon="5.85011">
        <ele>475</ele>
        <time>2019-04-18T09:20:24Z</time>
      </trkpt>
      <trkpt lat="46.0981" lon="5.85027">
        <ele>475</ele>
        <time>2019-04-18T09:21:24Z</time>
      </trkpt>
      <trkpt lat="46.09809" lon="5.85035">
        <ele>475</ele>
        <time>2019-04-18T09:22:24Z</time>
      </trkpt>
      <trkpt lat="46.0981" lon="5.85044">
        <ele>476</ele>
        <time>2019-04-18T09:23:24Z</time>
      </trkpt>
      <trkpt lat="46.09825" lon="5.85073">
        <ele>479</ele>
        <time>2019-04-18T09:24:24Z</time>
      </trkpt>
      <trkpt lat="46.09828" lon="5.85097">
        <ele>482</ele>
        <time>2019-04-18T09:25:24Z</time>
      </trkpt>
      <trkpt lat="46.09825" lon="5.85107">
        <ele>483</ele>
        <time>2019-04-18T09:26:24Z</time>
      </trkpt>
      <trkpt lat="46.09818" lon="5.85116">
        <ele>483</ele>
        <time>2019-04-18T09:27:24Z</time>
      </trkpt>
      <trkpt lat="46.09753" lon="5.8518">
        <ele>480</ele>
        <time>2019-04-18T09:28:24Z</time>
      </trkpt>
      <trkpt lat="46.09699" lon="5.85266">
        <ele>482</ele>
        <time>2019-04-18T09:29:24Z</time>
      </trkpt>
      <trkpt lat="46.09661" lon="5.8532">
        <ele>483</ele>
        <time>2019-04-18T09:30:24Z</time>
      </trkpt>
      <trkpt lat="46.09615" lon="5.85394">
        <ele>482</ele>
        <time>2019-04-18T09:31:24Z</time>
      </trkpt>
      <trkpt lat="46.09602" lon="5.85419">
        <ele>481</ele>
        <time>2019-04-18T09:32:24Z</time>
      </trkpt>
      <trkpt lat="46.09592" lon="5.85472">
        <ele>481</ele>
        <time>2019-04-18T09:33:24Z</time>
      </trkpt>
      <trkpt lat="46.0959" lon="5.85519">
        <ele>482</ele>
        <time>2019-04-18T09:34:24Z</time>
      </trkpt>
      <trkpt lat="46.09593" lon="5.85557">
        <ele>482</ele>
        <time>2019-04-18T09:35:24Z</time>
      </trkpt>
      <trkpt lat="46.09596" lon="5.85572">
        <ele>482</ele>
        <time>2019-04-18T09:36:24Z</time>
      </trkpt>
      <trkpt lat="46.09603" lon="5.85587">
        <ele>484</ele>
        <time>2019-04-18T09:37:24Z</time>
      </trkpt>
      <trkpt lat="46.0963" lon="5.85631">
        <ele>489</ele>
        <time>2019-04-18T09:38:24Z</time>
      </trkpt>
      <trkpt lat="46.09632" lon="5.85637">
        <ele>489</ele>
        <time>2019-04-18T09:39:24Z</time>
      </trkpt>
      <trkpt lat="46.09633" lon="5.85648">
        <ele>488</ele>
        <time>2019-04-18T09:40:24Z</time>
      </trkpt>
      <trkpt lat="46.09625" lon="5.85666">
        <ele>485</ele>
        <time>2019-04-18T09:41:24Z</time>
      </trkpt>
      <trkpt lat="46.09605" lon="5.85697">
        <ele>485</ele>
        <time>2019-04-18T09:42:24Z</time>
      </trkpt>
      <trkpt lat="46.09593" lon="5.85709">
        <ele>486</ele>
        <time>2019-04-18T09:43:24Z</time>
      </trkpt>
      <trkpt lat="46.09554" lon="5.85729">
        <ele>489</ele>
        <time>2019-04-18T09:44:24Z</time>
      </trkpt>
      <trkpt lat="46.09527" lon="5.85732">
        <ele>490</ele>
        <time>2019-04-18T09:45:24Z</time>
      </trkpt>
      <trkpt lat="46.09505" lon="5.85731">
        <ele>490</ele>
        <time>2019-04-18T09:46:24Z</time>
      </trkpt>
      <trkpt lat="46.09465" lon="5.85736">
        <ele>494</ele>
        <time>2019-04-18T09:47:24Z</time>
      </trkpt>
      <trkpt lat="46.09447" lon="5.85729">
        <ele>495</ele>
        <time>2019-04-18T09:48:24Z</time>
      </trkpt>
      <trkpt lat="46.09413" lon="5.85704">
        <ele>494</ele>
        <time>2019-04-18T09:49:24Z</time>
      </trkpt>
      <trkpt lat="46.09403" lon="5.85702">
        <ele>494</ele>
        <time>2019-04-18T09:50:24Z</time>
      </trkpt>
      <trkpt lat="46.09396" lon="5.85703">
        <ele>494</ele>
        <time>2019-04-18T09:51:24Z</time>
      </trkpt>
      <trkpt lat="46.09379" lon="5.85713">
        <ele>496</ele>
        <time>2019-04-18T09:52:24Z</time>
      </trkpt>
      <trkpt lat="46.09361" lon="5.85735">
        <ele>498</ele>
        <time>2019-04-18T09:53:24Z</time>
      </trkpt>
      <trkpt lat="46.0935" lon="5.85752">
        <ele>500</ele>
        <time>2019-04-18T09:54:24Z</time>
      </trkpt>
      <trkpt lat="46.09338" lon="5.85776">
        <ele>501</ele>
        <time>2019-04-18T09:55:24Z</time>
      </trkpt>
      <trkpt lat="46.09321" lon="5.85835">
        <ele>500</ele>
        <time>2019-04-18T09:56:24Z</time>
      </trkpt>
      <trkpt lat="46.0928" lon="5.86024">
        <ele>501</ele>
        <time>2019-04-18T09:57:24Z</time>
      </trkpt>
      <trkpt lat="46.09217" lon="5.86002">
        <ele>493</ele>
        <time>2019-04-18T09:58:24Z</time>
      </trkpt>
      <trkpt lat="46.09195" lon="5.86001">
        <ele>490</ele>
        <time>2019-04-18T09:59:24Z</time>
      </trkpt>
      <trkpt lat="46.09185" lon="5.86003">
        <ele>488</ele>
        <time>2019-04-18T10:00:24Z</time>
      </trkpt>
      <trkpt lat="46.0918" lon="5.86006">
        <ele>488</ele>
        <time>2019-04-18T10:01:24Z</time>
      </trkpt>
      <trkpt lat="46.09175" lon="5.86016">
        <ele>487</ele>
        <time>2019-04-18T10:02:24Z</time>
      </trkpt>
      <trkpt lat="46.09173" lon="5.86054">
        <ele>488</ele>
        <time>2019-04-18T10:03:24Z</time>
      </trkpt>
      <trkpt lat="46.09177" lon="5.86143">
        <ele>489</ele>
        <time>2019-04-18T10:04:24Z</time>
      </trkpt>
      <trkpt lat="46.09175" lon="5.86159">
        <ele>489</ele>
        <time>2019-04-18T10:05:24Z</time>
      </trkpt>
      <trkpt lat="46.09172" lon="5.86165">
        <ele>488</ele>
        <time>2019-04-18T10:06:24Z</time>
      </trkpt>
      <trkpt lat="46.09166" lon="5.8617">
        <ele>487</ele>
        <time>2019-04-18T10:07:24Z</time>
      </trkpt>
      <trkpt lat="46.09176" lon="5.86211">
        <ele>488</ele>
        <time>2019-04-18T10:08:24Z</time>
      </trkpt>
      <trkpt lat="46.09181" lon="5.86237">
        <ele>489</ele>
        <time>2019-04-18T10:09:24Z</time>
      </trkpt>
      <trkpt lat="46.09207" lon="5.86394">
        <ele>501</ele>
        <time>2019-04-18T10:10:24Z</time>
      </trkpt>
      <trkpt lat="46.09209" lon="5.86418">
        <ele>502</ele>
        <time>2019-04-18T10:11:24Z</time>
      </trkpt>
      <trkpt lat="46.09206" lon="5.86466">
        <ele>501</ele>
        <time>2019-04-18T10:12:24Z</time>
      </trkpt>
      <trkpt lat="46.09208" lon="5.86495">
        <ele>501</ele>
        <time>2019-04-18T10:13:24Z</time>
      </trkpt>
      <trkpt lat="46.09215" lon="5.86523">
        <ele>502</ele>
        <time>2019-04-18T10:14:24Z</time>
      </trkpt>
      <trkpt lat="46.09234" lon="5.86581">
        <ele>506</ele>
        <time>2019-04-18T10:15:24Z</time>
      </trkpt>
      <trkpt lat="46.09236" lon="5.86595">
        <ele>507</ele>
        <time>2019-04-18T10:16:24Z</time>
      </trkpt>
      <trkpt lat="46.09237" lon="5.86622">
        <ele>507</ele>
        <time>2019-04-18T10:17:24Z</time>
      </trkpt>
      <trkpt lat="46.09234" lon="5.86644">
        <ele>506</ele>
        <time>2019-04-18T10:18:24Z</time>
      </trkpt>
      <trkpt lat="46.09224" lon="5.86691">
        <ele>505</ele>
        <time>2019-04-18T10:19:24Z</time>
      </trkpt>
      <trkpt lat="46.09216" lon="5.86714">
        <ele>505</ele>
        <time>2019-04-18T10:20:24Z</time>
      </trkpt>
      <trkpt lat="46.09176" lon="5.86806">
        <ele>500</ele>
        <time>2019-04-18T10:21:24Z</time>
      </trkpt>
      <trkpt lat="46.09171" lon="5.86822">
        <ele>500</ele>
        <time>2019-04-18T10:22:24Z</time>
      </trkpt>
      <trkpt lat="46.09165" lon="5.86867">
        <ele>500</ele>
        <time>2019-04-18T10:23:24Z</time>
      </trkpt>
      <trkpt lat="46.09165" lon="5.86897">
        <ele>501</ele>
        <time>2019-04-18T10:24:24Z</time>
      </trkpt>
      <trkpt lat="46.09178" lon="5.86988">
        <ele>507</ele>
        <time>2019-04-18T10:25:24Z</time>
      </trkpt>
      <trkpt lat="46.09185" lon="5.87089">
        <ele>509</ele>
        <time>2019-04-18T10:26:24Z</time>
      </trkpt>
      <trkpt lat="46.09186" lon="5.87103">
        <ele>509</ele>
        <time>2019-04-18T10:27:24Z</time>
      </trkpt>
      <trkpt lat="46.09191" lon="5.87126">
        <ele>510</ele>
        <time>2019-04-18T10:28:24Z</time>
      </trkpt>
      <trkpt lat="46.09204" lon="5.87158">
        <ele>511</ele>
        <time>2019-04-18T10:29:24Z</time>
      </trkpt>
      <trkpt lat="46.09216" lon="5.87179">
        <ele>513</ele>
        <time>2019-04-18T10:30:24Z</time>
      </trkpt>
      <trkpt lat="46.09233" lon="5.87202">
        <ele>514</ele>
        <time>2019-04-18T10:31:24Z</time>
      </trkpt>
      <trkpt lat="46.09259" lon="5.87231">
        <ele>515</ele>
        <time>2019-04-18T10:32:24Z</time>
      </trkpt>
      <trkpt lat="46.09323" lon="5.87286">
        <ele>512</ele>
        <time>2019-04-18T10:33:24Z</time>
      </trkpt>
      <trkpt lat="46.09347" lon="5.87311">
        <ele>512</ele>
        <time>2019-04-18T10:34:24Z</time>
      </trkpt>
      <trkpt lat="46.0936" lon="5.87328">
        <ele>513</ele>
        <time>2019-04-18T10:35:24Z</time>
      </trkpt>
      <trkpt lat="46.09384" lon="5.87365">
        <ele>512</ele>
        <time>2019-04-18T10:36:24Z</time>
      </trkpt>
      <trkpt lat="46.0941" lon="5.87413">
        <ele>511</ele>
        <time>2019-04-18T10:37:24Z</time>
      </trkpt>
      <trkpt lat="46.09624" lon="5.87845">
        <ele>512</ele>
        <time>2019-04-18T10:38:24Z</time>
      </trkpt>
      <trkpt lat="46.09658" lon="5.87927">
        <ele>511</ele>
        <time>2019-04-18T10:39:24Z</time>
      </trkpt>
      <trkpt lat="46.0967" lon="5.87949">
        <ele>512</ele>
        <time>2019-04-18T10:40:24Z</time>
      </trkpt>
      <trkpt lat="46.09691" lon="5.87976">
        <ele>513</ele>
        <time>2019-04-18T10:41:24Z</time>
      </trkpt>
      <trkpt lat="46.09706" lon="5.87988">
        <ele>514</ele>
        <time>2019-04-18T10:42:24Z</time>
      </trkpt>
      <trkpt lat="46.09745" lon="5.88014">
        <ele>515</ele>
        <time>2019-04-18T10:43:24Z</time>
      </trkpt>
      <trkpt lat="46.09818" lon="5.88057">
        <ele>516</ele>
        <time>2019-04-18T10:44:24Z</time>
      </trkpt>
      <trkpt lat="46.09853" lon="5.88072">
        <ele>516</ele>
        <time>2019-04-18T10:45:24Z</time>
      </trkpt>
      <trkpt lat="46.09879" lon="5.88077">
        <ele>517</ele>
        <time>2019-04-18T10:46:24Z</time>
      </trkpt>
      <trkpt lat="46.099" lon="5.88078">
        <ele>518</ele>
        <time>2019-04-18T10:47:24Z</time>
      </trkpt>
      <trkpt lat="46.09924" lon="5.88073">
        <ele>518</ele>
        <time>2019-04-18T10:48:24Z</time>
      </trkpt>
      <trkpt lat="46.09941" lon="5.88068">
        <ele>518</ele>
        <time>2019-04-18T10:49:24Z</time>
      </trkpt>
      <trkpt lat="46.09975" lon="5.88049">
        <ele>518</ele>
        <time>2019-04-18T10:50:24Z</time>
      </trkpt>
      <trkpt lat="46.10107" lon="5.87942">
        <ele>522</ele>
        <time>2019-04-18T10:51:24Z</time>
      </trkpt>
      <trkpt lat="46.10133" lon="5.87918">
        <ele>523</ele>
        <time>2019-04-18T10:52:24Z</time>
      </trkpt>
      <trkpt lat="46.10157" lon="5.87889">
        <ele>523</ele>
        <time>2019-04-18T10:53:24Z</time>
      </trkpt>
      <trkpt lat="46.10169" lon="5.87869">
        <ele>524</ele>
        <time>2019-04-18T10:54:24Z</time>
      </trkpt>
      <trkpt lat="46.10183" lon="5.87832">
        <ele>524</ele>
        <time>2019-04-18T10:55:24Z</time>
      </trkpt>
      <trkpt lat="46.10191" lon="5.87795">
        <ele>524</ele>
        <time>2019-04-18T10:56:24Z</time>
      </trkpt>
      <trkpt lat="46.10194" lon="5.87772">
        <ele>524</ele>
        <time>2019-04-18T10:57:24Z</time>
      </trkpt>
      <trkpt lat="46.10203" lon="5.87657">
        <ele>522</ele>
        <time>2019-04-18T10:58:24Z</time>
      </trkpt>
      <trkpt lat="46.1021" lon="5.87595">
        <ele>521</ele>
        <time>2019-04-18T10:59:24Z</time>
      </trkpt>
      <trkpt lat="46.10215" lon="5.87571">
        <ele>521</ele>
        <time>2019-04-18T11:00:24Z</time>
      </trkpt>
      <trkpt lat="46.10228" lon="5.87528">
        <ele>521</ele>
        <time>2019-04-18T11:01:24Z</time>
      </trkpt>
      <trkpt lat="46.10257" lon="5.87456">
        <ele>521</ele>
        <time>2019-04-18T11:02:24Z</time>
      </trkpt>
      <trkpt lat="46.10268" lon="5.87438">
        <ele>521</ele>
        <time>2019-04-18T11:03:24Z</time>
      </trkpt>
      <trkpt lat="46.10282" lon="5.87423">
        <ele>521</ele>
        <time>2019-04-18T11:04:24Z</time>
      </trkpt>
      <trkpt lat="46.10295" lon="5.87416">
        <ele>520</ele>
        <time>2019-04-18T11:05:24Z</time>
      </trkpt>
      <trkpt lat="46.10308" lon="5.87414">
        <ele>518</ele>
        <time>2019-04-18T11:06:24Z</time>
      </trkpt>
      <trkpt lat="46.1032" lon="5.87416">
        <ele>516</ele>
        <time>2019-04-18T11:07:24Z</time>
      </trkpt>
      <trkpt lat="46.10332" lon="5.87425">
        <ele>513</ele>
        <time>2019-04-18T11:08:24Z</time>
      </trkpt>
      <trkpt lat="46.10344" lon="5.87438">
        <ele>513</ele>
        <time>2019-04-18T11:09:24Z</time>
      </trkpt>
      <trkpt lat="46.10357" lon="5.87462">
        <ele>512</ele>
        <time>2019-04-18T11:10:24Z</time>
      </trkpt>
      <trkpt lat="46.10438" lon="5.87678">
        <ele>509</ele>
        <time>2019-04-18T11:11:24Z</time>
      </trkpt>
      <trkpt lat="46.10452" lon="5.87708">
        <ele>509</ele>
        <time>2019-04-18T11:12:24Z</time>
      </trkpt>
      <trkpt lat="46.10467" lon="5.87727">
        <ele>510</ele>
        <time>2019-04-18T11:13:24Z</time>
      </trkpt>
      <trkpt lat="46.1048" lon="5.8774">
        <ele>511</ele>
        <time>2019-04-18T11:14:24Z</time>
      </trkpt>
      <trkpt lat="46.10495" lon="5.87751">
        <ele>512</ele>
        <time>2019-04-18T11:15:24Z</time>
      </trkpt>
      <trkpt lat="46.10519" lon="5.87759">
        <ele>512</ele>
        <time>2019-04-18T11:16:24Z</time>
      </trkpt>
      <trkpt lat="46.10537" lon="5.87761">
        <ele>511</ele>
        <time>2019-04-18T11:17:24Z</time>
      </trkpt>
      <trkpt lat="46.10562" lon="5.87756">
        <ele>511</ele>
        <time>2019-04-18T11:18:24Z</time>
      </trkpt>
      <trkpt lat="46.10576" lon="5.87749">
        <ele>512</ele>
        <time>2019-04-18T11:19:24Z</time>
      </trkpt>
      <trkpt lat="46.10599" lon="5.87733">
        <ele>512</ele>
        <time>2019-04-18T11:20:24Z</time>
      </trkpt>
      <trkpt lat="46.1072" lon="5.87615">
        <ele>513</ele>
        <time>2019-04-18T11:21:24Z</time>
      </trkpt>
      <trkpt lat="46.10812" lon="5.87508">
        <ele>515</ele>
        <time>2019-04-18T11:22:24Z</time>
      </trkpt>
      <trkpt lat="46.10835" lon="5.87485">
        <ele>515</ele>
        <time>2019-04-18T11:23:24Z</time>
      </trkpt>
      <trkpt lat="46.10852" lon="5.87474">
        <ele>516</ele>
        <time>2019-04-18T11:24:24Z</time>
      </trkpt>
      <trkpt lat="46.10867" lon="5.8747">
        <ele>516</ele>
        <time>2019-04-18T11:25:24Z</time>
      </trkpt>
      <trkpt lat="46.10883" lon="5.87471">
        <ele>515</ele>
        <time>2019-04-18T11:26:24Z</time>
      </trkpt>
      <trkpt lat="46.10902" lon="5.87475">
        <ele>513</ele>
        <time>2019-04-18T11:27:24Z</time>
      </trkpt>
      <trkpt lat="46.10911" lon="5.87479">
        <ele>512</ele>
        <time>2019-04-18T11:28:24Z</time>
      </trkpt>
      <trkpt lat="46.10926" lon="5.8749">
        <ele>512</ele>
        <time>2019-04-18T11:29:24Z</time>
      </trkpt>
      <trkpt lat="46.1094" lon="5.87506">
        <ele>513</ele>
        <time>2019-04-18T11:30:24Z</time>
      </trkpt>
      <trkpt lat="46.10951" lon="5.87527">
        <ele>512</ele>
        <time>2019-04-18T11:31:24Z</time>
      </trkpt>
      <trkpt lat="46.10967" lon="5.87567">
        <ele>509</ele>
        <time>2019-04-18T11:32:24Z</time>
      </trkpt>
      <trkpt lat="46.10992" lon="5.87636">
        <ele>505</ele>
        <time>2019-04-18T11:33:24Z</time>
      </trkpt>
      <trkpt lat="46.11" lon="5.87663">
        <ele>503</ele>
        <time>2019-04-18T11:34:24Z</time>
      </trkpt>
      <trkpt lat="46.11004" lon="5.87697">
        <ele>501</ele>
        <time>2019-04-18T11:35:24Z</time>
      </trkpt>
      <trkpt lat="46.11008" lon="5.87765">
        <ele>494</ele>
        <time>2019-04-18T11:36:24Z</time>
      </trkpt>
      <trkpt lat="46.11012" lon="5.87785">
        <ele>492</ele>
        <time>2019-04-18T11:37:24Z</time>
      </trkpt>
      <trkpt lat="46.11026" lon="5.87817">
        <ele>492</ele>
        <time>2019-04-18T11:38:24Z</time>
      </trkpt>
      <trkpt lat="46.11042" lon="5.87841">
        <ele>490</ele>
        <time>2019-04-18T11:39:24Z</time>
      </trkpt>
      <trkpt lat="46.11058" lon="5.87854">
        <ele>490</ele>
        <time>2019-04-18T11:40:24Z</time>
      </trkpt>
      <trkpt lat="46.11074" lon="5.87862">
        <ele>491</ele>
        <time>2019-04-18T11:41:24Z</time>
      </trkpt>
      <trkpt lat="46.11133" lon="5.87881">
        <ele>494</ele>
        <time>2019-04-18T11:42:24Z</time>
      </trkpt>
      <trkpt lat="46.11145" lon="5.87888">
        <ele>494</ele>
        <time>2019-04-18T11:43:24Z</time>
      </trkpt>
      <trkpt lat="46.11211" lon="5.87942">
        <ele>489</ele>
        <time>2019-04-18T11:44:24Z</time>
      </trkpt>
      <trkpt lat="46.11232" lon="5.87953">
        <ele>490</ele>
        <time>2019-04-18T11:45:24Z</time>
      </trkpt>
      <trkpt lat="46.11276" lon="5.8797">
        <ele>492</ele>
        <time>2019-04-18T11:46:24Z</time>
      </trkpt>
      <trkpt lat="46.1129" lon="5.8798">
        <ele>491</ele>
        <time>2019-04-18T11:47:24Z</time>
      </trkpt>
      <trkpt lat="46.11305" lon="5.87995">
        <ele>489</ele>
        <time>2019-04-18T11:48:24Z</time>
      </trkpt>
      <trkpt lat="46.11316" lon="5.88013">
        <ele>487</ele>
        <time>2019-04-18T11:49:24Z</time>
      </trkpt>
      <trkpt lat="46.11324" lon="5.88031">
        <ele>485</ele>
        <time>2019-04-18T11:50:24Z</time>
      </trkpt>
      <trkpt lat="46.1133" lon="5.88051">
        <ele>483</ele>
        <time>2019-04-18T11:51:24Z</time>
      </trkpt>
      <trkpt lat="46.11341" lon="5.881">
        <ele>478</ele>
        <time>2019-04-18T11:52:24Z</time>
      </trkpt>
      <trkpt lat="46.11349" lon="5.88126">
        <ele>476</ele>
        <time>2019-04-18T11:53:24Z</time>
      </trkpt>
      <trkpt lat="46.11358" lon="5.88145">
        <ele>475</ele>
        <time>2019-04-18T11:54:24Z</time>
      </trkpt>
      <trkpt lat="46.11375" lon="5.88172">
        <ele>473</ele>
        <time>2019-04-18T11:55:24Z</time>
      </trkpt>
      <trkpt lat="46.11423" lon="5.88221">
        <ele>474</ele>
        <time>2019-04-18T11:56:24Z</time>
      </trkpt>
      <trkpt lat="46.11444" lon="5.88237">
        <ele>473</ele>
        <time>2019-04-18T11:57:24Z</time>
      </trkpt>
      <trkpt lat="46.11482" lon="5.88259">
        <ele>473</ele>
        <time>2019-04-18T11:58:24Z</time>
      </trkpt>
      <trkpt lat="46.11623" lon="5.88393">
        <ele>467</ele>
        <time>2019-04-18T11:59:24Z</time>
      </trkpt>
      <trkpt lat="46.11734" lon="5.88505">
        <ele>458</ele>
        <time>2019-04-18T12:00:24Z</time>
      </trkpt>
      <trkpt lat="46.11756" lon="5.88524">
        <ele>457</ele>
        <time>2019-04-18T12:01:24Z</time>
      </trkpt>
      <trkpt lat="46.11773" lon="5.88533">
        <ele>456</ele>
        <time>2019-04-18T12:02:24Z</time>
      </trkpt>
      <trkpt lat="46.11792" lon="5.88539">
        <ele>457</ele>
        <time>2019-04-18T12:03:24Z</time>
      </trkpt>
      <trkpt lat="46.11851" lon="5.88541">
        <ele>459</ele>
        <time>2019-04-18T12:04:24Z</time>
      </trkpt>
      <trkpt lat="46.11863" lon="5.88545">
        <ele>459</ele>
        <time>2019-04-18T12:05:24Z</time>
      </trkpt>
      <trkpt lat="46.1188" lon="5.88557">
        <ele>459</ele>
        <time>2019-04-18T12:06:24Z</time>
      </trkpt>
      <trkpt lat="46.11887" lon="5.88564">
        <ele>459</ele>
        <time>2019-04-18T12:07:24Z</time>
      </trkpt>
      <trkpt lat="46.119" lon="5.88583">
        <ele>458</ele>
        <time>2019-04-18T12:08:24Z</time>
      </trkpt>
      <trkpt lat="46.11906" lon="5.88597">
        <ele>457</ele>
        <time>2019-04-18T12:09:24Z</time>
      </trkpt>
      <trkpt lat="46.1191" lon="5.88612">
        <ele>456</ele>
        <time>2019-04-18T12:10:24Z</time>
      </trkpt>
      <trkpt lat="46.11915" lon="5.8864">
        <ele>454</ele>
        <time>2019-04-18T12:11:24Z</time>
      </trkpt>
      <trkpt lat="46.11917" lon="5.88673">
        <ele>452</ele>
        <time>2019-04-18T12:12:24Z</time>
      </trkpt>
      <trkpt lat="46.11914" lon="5.88716">
        <ele>451</ele>
        <time>2019-04-18T12:13:24Z</time>
      </trkpt>
      <trkpt lat="46.11905" lon="5.88803">
        <ele>445</ele>
        <time>2019-04-18T12:14:24Z</time>
      </trkpt>
      <trkpt lat="46.11903" lon="5.8883">
        <ele>443</ele>
        <time>2019-04-18T12:15:24Z</time>
      </trkpt>
      <trkpt lat="46.11904" lon="5.88861">
        <ele>441</ele>
        <time>2019-04-18T12:16:24Z</time>
      </trkpt>
      <trkpt lat="46.11908" lon="5.88884">
        <ele>440</ele>
        <time>2019-04-18T12:17:24Z</time>
      </trkpt>
      <trkpt lat="46.11919" lon="5.88914">
        <ele>441</ele>
        <time>2019-04-18T12:18:24Z</time>
      </trkpt>
      <trkpt lat="46.11933" lon="5.88938">
        <ele>439</ele>
        <time>2019-04-18T12:19:24Z</time>
      </trkpt>
      <trkpt lat="46.1195" lon="5.88955">
        <ele>439</ele>
        <time>2019-04-18T12:20:24Z</time>
      </trkpt>
      <trkpt lat="46.11995" lon="5.88982">
        <ele>442</ele>
        <time>2019-04-18T12:21:24Z</time>
      </trkpt>
      <trkpt lat="46.12015" lon="5.89005">
        <ele>447</ele>
        <time>2019-04-18T12:22:24Z</time>
      </trkpt>
      <trkpt lat="46.12021" lon="5.89014">
        <ele>451</ele>
        <time>2019-04-18T12:23:24Z</time>
      </trkpt>
      <trkpt lat="46.12029" lon="5.89033">
        <ele>456</ele>
        <time>2019-04-18T12:24:24Z</time>
      </trkpt>
      <trkpt lat="46.12158" lon="5.89443">
        <ele>444</ele>
        <time>2019-04-18T12:25:24Z</time>
      </trkpt>
      <trkpt lat="46.12178" lon="5.8952">
        <ele>440</ele>
        <time>2019-04-18T12:26:24Z</time>
      </trkpt>
      <trkpt lat="46.12184" lon="5.89538">
        <ele>440</ele>
        <time>2019-04-18T12:27:24Z</time>
      </trkpt>
      <trkpt lat="46.12193" lon="5.89557">
        <ele>442</ele>
        <time>2019-04-18T12:28:24Z</time>
      </trkpt>
      <trkpt lat="46.12209" lon="5.89585">
        <ele>446</ele>
        <time>2019-04-18T12:29:24Z</time>
      </trkpt>
      <trkpt lat="46.1225" lon="5.89672">
        <ele>450</ele>
        <time>2019-04-18T12:30:24Z</time>
      </trkpt>
      <trkpt lat="46.1226" lon="5.897">
        <ele>451</ele>
        <time>2019-04-18T12:31:24Z</time>
      </trkpt>
      <trkpt lat="46.12265" lon="5.89747">
        <ele>448</ele>
        <time>2019-04-18T12:32:24Z</time>
      </trkpt>
      <trkpt lat="46.12272" lon="5.8986">
        <ele>446</ele>
        <time>2019-04-18T12:33:24Z</time>
      </trkpt>
      <trkpt lat="46.12276" lon="5.89892">
        <ele>446</ele>
        <time>2019-04-18T12:34:24Z</time>
      </trkpt>
      <trkpt lat="46.12281" lon="5.89909">
        <ele>447</ele>
        <time>2019-04-18T12:35:24Z</time>
      </trkpt>
      <trkpt lat="46.12289" lon="5.89934">
        <ele>448</ele>
        <time>2019-04-18T12:36:24Z</time>
      </trkpt>
      <trkpt lat="46.12302" lon="5.89957">
        <ele>449</ele>
        <time>2019-04-18T12:37:24Z</time>
      </trkpt>
      <trkpt lat="46.12316" lon="5.89974">
        <ele>451</ele>
        <time>2019-04-18T12:38:24Z</time>
      </trkpt>
      <trkpt lat="46.12338" lon="5.89991">
        <ele>454</ele>
        <time>2019-04-18T12:39:24Z</time>
      </trkpt>
      <trkpt lat="46.12355" lon="5.9">
        <ele>455</ele>
        <time>2019-04-18T12:40:24Z</time>
      </trkpt>
      <trkpt lat="46.12371" lon="5.90004">
        <ele>456</ele>
        <time>2019-04-18T12:41:24Z</time>
      </trkpt>
      <trkpt lat="46.12416" lon="5.9001">
        <ele>460</ele>
        <time>2019-04-18T12:42:24Z</time>
      </trkpt>
      <trkpt lat="46.12492" lon="5.90025">
        <ele>464</ele>
        <time>2019-04-18T12:43:24Z</time>
      </trkpt>
      <trkpt lat="46.12519" lon="5.90027">
        <ele>465</ele>
        <time>2019-04-18T12:44:24Z</time>
      </trkpt>
      <trkpt lat="46.12552" lon="5.90026">
        <ele>467</ele>
        <time>2019-04-18T12:45:24Z</time>
      </trkpt>
      <trkpt lat="46.12623" lon="5.90013">
        <ele>473</ele>
        <time>2019-04-18T12:46:24Z</time>
      </trkpt>
      <trkpt lat="46.12655" lon="5.90013">
        <ele>474</ele>
        <time>2019-04-18T12:47:24Z</time>
      </trkpt>
      <trkpt lat="46.12675" lon="5.90016">
        <ele>476</ele>
        <time>2019-04-18T12:48:24Z</time>
      </trkpt>
      <trkpt lat="46.12712" lon="5.90028">
        <ele>478</ele>
        <time>2019-04-18T12:49:24Z</time>
      </trkpt>
      <trkpt lat="46.12806" lon="5.90074">
        <ele>479</ele>
        <time>2019-04-18T12:50:24Z</time>
      </trkpt>
      <trkpt lat="46.12849" lon="5.90092">
        <ele>481</ele>
        <time>2019-04-18T12:51:24Z</time>
      </trkpt>
      <trkpt lat="46.12916" lon="5.90117">
        <ele>486</ele>
        <time>2019-04-18T12:52:24Z</time>
      </trkpt>
      <trkpt lat="46.12989" lon="5.9015">
        <ele>485</ele>
        <time>2019-04-18T12:53:24Z</time>
      </trkpt>
      <trkpt lat="46.13034" lon="5.90181">
        <ele>482</ele>
        <time>2019-04-18T12:54:24Z</time>
      </trkpt>
      <trkpt lat="46.13039" lon="5.9017">
        <ele>484</ele>
        <time>2019-04-18T12:55:24Z</time>
      </trkpt>
      <trkpt lat="46.13046" lon="5.90164">
        <ele>485</ele>
        <time>2019-04-18T12:56:24Z</time>
      </trkpt>
      <trkpt lat="46.13053" lon="5.90162">
        <ele>486</ele>
        <time>2019-04-18T12:57:24Z</time>
      </trkpt>
      <trkpt lat="46.13067" lon="5.90163">
        <ele>486</ele>
        <time>2019-04-18T12:58:24Z</time>
      </trkpt>
      <trkpt lat="46.13349" lon="5.90229">
        <ele>491</ele>
        <time>2019-04-18T12:59:24Z</time>
      </trkpt>
      <trkpt lat="46.13589" lon="5.90288">
        <ele>495</ele>
        <time>2019-04-18T13:00:24Z</time>
      </trkpt>
      <trkpt lat="46.13695" lon="5.90311">
        <ele>500</ele>
        <time>2019-04-18T13:01:24Z</time>
      </trkpt>
      <trkpt lat="46.13764" lon="5.90339">
        <ele>500</ele>
        <time>2019-04-18T13:02:24Z</time>
      </trkpt>
      <trkpt lat="46.1382" lon="5.90373">
        <ele>500</ele>
        <time>2019-04-18T13:03:24Z</time>
      </trkpt>
      <trkpt lat="46.13839" lon="5.90379">
        <ele>500</ele>
        <time>2019-04-18T13:04:24Z</time>
      </trkpt>
      <trkpt lat="46.13858" lon="5.90382">
        <ele>500</ele>
        <time>2019-04-18T13:05:24Z</time>
      </trkpt>
      <trkpt lat="46.13979" lon="5.90383">
        <ele>500</ele>
        <time>2019-04-18T13:06:24Z</time>
      </trkpt>
      <trkpt lat="46.14068" lon="5.90379">
        <ele>502</ele>
        <time>2019-04-18T13:07:24Z</time>
      </trkpt>
      <trkpt lat="46.14223" lon="5.90393">
        <ele>508</ele>
        <time>2019-04-18T13:08:24Z</time>
      </trkpt>
      <trkpt lat="46.14241" lon="5.90399">
        <ele>508</ele>
        <time>2019-04-18T13:09:24Z</time>
      </trkpt>
      <trkpt lat="46.14248" lon="5.90394">
        <ele>509</ele>
        <time>2019-04-18T13:10:24Z</time>
      </trkpt>
      <trkpt lat="46.14888" lon="5.90438">
        <ele>526</ele>
        <time>2019-04-18T13:11:24Z</time>
      </trkpt>
      <trkpt lat="46.16556" lon="5.90544">
        <ele>503</ele>
        <time>2019-04-18T13:12:24Z</time>
      </trkpt>
      <trkpt lat="46.16732" lon="5.90559">
        <ele>513</ele>
        <time>2019-04-18T13:13:24Z</time>
      </trkpt>
      <trkpt lat="46.16744" lon="5.90564">
        <ele>513</ele>
        <time>2019-04-18T13:14:24Z</time>
      </trkpt>
      <trkpt lat="46.16776" lon="5.90583">
        <ele>514</ele>
        <time>2019-04-18T13:15:24Z</time>
      </trkpt>
      <trkpt lat="46.16844" lon="5.90608">
        <ele>517</ele>
        <time>2019-04-18T13:16:24Z</time>
      </trkpt>
      <trkpt lat="46.16881" lon="5.90629">
        <ele>518</ele>
        <time>2019-04-18T13:17:24Z</time>
      </trkpt>
      <trkpt lat="46.16893" lon="5.90639">
        <ele>517</ele>
        <time>2019-04-18T13:18:24Z</time>
      </trkpt>
      <trkpt lat="46.16908" lon="5.90648">
        <ele>517</ele>
        <time>2019-04-18T13:19:24Z</time>
      </trkpt>
      <trkpt lat="46.17023" lon="5.90709">
        <ele>520</ele>
        <time>2019-04-18T13:20:24Z</time>
      </trkpt>
      <trkpt lat="46.1705" lon="5.90733">
        <ele>520</ele>
        <time>2019-04-18T13:21:24Z</time>
      </trkpt>
      <trkpt lat="46.17068" lon="5.90745">
        <ele>520</ele>
        <time>2019-04-18T13:22:24Z</time>
      </trkpt>
      <trkpt lat="46.17079" lon="5.90748">
        <ele>521</ele>
        <time>2019-04-18T13:23:24Z</time>
      </trkpt>
      <trkpt lat="46.17109" lon="5.90753">
        <ele>522</ele>
        <time>2019-04-18T13:24:24Z</time>
      </trkpt>
      <trkpt lat="46.17125" lon="5.9076">
        <ele>522</ele>
        <time>2019-04-18T13:25:24Z</time>
      </trkpt>
      <trkpt lat="46.17259" lon="5.90849">
        <ele>520</ele>
        <time>2019-04-18T13:26:24Z</time>
      </trkpt>
      <trkpt lat="46.17316" lon="5.90894">
        <ele>523</ele>
        <time>2019-04-18T13:27:24Z</time>
      </trkpt>
      <trkpt lat="46.17457" lon="5.91027">
        <ele>524</ele>
        <time>2019-04-18T13:28:24Z</time>
      </trkpt>
      <trkpt lat="46.17507" lon="5.91078">
        <ele>524</ele>
        <time>2019-04-18T13:29:24Z</time>
      </trkpt>
      <trkpt lat="46.17612" lon="5.91192">
        <ele>521</ele>
        <time>2019-04-18T13:30:24Z</time>
      </trkpt>
      <trkpt lat="46.17681" lon="5.91278">
        <ele>519</ele>
        <time>2019-04-18T13:31:24Z</time>
      </trkpt>
      <trkpt lat="46.17754" lon="5.91374">
        <ele>516</ele>
        <time>2019-04-18T13:32:24Z</time>
      </trkpt>
      <trkpt lat="46.17773" lon="5.91406">
        <ele>515</ele>
        <time>2019-04-18T13:33:24Z</time>
      </trkpt>
      <trkpt lat="46.17793" lon="5.91459">
        <ele>512</ele>
        <time>2019-04-18T13:34:24Z</time>
      </trkpt>
      <trkpt lat="46.17805" lon="5.91483">
        <ele>511</ele>
        <time>2019-04-18T13:35:24Z</time>
      </trkpt>
      <trkpt lat="46.17812" lon="5.91493">
        <ele>511</ele>
        <time>2019-04-18T13:36:24Z</time>
      </trkpt>
      <trkpt lat="46.17827" lon="5.91507">
        <ele>510</ele>
        <time>2019-04-18T13:37:24Z</time>
      </trkpt>
      <trkpt lat="46.17861" lon="5.91531">
        <ele>511</ele>
        <time>2019-04-18T13:38:24Z</time>
      </trkpt>
      <trkpt lat="46.17886" lon="5.91557">
        <ele>510</ele>
        <time>2019-04-18T13:39:24Z</time>
      </trkpt>
      <trkpt lat="46.17979" lon="5.91689">
        <ele>506</ele>
        <time>2019-04-18T13:40:24Z</time>
      </trkpt>
      <trkpt lat="46.18421" lon="5.92409">
        <ele>501</ele>
        <time>2019-04-18T13:41:24Z</time>
      </trkpt>
      <trkpt lat="46.1845" lon="5.92453">
        <ele>502</ele>
        <time>2019-04-18T13:42:24Z</time>
      </trkpt>
      <trkpt lat="46.18446" lon="5.92459">
        <ele>502</ele>
        <time>2019-04-18T13:43:24Z</time>
      </trkpt>
      <trkpt lat="46.18444" lon="5.92466">
        <ele>502</ele>
        <time>2019-04-18T13:44:24Z</time>
      </trkpt>
      <trkpt lat="46.18443" lon="5.92473">
        <ele>502</ele>
        <time>2019-04-18T13:45:24Z</time>
      </trkpt>
      <trkpt lat="46.18447" lon="5.92485">
        <ele>502</ele>
        <time>2019-04-18T13:46:24Z</time>
      </trkpt>
      <trkpt lat="46.18454" lon="5.92492">
        <ele>503</ele>
        <time>2019-04-18T13:47:24Z</time>
      </trkpt>
      <trkpt lat="46.18462" lon="5.92492">
        <ele>503</ele>
        <time>2019-04-18T13:48:24Z</time>
      </trkpt>
      <trkpt lat="46.18469" lon="5.92485">
        <ele>504</ele>
        <time>2019-04-18T13:49:24Z</time>
      </trkpt>
      <trkpt lat="46.18489" lon="5.92512">
        <ele>505</ele>
        <time>2019-04-18T13:50:24Z</time>
      </trkpt>
      <trkpt lat="46.18508" lon="5.92548">
        <ele>506</ele>
        <time>2019-04-18T13:51:24Z</time>
      </trkpt>
      <trkpt lat="46.18657" lon="5.92798">
        <ele>514</ele>
        <time>2019-04-18T13:52:24Z</time>
      </trkpt>
      <trkpt lat="46.18764" lon="5.92971">
        <ele>518</ele>
        <time>2019-04-18T13:53:24Z</time>
      </trkpt>
      <trkpt lat="46.18802" lon="5.92906">
        <ele>519</ele>
        <time>2019-04-18T13:54:24Z</time>
      </trkpt>
      <trkpt lat="46.18906" lon="5.92762">
        <ele>526</ele>
        <time>2019-04-18T13:55:24Z</time>
      </trkpt>
      <trkpt lat="46.18924" lon="5.9273">
        <ele>527</ele>
        <time>2019-04-18T13:56:24Z</time>
      </trkpt>
      <trkpt lat="46.18932" lon="5.92709">
        <ele>528</ele>
        <time>2019-04-18T13:57:24Z</time>
      </trkpt>
      <trkpt lat="46.18935" lon="5.92689">
        <ele>528</ele>
        <time>2019-04-18T13:58:24Z</time>
      </trkpt>
      <trkpt lat="46.19017" lon="5.92776">
        <ele>533</ele>
        <time>2019-04-18T13:59:24Z</time>
      </trkpt>
      <trkpt lat="46.19145" lon="5.92805">
        <ele>541</ele>
        <time>2019-04-18T14:00:24Z</time>
      </trkpt>
      <trkpt lat="46.1917" lon="5.92814">
        <ele>542</ele>
        <time>2019-04-18T14:01:24Z</time>
      </trkpt>
      <trkpt lat="46.19193" lon="5.92826">
        <ele>544</ele>
        <time>2019-04-18T14:02:24Z</time>
      </trkpt>
      <trkpt lat="46.19206" lon="5.92825">
        <ele>545</ele>
        <time>2019-04-18T14:03:24Z</time>
      </trkpt>
      <trkpt lat="46.19218" lon="5.92819">
        <ele>546</ele>
        <time>2019-04-18T14:04:24Z</time>
      </trkpt>
      <trkpt lat="46.19247" lon="5.92792">
        <ele>550</ele>
        <time>2019-04-18T14:05:24Z</time>
      </trkpt>
      <trkpt lat="46.19259" lon="5.92789">
        <ele>551</ele>
        <time>2019-04-18T14:06:24Z</time>
      </trkpt>
      <trkpt lat="46.19275" lon="5.92795">
        <ele>552</ele>
        <time>2019-04-18T14:07:24Z</time>
      </trkpt>
      <trkpt lat="46.1929" lon="5.92811">
        <ele>554</ele>
        <time>2019-04-18T14:08:24Z</time>
      </trkpt>
      <trkpt lat="46.19379" lon="5.92959">
        <ele>557</ele>
        <time>2019-04-18T14:09:24Z</time>
      </trkpt>
      <trkpt lat="46.19519" lon="5.932">
        <ele>564</ele>
        <time>2019-04-18T14:10:24Z</time>
      </trkpt>
      <trkpt lat="46.19645" lon="5.93364">
        <ele>567</ele>
        <time>2019-04-18T14:11:24Z</time>
      </trkpt>
      <trkpt lat="46.19677" lon="5.93401">
        <ele>567</ele>
        <time>2019-04-18T14:12:24Z</time>
      </trkpt>
      <trkpt lat="46.19706" lon="5.93432">
        <ele>568</ele>
        <time>2019-04-18T14:13:24Z</time>
      </trkpt>
      <trkpt lat="46.19771" lon="5.93469">
        <ele>569</ele>
        <time>2019-04-18T14:14:24Z</time>
      </trkpt>
      <trkpt lat="46.19896" lon="5.9352">
        <ele>569</ele>
        <time>2019-04-18T14:15:24Z</time>
      </trkpt>
      <trkpt lat="46.19978" lon="5.93539">
        <ele>570</ele>
        <time>2019-04-18T14:16:24Z</time>
      </trkpt>
      <trkpt lat="46.1999" lon="5.93584">
        <ele>565</ele>
        <time>2019-04-18T14:17:24Z</time>
      </trkpt>
      <trkpt lat="46.19966" lon="5.93641">
        <ele>562</ele>
        <time>2019-04-18T14:18:24Z</time>
      </trkpt>
      <trkpt lat="46.19962" lon="5.93674">
        <ele>560</ele>
        <time>2019-04-18T14:19:24Z</time>
      </trkpt>
      <trkpt lat="46.19975" lon="5.93751">
        <ele>560</ele>
        <time>2019-04-18T14:20:24Z</time>
      </trkpt>
      <trkpt lat="46.19993" lon="5.93794">
        <ele>560</ele>
        <time>2019-04-18T14:21:24Z</time>
      </trkpt>
      <trkpt lat="46.20023" lon="5.93823">
        <ele>561</ele>
        <time>2019-04-18T14:22:24Z</time>
      </trkpt>
      <trkpt lat="46.20094" lon="5.93847">
        <ele>564</ele>
        <time>2019-04-18T14:23:24Z</time>
      </trkpt>
      <trkpt lat="46.20198" lon="5.93893">
        <ele>564</ele>
        <time>2019-04-18T14:24:24Z</time>
      </trkpt>
      <trkpt lat="46.20255" lon="5.93923">
        <ele>565</ele>
        <time>2019-04-18T14:25:24Z</time>
      </trkpt>
      <trkpt lat="46.20322" lon="5.93968">
        <ele>564</ele>
        <time>2019-04-18T14:26:24Z</time>
      </trkpt>
      <trkpt lat="46.20336" lon="5.93974">
        <ele>564</ele>
        <time>2019-04-18T14:27:24Z</time>
      </trkpt>
      <trkpt lat="46.20353" lon="5.93978">
        <ele>564</ele>
        <time>2019-04-18T14:28:24Z</time>
      </trkpt>
      <trkpt lat="46.20377" lon="5.9399">
        <ele>563</ele>
        <time>2019-04-18T14:29:24Z</time>
      </trkpt>
      <trkpt lat="46.20459" lon="5.94073">
        <ele>557</ele>
        <time>2019-04-18T14:30:24Z</time>
      </trkpt>
      <trkpt lat="46.20539" lon="5.94141">
        <ele>555</ele>
        <time>2019-04-18T14:31:24Z</time>
      </trkpt>
      <trkpt lat="46.20596" lon="5.94184">
        <ele>554</ele>
        <time>2019-04-18T14:32:24Z</time>
      </trkpt>
      <trkpt lat="46.20729" lon="5.94323">
        <ele>545</ele>
        <time>2019-04-18T14:33:24Z</time>
      </trkpt>
      <trkpt lat="46.20812" lon="5.9434">
        <ele>543</ele>
        <time>2019-04-18T14:34:24Z</time>
      </trkpt>
      <trkpt lat="46.21057" lon="5.94586">
        <ele>533</ele>
        <time>2019-04-18T14:35:24Z</time>
      </trkpt>
      <trkpt lat="46.21126" lon="5.94673">
        <ele>530</ele>
        <time>2019-04-18T14:36:24Z</time>
      </trkpt>
      <trkpt lat="46.21152" lon="5.94763">
        <ele>526</ele>
        <time>2019-04-18T14:37:24Z</time>
      </trkpt>
      <trkpt lat="46.21165" lon="5.94793">
        <ele>525</ele>
        <time>2019-04-18T14:38:24Z</time>
      </trkpt>
      <trkpt lat="46.21207" lon="5.94857">
        <ele>522</ele>
        <time>2019-04-18T14:39:24Z</time>
      </trkpt>
      <trkpt lat="46.21221" lon="5.94907">
        <ele>520</ele>
        <time>2019-04-18T14:40:24Z</time>
      </trkpt>
      <trkpt lat="46.2122" lon="5.94964">
        <ele>519</ele>
        <time>2019-04-18T14:41:24Z</time>
      </trkpt>
      <trkpt lat="46.21224" lon="5.94979">
        <ele>519</ele>
        <time>2019-04-18T14:42:24Z</time>
      </trkpt>
      <trkpt lat="46.21199" lon="5.95059">
        <ele>516</ele>
        <time>2019-04-18T14:43:24Z</time>
      </trkpt>
      <trkpt lat="46.21184" lon="5.95092">
        <ele>515</ele>
        <time>2019-04-18T14:44:24Z</time>
      </trkpt>
      <trkpt lat="46.21181" lon="5.95107">
        <ele>515</ele>
        <time>2019-04-18T14:45:24Z</time>
      </trkpt>
      <trkpt lat="46.21191" lon="5.95151">
        <ele>514</ele>
        <time>2019-04-18T14:46:24Z</time>
      </trkpt>
      <trkpt lat="46.21213" lon="5.95164">
        <ele>514</ele>
        <time>2019-04-18T14:47:24Z</time>
      </trkpt>
      <trkpt lat="46.21289" lon="5.95179">
        <ele>516</ele>
        <time>2019-04-18T14:48:24Z</time>
      </trkpt>
      <trkpt lat="46.21397" lon="5.95279">
        <ele>515</ele>
        <time>2019-04-18T14:49:24Z</time>
      </trkpt>
      <trkpt lat="46.21404" lon="5.95289">
        <ele>515</ele>
        <time>2019-04-18T14:50:24Z</time>
      </trkpt>
      <trkpt lat="46.21465" lon="5.95302">
        <ele>516</ele>
        <time>2019-04-18T14:51:24Z</time>
      </trkpt>
      <trkpt lat="46.21509" lon="5.95343">
        <ele>515</ele>
        <time>2019-04-18T14:52:24Z</time>
      </trkpt>
      <trkpt lat="46.21544" lon="5.95367">
        <ele>517</ele>
        <time>2019-04-18T14:53:24Z</time>
      </trkpt>
      <trkpt lat="46.21587" lon="5.95405">
        <ele>519</ele>
        <time>2019-04-18T14:54:24Z</time>
      </trkpt>
      <trkpt lat="46.21614" lon="5.95456">
        <ele>519</ele>
        <time>2019-04-18T14:55:24Z</time>
      </trkpt>
      <trkpt lat="46.21637" lon="5.95529">
        <ele>517</ele>
        <time>2019-04-18T14:56:24Z</time>
      </trkpt>
      <trkpt lat="46.21671" lon="5.95612">
        <ele>515</ele>
        <time>2019-04-18T14:57:24Z</time>
      </trkpt>
      <trkpt lat="46.21702" lon="5.95712">
        <ele>513</ele>
        <time>2019-04-18T14:58:24Z</time>
      </trkpt>
      <trkpt lat="46.21726" lon="5.95768">
        <ele>513</ele>
        <time>2019-04-18T14:59:24Z</time>
      </trkpt>
      <trkpt lat="46.21777" lon="5.9586">
        <ele>512</ele>
        <time>2019-04-18T15:00:24Z</time>
      </trkpt>
      <trkpt lat="46.21844" lon="5.95948">
        <ele>513</ele>
        <time>2019-04-18T15:01:24Z</time>
      </trkpt>
      <trkpt lat="46.21887" lon="5.96016">
        <ele>514</ele>
        <time>2019-04-18T15:02:24Z</time>
      </trkpt>
      <trkpt lat="46.21909" lon="5.96074">
        <ele>511</ele>
        <time>2019-04-18T15:03:24Z</time>
      </trkpt>
      <trkpt lat="46.21926" lon="5.96111">
        <ele>511</ele>
        <time>2019-04-18T15:04:24Z</time>
      </trkpt>
      <trkpt lat="46.21939" lon="5.96143">
        <ele>510</ele>
        <time>2019-04-18T15:05:24Z</time>
      </trkpt>
      <trkpt lat="46.2195" lon="5.96179">
        <ele>509</ele>
        <time>2019-04-18T15:06:24Z</time>
      </trkpt>
      <trkpt lat="46.21962" lon="5.96228">
        <ele>508</ele>
        <time>2019-04-18T15:07:24Z</time>
      </trkpt>
      <trkpt lat="46.21969" lon="5.96299">
        <ele>504</ele>
        <time>2019-04-18T15:08:24Z</time>
      </trkpt>
      <trkpt lat="46.21986" lon="5.96354">
        <ele>502</ele>
        <time>2019-04-18T15:09:24Z</time>
      </trkpt>
      <trkpt lat="46.21993" lon="5.96369">
        <ele>502</ele>
        <time>2019-04-18T15:10:24Z</time>
      </trkpt>
      <trkpt lat="46.22011" lon="5.96396">
        <ele>502</ele>
        <time>2019-04-18T15:11:24Z</time>
      </trkpt>
      <trkpt lat="46.22045" lon="5.96435">
        <ele>502</ele>
        <time>2019-04-18T15:12:24Z</time>
      </trkpt>
      <trkpt lat="46.22071" lon="5.96463">
        <ele>502</ele>
        <time>2019-04-18T15:13:24Z</time>
      </trkpt>
      <trkpt lat="46.22158" lon="5.96549">
        <ele>503</ele>
        <time>2019-04-18T15:14:24Z</time>
      </trkpt>
      <trkpt lat="46.22232" lon="5.96597">
        <ele>505</ele>
        <time>2019-04-18T15:15:24Z</time>
      </trkpt>
      <trkpt lat="46.22292" lon="5.96653">
        <ele>505</ele>
        <time>2019-04-18T15:16:24Z</time>
      </trkpt>
      <trkpt lat="46.22355" lon="5.96734">
        <ele>504</ele>
        <time>2019-04-18T15:17:24Z</time>
      </trkpt>
      <trkpt lat="46.22408" lon="5.96795">
        <ele>502</ele>
        <time>2019-04-18T15:18:24Z</time>
      </trkpt>
      <trkpt lat="46.22433" lon="5.96827">
        <ele>501</ele>
        <time>2019-04-18T15:19:24Z</time>
      </trkpt>
      <trkpt lat="46.22552" lon="5.9692">
        <ele>499</ele>
        <time>2019-04-18T15:20:24Z</time>
      </trkpt>
      <trkpt lat="46.22561" lon="5.96935">
        <ele>499</ele>
        <time>2019-04-18T15:21:24Z</time>
      </trkpt>
      <trkpt lat="46.22575" lon="5.96943">
        <ele>498</ele>
        <time>2019-04-18T15:22:24Z</time>
      </trkpt>
      <trkpt lat="46.2264" lon="5.97007">
        <ele>496</ele>
        <time>2019-04-18T15:23:24Z</time>
      </trkpt>
      <trkpt lat="46.2268" lon="5.97052">
        <ele>495</ele>
        <time>2019-04-18T15:24:24Z</time>
      </trkpt>
      <trkpt lat="46.22708" lon="5.97077">
        <ele>494</ele>
        <time>2019-04-18T15:25:24Z</time>
      </trkpt>
      <trkpt lat="46.22865" lon="5.97253">
        <ele>488</ele>
        <time>2019-04-18T15:26:24Z</time>
      </trkpt>
      <trkpt lat="46.22961" lon="5.97305">
        <ele>488</ele>
        <time>2019-04-18T15:27:24Z</time>
      </trkpt>
      <trkpt lat="46.23032" lon="5.97399">
        <ele>487</ele>
        <time>2019-04-18T15:28:24Z</time>
      </trkpt>
      <trkpt lat="46.23048" lon="5.97427">
        <ele>487</ele>
        <time>2019-04-18T15:29:24Z</time>
      </trkpt>
      <trkpt lat="46.23138" lon="5.97525">
        <ele>487</ele>
        <time>2019-04-18T15:30:24Z</time>
      </trkpt>
      <trkpt lat="46.23159" lon="5.9755">
        <ele>487</ele>
        <time>2019-04-18T15:31:24Z</time>
      </trkpt>
      <trkpt lat="46.23245" lon="5.97645">
        <ele>485</ele>
        <time>2019-04-18T15:32:24Z</time>
      </trkpt>
      <trkpt lat="46.23266" lon="5.97672">
        <ele>485</ele>
        <time>2019-04-18T15:33:24Z</time>
      </trkpt>
      <trkpt lat="46.2328" lon="5.977">
        <ele>484</ele>
        <time>2019-04-18T15:34:24Z</time>
      </trkpt>
      <trkpt lat="46.23284" lon="5.97715">
        <ele>484</ele>
        <time>2019-04-18T15:35:24Z</time>
      </trkpt>
      <trkpt lat="46.23286" lon="5.97731">
        <ele>483</ele>
        <time>2019-04-18T15:36:24Z</time>
      </trkpt>
      <trkpt lat="46.23288" lon="5.97815">
        <ele>480</ele>
        <time>2019-04-18T15:37:24Z</time>
      </trkpt>
      <trkpt lat="46.2329" lon="5.97833">
        <ele>480</ele>
        <time>2019-04-18T15:38:24Z</time>
      </trkpt>
      <trkpt lat="46.23303" lon="5.97845">
        <ele>480</ele>
        <time>2019-04-18T15:39:24Z</time>
      </trkpt>
      <trkpt lat="46.23388" lon="5.97908">
        <ele>480</ele>
        <time>2019-04-18T15:40:24Z</time>
      </trkpt>
      <trkpt lat="46.23431" lon="5.97933">
        <ele>481</ele>
        <time>2019-04-18T15:41:24Z</time>
      </trkpt>
      <trkpt lat="46.23463" lon="5.97941">
        <ele>481</ele>
        <time>2019-04-18T15:42:24Z</time>
      </trkpt>
      <trkpt lat="46.23522" lon="5.97967">
        <ele>482</ele>
        <time>2019-04-18T15:43:24Z</time>
      </trkpt>
      <trkpt lat="46.23573" lon="5.97997">
        <ele>483</ele>
        <time>2019-04-18T15:44:24Z</time>
      </trkpt>
      <trkpt lat="46.23612" lon="5.98025">
        <ele>483</ele>
        <time>2019-04-18T15:45:24Z</time>
      </trkpt>
      <trkpt lat="46.23685" lon="5.98072">
        <ele>485</ele>
        <time>2019-04-18T15:46:24Z</time>
      </trkpt>
      <trkpt lat="46.23739" lon="5.98112">
        <ele>487</ele>
        <time>2019-04-18T15:47:24Z</time>
      </trkpt>
      <trkpt lat="46.23757" lon="5.98118">
        <ele>488</ele>
        <time>2019-04-18T15:48:24Z</time>
      </trkpt>
      <trkpt lat="46.2377" lon="5.98118">
        <ele>488</ele>
        <time>2019-04-18T15:49:24Z</time>
      </trkpt>
      <trkpt lat="46.23785" lon="5.98124">
        <ele>488</ele>
        <time>2019-04-18T15:50:24Z</time>
      </trkpt>
      <trkpt lat="46.23806" lon="5.98121">
        <ele>489</ele>
        <time>2019-04-18T15:51:24Z</time>
      </trkpt>
      <trkpt lat="46.23899" lon="5.98026">
        <ele>492</ele>
        <time>2019-04-18T15:52:24Z</time>
      </trkpt>
      <trkpt lat="46.23919" lon="5.98019">
        <ele>493</ele>
        <time>2019-04-18T15:53:24Z</time>
      </trkpt>
      <trkpt lat="46.23933" lon="5.9802">
        <ele>494</ele>
        <time>2019-04-18T15:54:24Z</time>
      </trkpt>
      <trkpt lat="46.23951" lon="5.98028">
        <ele>494</ele>
        <time>2019-04-18T15:55:24Z</time>
      </trkpt>
      <trkpt lat="46.24026" lon="5.9815">
        <ele>494</ele>
        <time>2019-04-18T15:56:24Z</time>
      </trkpt>
      <trkpt lat="46.24081" lon="5.98193">
        <ele>496</ele>
        <time>2019-04-18T15:57:24Z</time>
      </trkpt>
      <trkpt lat="46.24223" lon="5.98269">
        <ele>496</ele>
        <time>2019-04-18T15:58:24Z</time>
      </trkpt>
      <trkpt lat="46.24298" lon="5.983">
        <ele>495</ele>
        <time>2019-04-18T15:59:24Z</time>
      </trkpt>
      <trkpt lat="46.24383" lon="5.98323">
        <ele>496</ele>
        <time>2019-04-18T16:00:24Z</time>
      </trkpt>
      <trkpt lat="46.24407" lon="5.98331">
        <ele>497</ele>
        <time>2019-04-18T16:01:24Z</time>
      </trkpt>
      <trkpt lat="46.24426" lon="5.98346">
        <ele>497</ele>
        <time>2019-04-18T16:02:24Z</time>
      </trkpt>
      <trkpt lat="46.24442" lon="5.98373">
        <ele>497</ele>
        <time>2019-04-18T16:03:24Z</time>
      </trkpt>
      <trkpt lat="46.24447" lon="5.98385">
        <ele>497</ele>
        <time>2019-04-18T16:04:24Z</time>
      </trkpt>
      <trkpt lat="46.24451" lon="5.98414">
        <ele>496</ele>
        <time>2019-04-18T16:05:24Z</time>
      </trkpt>
      <trkpt lat="46.24459" lon="5.98443">
        <ele>496</ele>
        <time>2019-04-18T16:06:24Z</time>
      </trkpt>
      <trkpt lat="46.24467" lon="5.9846">
        <ele>496</ele>
        <time>2019-04-18T16:07:24Z</time>
      </trkpt>
      <trkpt lat="46.24478" lon="5.98474">
        <ele>497</ele>
        <time>2019-04-18T16:08:24Z</time>
      </trkpt>
      <trkpt lat="46.24484" lon="5.98489">
        <ele>497</ele>
        <time>2019-04-18T16:09:24Z</time>
      </trkpt>
      <trkpt lat="46.24489" lon="5.98519">
        <ele>496</ele>
        <time>2019-04-18T16:10:24Z</time>
      </trkpt>
      <trkpt lat="46.24491" lon="5.9859">
        <ele>490</ele>
        <time>2019-04-18T16:11:24Z</time>
      </trkpt>
      <trkpt lat="46.24494" lon="5.98617">
        <ele>489</ele>
        <time>2019-04-18T16:12:24Z</time>
      </trkpt>
      <trkpt lat="46.24505" lon="5.98653">
        <ele>488</ele>
        <time>2019-04-18T16:13:24Z</time>
      </trkpt>
      <trkpt lat="46.24513" lon="5.98671">
        <ele>487</ele>
        <time>2019-04-18T16:14:24Z</time>
      </trkpt>
      <trkpt lat="46.24528" lon="5.987">
        <ele>485</ele>
        <time>2019-04-18T16:15:24Z</time>
      </trkpt>
      <trkpt lat="46.24537" lon="5.98712">
        <ele>485</ele>
        <time>2019-04-18T16:16:24Z</time>
      </trkpt>
      <trkpt lat="46.24615" lon="5.98801">
        <ele>484</ele>
        <time>2019-04-18T16:17:24Z</time>
      </trkpt>
      <trkpt lat="46.24682" lon="5.9889">
        <ele>484</ele>
        <time>2019-04-18T16:18:24Z</time>
      </trkpt>
      <trkpt lat="46.24733" lon="5.98943">
        <ele>485</ele>
        <time>2019-04-18T16:19:24Z</time>
      </trkpt>
      <trkpt lat="46.24754" lon="5.98972">
        <ele>485</ele>
        <time>2019-04-18T16:20:24Z</time>
      </trkpt>
      <trkpt lat="46.24768" lon="5.98962">
        <ele>486</ele>
        <time>2019-04-18T16:21:24Z</time>
      </trkpt>
      <trkpt lat="46.24785" lon="5.98957">
        <ele>487</ele>
        <time>2019-04-18T16:22:24Z</time>
      </trkpt>
      <trkpt lat="46.24809" lon="5.98961">
        <ele>487</ele>
        <time>2019-04-18T16:23:24Z</time>
      </trkpt>
      <trkpt lat="46.24878" lon="5.98995">
        <ele>487</ele>
        <time>2019-04-18T16:24:24Z</time>
      </trkpt>
      <trkpt lat="46.25004" lon="5.99026">
        <ele>488</ele>
        <time>2019-04-18T16:25:24Z</time>
      </trkpt>
      <trkpt lat="46.25071" lon="5.99052">
        <ele>489</ele>
        <time>2019-04-18T16:26:24Z</time>
      </trkpt>
      <trkpt lat="46.25091" lon="5.99061">
        <ele>490</ele>
        <time>2019-04-18T16:27:24Z</time>
      </trkpt>
      <trkpt lat="46.25182" lon="5.99136">
        <ele>491</ele>
        <time>2019-04-18T16:28:24Z</time>
      </trkpt>
      <trkpt lat="46.25207" lon="5.99153">
        <ele>491</ele>
        <time>2019-04-18T16:29:24Z</time>
      </trkpt>
      <trkpt lat="46.25271" lon="5.99186">
        <ele>492</ele>
        <time>2019-04-18T16:30:24Z</time>
      </trkpt>
      <trkpt lat="46.25358" lon="5.99224">
        <ele>493</ele>
        <time>2019-04-18T16:31:24Z</time>
      </trkpt>
      <trkpt lat="46.25391" lon="5.99242">
        <ele>493</ele>
        <time>2019-04-18T16:32:24Z</time>
      </trkpt>
      <trkpt lat="46.25401" lon="5.99251">
        <ele>493</ele>
        <time>2019-04-18T16:33:24Z</time>
      </trkpt>
      <trkpt lat="46.25462" lon="5.99322">
        <ele>495</ele>
        <time>2019-04-18T16:34:24Z</time>
      </trkpt>
      <trkpt lat="46.25485" lon="5.99342">
        <ele>495</ele>
        <time>2019-04-18T16:35:24Z</time>
      </trkpt>
      <trkpt lat="46.25517" lon="5.99358">
        <ele>496</ele>
        <time>2019-04-18T16:36:24Z</time>
      </trkpt>
      <trkpt lat="46.25575" lon="5.9938">
        <ele>499</ele>
        <time>2019-04-18T16:37:24Z</time>
      </trkpt>
      <trkpt lat="46.25587" lon="5.99388">
        <ele>499</ele>
        <time>2019-04-18T16:38:24Z</time>
      </trkpt>
      <trkpt lat="46.25594" lon="5.99399">
        <ele>499</ele>
        <time>2019-04-18T16:39:24Z</time>
      </trkpt>
      <trkpt lat="46.25598" lon="5.99413">
        <ele>498</ele>
        <time>2019-04-18T16:40:24Z</time>
      </trkpt>
      <trkpt lat="46.25599" lon="5.99423">
        <ele>498</ele>
        <time>2019-04-18T16:41:24Z</time>
      </trkpt>
      <trkpt lat="46.25602" lon="5.9943">
        <ele>497</ele>
        <time>2019-04-18T16:42:24Z</time>
      </trkpt>
      <trkpt lat="46.25609" lon="5.99433">
        <ele>498</ele>
        <time>2019-04-18T16:43:24Z</time>
      </trkpt>
      <trkpt lat="46.25622" lon="5.99447">
        <ele>498</ele>
        <time>2019-04-18T16:44:24Z</time>
      </trkpt>
      <trkpt lat="46.25636" lon="5.99452">
        <ele>498</ele>
        <time>2019-04-18T16:45:24Z</time>
      </trkpt>
      <trkpt lat="46.25646" lon="5.99452">
        <ele>499</ele>
        <time>2019-04-18T16:46:24Z</time>
      </trkpt>
      <trkpt lat="46.25683" lon="5.99473">
        <ele>499</ele>
        <time>2019-04-18T16:47:24Z</time>
      </trkpt>
      <trkpt lat="46.25753" lon="5.99548">
        <ele>500</ele>
        <time>2019-04-18T16:48:24Z</time>
      </trkpt>
      <trkpt lat="46.25775" lon="5.99567">
        <ele>500</ele>
        <time>2019-04-18T16:49:24Z</time>
      </trkpt>
      <trkpt lat="46.25795" lon="5.99581">
        <ele>500</ele>
        <time>2019-04-18T16:50:24Z</time>
      </trkpt>
      <trkpt lat="46.25861" lon="5.99614">
        <ele>503</ele>
        <time>2019-04-18T16:51:24Z</time>
      </trkpt>
      <trkpt lat="46.25877" lon="5.99625">
        <ele>503</ele>
        <time>2019-04-18T16:52:24Z</time>
      </trkpt>
      <trkpt lat="46.25925" lon="5.99671">
        <ele>504</ele>
        <time>2019-04-18T16:53:24Z</time>
      </trkpt>
      <trkpt lat="46.25947" lon="5.9969">
        <ele>505</ele>
        <time>2019-04-18T16:54:24Z</time>
      </trkpt>
      <trkpt lat="46.25966" lon="5.99703">
        <ele>505</ele>
        <time>2019-04-18T16:55:24Z</time>
      </trkpt>
      <trkpt lat="46.26001" lon="5.99723">
        <ele>505</ele>
        <time>2019-04-18T16:56:24Z</time>
      </trkpt>
      <trkpt lat="46.26056" lon="5.99768">
        <ele>505</ele>
        <time>2019-04-18T16:57:24Z</time>
      </trkpt>
      <trkpt lat="46.26157" lon="5.99814">
        <ele>505</ele>
        <time>2019-04-18T16:58:24Z</time>
      </trkpt>
      <trkpt lat="46.26261" lon="5.99903">
        <ele>506</ele>
        <time>2019-04-18T16:59:24Z</time>
      </trkpt>
      <trkpt lat="46.26359" lon="6.00003">
        <ele>510</ele>
        <time>2019-04-18T17:00:24Z</time>
      </trkpt>
      <trkpt lat="46.26434" lon="6.00084">
        <ele>512</ele>
        <time>2019-04-18T17:01:24Z</time>
      </trkpt>
      <trkpt lat="46.26514" lon="6.00163">
        <ele>513</ele>
        <time>2019-04-18T17:02:24Z</time>
      </trkpt>
      <trkpt lat="46.26627" lon="6.0024">
        <ele>514</ele>
        <time>2019-04-18T17:03:24Z</time>
      </trkpt>
      <trkpt lat="46.26676" lon="6.00264">
        <ele>516</ele>
        <time>2019-04-18T17:04:24Z</time>
      </trkpt>
      <trkpt lat="46.26861" lon="6.00426">
        <ele>519</ele>
        <time>2019-04-18T17:05:24Z</time>
      </trkpt>
      <trkpt lat="46.26945" lon="6.00475">
        <ele>522</ele>
        <time>2019-04-18T17:06:24Z</time>
      </trkpt>
      <trkpt lat="46.2698" lon="6.00499">
        <ele>524</ele>
        <time>2019-04-18T17:07:24Z</time>
      </trkpt>
      <trkpt lat="46.27011" lon="6.00529">
        <ele>526</ele>
        <time>2019-04-18T17:08:24Z</time>
      </trkpt>
      <trkpt lat="46.27025" lon="6.0055">
        <ele>527</ele>
        <time>2019-04-18T17:09:24Z</time>
      </trkpt>
      <trkpt lat="46.27036" lon="6.00573">
        <ele>528</ele>
        <time>2019-04-18T17:10:24Z</time>
      </trkpt>
      <trkpt lat="46.27058" lon="6.00636">
        <ele>528</ele>
        <time>2019-04-18T17:11:24Z</time>
      </trkpt>
      <trkpt lat="46.27066" lon="6.00672">
        <ele>527</ele>
        <time>2019-04-18T17:12:24Z</time>
      </trkpt>
      <trkpt lat="46.27077" lon="6.00704">
        <ele>527</ele>
        <time>2019-04-18T17:13:24Z</time>
      </trkpt>
      <trkpt lat="46.27109" lon="6.00772">
        <ele>528</ele>
        <time>2019-04-18T17:14:24Z</time>
      </trkpt>
      <trkpt lat="46.27153" lon="6.00872">
        <ele>527</ele>
        <time>2019-04-18T17:15:24Z</time>
      </trkpt>
      <trkpt lat="46.27171" lon="6.00908">
        <ele>527</ele>
        <time>2019-04-18T17:16:24Z</time>
      </trkpt>
      <trkpt lat="46.27185" lon="6.00928">
        <ele>527</ele>
        <time>2019-04-18T17:17:24Z</time>
      </trkpt>
      <trkpt lat="46.27196" lon="6.00931">
        <ele>528</ele>
        <time>2019-04-18T17:18:24Z</time>
      </trkpt>
      <trkpt lat="46.27271" lon="6.01005">
        <ele>526</ele>
        <time>2019-04-18T17:19:24Z</time>
      </trkpt>
      <trkpt lat="46.27346" lon="6.01085">
        <ele>525</ele>
        <time>2019-04-18T17:20:24Z</time>
      </trkpt>
      <trkpt lat="46.2742" lon="6.01134">
        <ele>526</ele>
        <time>2019-04-18T17:21:24Z</time>
      </trkpt>
      <trkpt lat="46.27477" lon="6.01167">
        <ele>526</ele>
        <time>2019-04-18T17:22:24Z</time>
      </trkpt>
      <trkpt lat="46.2749" lon="6.01173">
        <ele>526</ele>
        <time>2019-04-18T17:23:24Z</time>
      </trkpt>
      <trkpt lat="46.27507" lon="6.01175">
        <ele>527</ele>
        <time>2019-04-18T17:24:24Z</time>
      </trkpt>
      <trkpt lat="46.27518" lon="6.01178">
        <ele>527</ele>
        <time>2019-04-18T17:25:24Z</time>
      </trkpt>
      <trkpt lat="46.27536" lon="6.01187">
        <ele>528</ele>
        <time>2019-04-18T17:26:24Z</time>
      </trkpt>
      <trkpt lat="46.27537" lon="6.01189">
        <ele>528</ele>
        <time>2019-04-18T17:27:24Z</time>
      </trkpt>
      <trkpt lat="46.27534" lon="6.01199">
        <ele>527</ele>
        <time>2019-04-18T17:28:24Z</time>
      </trkpt>
      <trkpt lat="46.27713" lon="6.01299">
        <ele>532</ele>
        <time>2019-04-18T17:29:24Z</time>
      </trkpt>
      <trkpt lat="46.27744" lon="6.01319">
        <ele>532</ele>
        <time>2019-04-18T17:30:24Z</time>
      </trkpt>
      <trkpt lat="46.27768" lon="6.01338">
        <ele>532</ele>
        <time>2019-04-18T17:31:24Z</time>
      </trkpt>
      <trkpt lat="46.27807" lon="6.01374">
        <ele>534</ele>
        <time>2019-04-18T17:32:24Z</time>
      </trkpt>
      <trkpt lat="46.2784" lon="6.01398">
        <ele>535</ele>
        <time>2019-04-18T17:33:24Z</time>
      </trkpt>
      <trkpt lat="46.27878" lon="6.01422">
        <ele>537</ele>
        <time>2019-04-18T17:34:24Z</time>
      </trkpt>
      <trkpt lat="46.27925" lon="6.01448">
        <ele>539</ele>
        <time>2019-04-18T17:35:24Z</time>
      </trkpt>
      <trkpt lat="46.27965" lon="6.01475">
        <ele>539</ele>
        <time>2019-04-18T17:36:24Z</time>
      </trkpt>
      <trkpt lat="46.2801" lon="6.01509">
        <ele>539</ele>
        <time>2019-04-18T17:37:24Z</time>
      </trkpt>
      <trkpt lat="46.28079" lon="6.01565">
        <ele>538</ele>
        <time>2019-04-18T17:38:24Z</time>
      </trkpt>
      <trkpt lat="46.2809" lon="6.01578">
        <ele>537</ele>
        <time>2019-04-18T17:39:24Z</time>
      </trkpt>
      <trkpt lat="46.28116" lon="6.01601">
        <ele>538</ele>
        <time>2019-04-18T17:40:24Z</time>
      </trkpt>
      <trkpt lat="46.28134" lon="6.01624">
        <ele>537</ele>
        <time>2019-04-18T17:41:24Z</time>
      </trkpt>
      <trkpt lat="46.28155" lon="6.01653">
        <ele>537</ele>
        <time>2019-04-18T17:42:24Z</time>
      </trkpt>
      <trkpt lat="46.28176" lon="6.01694">
        <ele>537</ele>
        <time>2019-04-18T17:43:24Z</time>
      </trkpt>
      <trkpt lat="46.28207" lon="6.01743">
        <ele>538</ele>
        <time>2019-04-18T17:44:24Z</time>
      </trkpt>
      <trkpt lat="46.28237" lon="6.01808">
        <ele>538</ele>
        <time>2019-04-18T17:45:24Z</time>
      </trkpt>
      <trkpt lat="46.28241" lon="6.01821">
        <ele>538</ele>
        <time>2019-04-18T17:46:24Z</time>
      </trkpt>
      <trkpt lat="46.28247" lon="6.0182">
        <ele>538</ele>
        <time>2019-04-18T17:47:24Z</time>
      </trkpt>
      <trkpt lat="46.28256" lon="6.01823">
        <ele>539</ele>
        <time>2019-04-18T17:48:24Z</time>
      </trkpt>
      <trkpt lat="46.28263" lon="6.01822">
        <ele>539</ele>
        <time>2019-04-18T17:49:24Z</time>
      </trkpt>
      <trkpt lat="46.28268" lon="6.01818">
        <ele>539</ele>
        <time>2019-04-18T17:50:24Z</time>
      </trkpt>
      <trkpt lat="46.28419" lon="6.01931">
        <ele>543</ele>
        <time>2019-04-18T17:51:24Z</time>
      </trkpt>
      <trkpt lat="46.28423" lon="6.01928">
        <ele>543</ele>
        <time>2019-04-18T17:52:24Z</time>
      </trkpt>
      <trkpt lat="46.28476" lon="6.01958">
        <ele>545</ele>
        <time>2019-04-18T17:53:24Z</time>
      </trkpt>
      <trkpt lat="46.28612" lon="6.02053">
        <ele>547</ele>
        <time>2019-04-18T17:54:24Z</time>
      </trkpt>
      <trkpt lat="46.28639" lon="6.02079">
        <ele>546</ele>
        <time>2019-04-18T17:55:24Z</time>
      </trkpt>
      <trkpt lat="46.28734" lon="6.02177">
        <ele>549</ele>
        <time>2019-04-18T17:56:24Z</time>
      </trkpt>
      <trkpt lat="46.288" lon="6.0227">
        <ele>550</ele>
        <time>2019-04-18T17:57:24Z</time>
      </trkpt>
      <trkpt lat="46.28822" lon="6.02285">
        <ele>550</ele>
        <time>2019-04-18T17:58:24Z</time>
      </trkpt>
      <trkpt lat="46.28874" lon="6.02314">
        <ele>551</ele>
        <time>2019-04-18T17:59:24Z</time>
      </trkpt>
      <trkpt lat="46.28895" lon="6.02329">
        <ele>551</ele>
        <time>2019-04-18T18:00:24Z</time>
      </trkpt>
      <trkpt lat="46.28933" lon="6.02372">
        <ele>552</ele>
        <time>2019-04-18T18:01:24Z</time>
      </trkpt>
      <trkpt lat="46.28964" lon="6.02405">
        <ele>553</ele>
        <time>2019-04-18T18:02:24Z</time>
      </trkpt>
      <trkpt lat="46.29204" lon="6.02601">
        <ele>559</ele>
        <time>2019-04-18T18:03:24Z</time>
      </trkpt>
      <trkpt lat="46.29233" lon="6.02636">
        <ele>559</ele>
        <time>2019-04-18T18:04:24Z</time>
      </trkpt>
      <trkpt lat="46.29242" lon="6.02653">
        <ele>558</ele>
        <time>2019-04-18T18:05:24Z</time>
      </trkpt>
      <trkpt lat="46.2926" lon="6.027">
        <ele>557</ele>
        <time>2019-04-18T18:06:24Z</time>
      </trkpt>
      <trkpt lat="46.29271" lon="6.02723">
        <ele>556</ele>
        <time>2019-04-18T18:07:24Z</time>
      </trkpt>
      <trkpt lat="46.29287" lon="6.02736">
        <ele>556</ele>
        <time>2019-04-18T18:08:24Z</time>
      </trkpt>
      <trkpt lat="46.29325" lon="6.02742">
        <ele>555</ele>
        <time>2019-04-18T18:09:24Z</time>
      </trkpt>
      <trkpt lat="46.29336" lon="6.02747">
        <ele>555</ele>
        <time>2019-04-18T18:10:24Z</time>
      </trkpt>
      <trkpt lat="46.29353" lon="6.02766">
        <ele>556</ele>
        <time>2019-04-18T18:11:24Z</time>
      </trkpt>
      <trkpt lat="46.29382" lon="6.0282">
        <ele>558</ele>
        <time>2019-04-18T18:12:24Z</time>
      </trkpt>
      <trkpt lat="46.294" lon="6.02844">
        <ele>559</ele>
        <time>2019-04-18T18:13:24Z</time>
      </trkpt>
      <trkpt lat="46.29416" lon="6.02854">
        <ele>559</ele>
        <time>2019-04-18T18:14:24Z</time>
      </trkpt>
      <trkpt lat="46.29466" lon="6.02868">
        <ele>560</ele>
        <time>2019-04-18T18:15:24Z</time>
      </trkpt>
      <trkpt lat="46.29487" lon="6.0287">
        <ele>561</ele>
        <time>2019-04-18T18:16:24Z</time>
      </trkpt>
      <trkpt lat="46.29508" lon="6.02866">
        <ele>562</ele>
        <time>2019-04-18T18:17:24Z</time>
      </trkpt>
      <trkpt lat="46.29621" lon="6.02828">
        <ele>565</ele>
        <time>2019-04-18T18:18:24Z</time>
      </trkpt>
      <trkpt lat="46.29639" lon="6.02828">
        <ele>565</ele>
        <time>2019-04-18T18:19:24Z</time>
      </trkpt>
      <trkpt lat="46.29647" lon="6.02831">
        <ele>564</ele>
        <time>2019-04-18T18:20:24Z</time>
      </trkpt>
      <trkpt lat="46.29654" lon="6.02837">
        <ele>564</ele>
        <time>2019-04-18T18:21:24Z</time>
      </trkpt>
      <trkpt lat="46.2966" lon="6.02848">
        <ele>564</ele>
        <time>2019-04-18T18:22:24Z</time>
      </trkpt>
      <trkpt lat="46.29663" lon="6.02863">
        <ele>564</ele>
        <time>2019-04-18T18:23:24Z</time>
      </trkpt>
      <trkpt lat="46.29663" lon="6.02881">
        <ele>565</ele>
        <time>2019-04-18T18:24:24Z</time>
      </trkpt>
      <trkpt lat="46.29658" lon="6.02897">
        <ele>566</ele>
        <time>2019-04-18T18:25:24Z</time>
      </trkpt>
      <trkpt lat="46.29649" lon="6.02907">
        <ele>565</ele>
        <time>2019-04-18T18:26:24Z</time>
      </trkpt>
      <trkpt lat="46.29542" lon="6.03005">
        <ele>561</ele>
        <time>2019-04-18T18:27:24Z</time>
      </trkpt>
      <trkpt lat="46.29536" lon="6.03023">
        <ele>560</ele>
        <time>2019-04-18T18:28:24Z</time>
      </trkpt>
      <trkpt lat="46.29541" lon="6.03042">
        <ele>560</ele>
        <time>2019-04-18T18:29:24Z</time>
      </trkpt>
      <trkpt lat="46.29588" lon="6.03068">
        <ele>562</ele>
        <time>2019-04-18T18:30:24Z</time>
      </trkpt>
      <trkpt lat="46.29603" lon="6.0308">
        <ele>563</ele>
        <time>2019-04-18T18:31:24Z</time>
      </trkpt>
      <trkpt lat="46.2964" lon="6.03144">
        <ele>563</ele>
        <time>2019-04-18T18:32:24Z</time>
      </trkpt>
      <trkpt lat="46.29661" lon="6.03186">
        <ele>563</ele>
        <time>2019-04-18T18:33:24Z</time>
      </trkpt>
      <trkpt lat="46.2967" lon="6.03207">
        <ele>564</ele>
        <time>2019-04-18T18:34:24Z</time>
      </trkpt>
      <trkpt lat="46.29672" lon="6.0323">
        <ele>563</ele>
        <time>2019-04-18T18:35:24Z</time>
      </trkpt>
      <trkpt lat="46.29662" lon="6.03253">
        <ele>563</ele>
        <time>2019-04-18T18:36:24Z</time>
      </trkpt>
      <trkpt lat="46.29654" lon="6.03281">
        <ele>562</ele>
        <time>2019-04-18T18:37:24Z</time>
      </trkpt>
      <trkpt lat="46.29655" lon="6.03321">
        <ele>561</ele>
        <time>2019-04-18T18:38:24Z</time>
      </trkpt>
      <trkpt lat="46.29665" lon="6.03409">
        <ele>561</ele>
        <time>2019-04-18T18:39:24Z</time>
      </trkpt>
      <trkpt lat="46.29676" lon="6.03488">
        <ele>556</ele>
        <time>2019-04-18T18:40:24Z</time>
      </trkpt>
      <trkpt lat="46.29688" lon="6.03522">
        <ele>554</ele>
        <time>2019-04-18T18:41:24Z</time>
      </trkpt>
      <trkpt lat="46.29735" lon="6.03604">
        <ele>550</ele>
        <time>2019-04-18T18:42:24Z</time>
      </trkpt>
      <trkpt lat="46.29744" lon="6.03651">
        <ele>550</ele>
        <time>2019-04-18T18:43:24Z</time>
      </trkpt>
      <trkpt lat="46.29746" lon="6.03679">
        <ele>550</ele>
        <time>2019-04-18T18:44:24Z</time>
      </trkpt>
      <trkpt lat="46.2976" lon="6.03733">
        <ele>552</ele>
        <time>2019-04-18T18:45:24Z</time>
      </trkpt>
      <trkpt lat="46.29778" lon="6.03774">
        <ele>552</ele>
        <time>2019-04-18T18:46:24Z</time>
      </trkpt>
      <trkpt lat="46.29833" lon="6.03885">
        <ele>549</ele>
        <time>2019-04-18T18:47:24Z</time>
      </trkpt>
      <trkpt lat="46.2984" lon="6.03922">
        <ele>550</ele>
        <time>2019-04-18T18:48:24Z</time>
      </trkpt>
      <trkpt lat="46.29848" lon="6.03981">
        <ele>554</ele>
        <time>2019-04-18T18:49:24Z</time>
      </trkpt>
      <trkpt lat="46.29862" lon="6.04042">
        <ele>557</ele>
        <time>2019-04-18T18:50:24Z</time>
      </trkpt>
      <trkpt lat="46.29878" lon="6.04076">
        <ele>558</ele>
        <time>2019-04-18T18:51:24Z</time>
      </trkpt>
      <trkpt lat="46.29899" lon="6.04099">
        <ele>557</ele>
        <time>2019-04-18T18:52:24Z</time>
      </trkpt>
      <trkpt lat="46.29932" lon="6.04127">
        <ele>555</ele>
        <time>2019-04-18T18:53:24Z</time>
      </trkpt>
      <trkpt lat="46.29961" lon="6.04127">
        <ele>557</ele>
        <time>2019-04-18T18:54:24Z</time>
      </trkpt>
      <trkpt lat="46.29995" lon="6.04107">
        <ele>560</ele>
        <time>2019-04-18T18:55:24Z</time>
      </trkpt>
      <trkpt lat="46.3003" lon="6.04072">
        <ele>561</ele>
        <time>2019-04-18T18:56:24Z</time>
      </trkpt>
      <trkpt lat="46.3006" lon="6.0405">
        <ele>562</ele>
        <time>2019-04-18T18:57:24Z</time>
      </trkpt>
      <trkpt lat="46.30081" lon="6.04051">
        <ele>561</ele>
        <time>2019-04-18T18:58:24Z</time>
      </trkpt>
      <trkpt lat="46.30094" lon="6.04055">
        <ele>560</ele>
        <time>2019-04-18T18:59:24Z</time>
      </trkpt>
      <trkpt lat="46.30163" lon="6.04157">
        <ele>556</ele>
        <time>2019-04-18T19:00:24Z</time>
      </trkpt>
      <trkpt lat="46.3021" lon="6.04213">
        <ele>557</ele>
        <time>2019-04-18T19:01:24Z</time>
      </trkpt>
      <trkpt lat="46.30241" lon="6.04243">
        <ele>556</ele>
        <time>2019-04-18T19:02:24Z</time>
      </trkpt>
      <trkpt lat="46.30263" lon="6.04269">
        <ele>555</ele>
        <time>2019-04-18T19:03:24Z</time>
      </trkpt>
      <trkpt lat="46.30291" lon="6.04284">
        <ele>554</ele>
        <time>2019-04-18T19:04:24Z</time>
      </trkpt>
      <trkpt lat="46.30352" lon="6.04303">
        <ele>552</ele>
        <time>2019-04-18T19:05:24Z</time>
      </trkpt>
      <trkpt lat="46.30497" lon="6.04361">
        <ele>553</ele>
        <time>2019-04-18T19:06:24Z</time>
      </trkpt>
      <trkpt lat="46.30671" lon="6.04442">
        <ele>550</ele>
        <time>2019-04-18T19:07:24Z</time>
      </trkpt>
      <trkpt lat="46.30727" lon="6.04454">
        <ele>550</ele>
        <time>2019-04-18T19:08:24Z</time>
      </trkpt>
      <trkpt lat="46.30792" lon="6.04449">
        <ele>551</ele>
        <time>2019-04-18T19:09:24Z</time>
      </trkpt>
      <trkpt lat="46.30815" lon="6.04456">
        <ele>551</ele>
        <time>2019-04-18T19:10:24Z</time>
      </trkpt>
      <trkpt lat="46.30837" lon="6.04478">
        <ele>551</ele>
        <time>2019-04-18T19:11:24Z</time>
      </trkpt>
      <trkpt lat="46.30907" lon="6.0459">
        <ele>554</ele>
        <time>2019-04-18T19:12:24Z</time>
      </trkpt>
      <trkpt lat="46.30905" lon="6.04592">
        <ele>553</ele>
        <time>2019-04-18T19:13:24Z</time>
      </trkpt>
      <trkpt lat="46.30905" lon="6.04602">
        <ele>553</ele>
        <time>2019-04-18T19:14:24Z</time>
      </trkpt>
      <trkpt lat="46.30907" lon="6.04604">
        <ele>553</ele>
        <time>2019-04-18T19:15:24Z</time>
      </trkpt>
      <trkpt lat="46.30912" lon="6.04607">
        <ele>553</ele>
        <time>2019-04-18T19:16:24Z</time>
      </trkpt>
      <trkpt lat="46.30916" lon="6.04605">
        <ele>553</ele>
        <time>2019-04-18T19:17:24Z</time>
      </trkpt>
      <trkpt lat="46.30956" lon="6.04669">
        <ele>554</ele>
        <time>2019-04-18T19:18:24Z</time>
      </trkpt>
      <trkpt lat="46.31014" lon="6.04776">
        <ele>554</ele>
        <time>2019-04-18T19:19:24Z</time>
      </trkpt>
      <trkpt lat="46.31049" lon="6.04835">
        <ele>555</ele>
        <time>2019-04-18T19:20:24Z</time>
      </trkpt>
      <trkpt lat="46.31065" lon="6.04857">
        <ele>555</ele>
        <time>2019-04-18T19:21:24Z</time>
      </trkpt>
      <trkpt lat="46.3108" lon="6.0487">
        <ele>556</ele>
        <time>2019-04-18T19:22:24Z</time>
      </trkpt>
      <trkpt lat="46.311" lon="6.04878">
        <ele>556</ele>
        <time>2019-04-18T19:23:24Z</time>
      </trkpt>
      <trkpt lat="46.31105" lon="6.04885">
        <ele>555</ele>
        <time>2019-04-18T19:24:24Z</time>
      </trkpt>
      <trkpt lat="46.31108" lon="6.04902">
        <ele>555</ele>
        <time>2019-04-18T19:25:24Z</time>
      </trkpt>
      <trkpt lat="46.311" lon="6.04908">
        <ele>555</ele>
        <time>2019-04-18T19:26:24Z</time>
      </trkpt>
      <trkpt lat="46.31097" lon="6.04914">
        <ele>554</ele>
        <time>2019-04-18T19:27:24Z</time>
      </trkpt>
      <trkpt lat="46.31095" lon="6.04927">
        <ele>554</ele>
        <time>2019-04-18T19:28:24Z</time>
      </trkpt>
      <trkpt lat="46.31097" lon="6.04942">
        <ele>554</ele>
        <time>2019-04-18T19:29:24Z</time>
      </trkpt>
      <trkpt lat="46.31104" lon="6.04953">
        <ele>554</ele>
        <time>2019-04-18T19:30:24Z</time>
      </trkpt>
      <trkpt lat="46.31109" lon="6.04956">
        <ele>554</ele>
        <time>2019-04-18T19:31:24Z</time>
      </trkpt>
      <trkpt lat="46.31116" lon="6.04957">
        <ele>554</ele>
        <time>2019-04-18T19:32:24Z</time>
      </trkpt>
      <trkpt lat="46.31123" lon="6.04953">
        <ele>555</ele>
        <time>2019-04-18T19:33:24Z</time>
      </trkpt>
      <trkpt lat="46.31131" lon="6.04941">
        <ele>555</ele>
        <time>2019-04-18T19:34:24Z</time>
      </trkpt>
      <trkpt lat="46.31138" lon="6.04939">
        <ele>555</ele>
        <time>2019-04-18T19:35:24Z</time>
      </trkpt>
      <trkpt lat="46.31147" lon="6.04942">
        <ele>555</ele>
        <time>2019-04-18T19:36:24Z</time>
      </trkpt>
      <trkpt lat="46.31584" lon="6.0511">
        <ele>562</ele>
        <time>2019-04-18T19:37:24Z</time>
      </trkpt>
      <trkpt lat="46.31599" lon="6.05127">
        <ele>562</ele>
        <time>2019-04-18T19:38:24Z</time>
      </trkpt>
      <trkpt lat="46.31607" lon="6.05149">
        <ele>561</ele>
        <time>2019-04-18T19:39:24Z</time>
      </trkpt>
      <trkpt lat="46.31616" lon="6.05143">
        <ele>562</ele>
        <time>2019-04-18T19:40:24Z</time>
      </trkpt>
      <trkpt lat="46.31626" lon="6.05139">
        <ele>563</ele>
        <time>2019-04-18T19:41:24Z</time>
      </trkpt>
      <trkpt lat="46.3164" lon="6.05139">
        <ele>563</ele>
        <time>2019-04-18T19:42:24Z</time>
      </trkpt>
      <trkpt lat="46.31653" lon="6.05145">
        <ele>563</ele>
        <time>2019-04-18T19:43:24Z</time>
      </trkpt>
      <trkpt lat="46.31664" lon="6.05155">
        <ele>563</ele>
        <time>2019-04-18T19:44:24Z</time>
      </trkpt>
      <trkpt lat="46.31676" lon="6.05179">
        <ele>563</ele>
        <time>2019-04-18T19:45:24Z</time>
      </trkpt>
      <trkpt lat="46.31695" lon="6.05151">
        <ele>564</ele>
        <time>2019-04-18T19:46:24Z</time>
      </trkpt>
      <trkpt lat="46.32264" lon="6.05375">
        <ele>572</ele>
        <time>2019-04-18T19:47:24Z</time>
      </trkpt>
      <trkpt lat="46.32266" lon="6.05381">
        <ele>572</ele>
        <time>2019-04-18T19:48:24Z</time>
      </trkpt>
      <trkpt lat="46.32517" lon="6.05482">
        <ele>582</ele>
        <time>2019-04-18T19:49:24Z</time>
      </trkpt>
      <trkpt lat="46.32521" lon="6.05478">
        <ele>582</ele>
        <time>2019-04-18T19:50:24Z</time>
      </trkpt>
      <trkpt lat="46.32522" lon="6.05487">
        <ele>582</ele>
        <time>2019-04-18T19:51:24Z</time>
      </trkpt>
      <trkpt lat="46.32526" lon="6.05494">
        <ele>582</ele>
        <time>2019-04-18T19:52:24Z</time>
      </trkpt>
      <trkpt lat="46.32529" lon="6.05496">
        <ele>582</ele>
        <time>2019-04-18T19:53:24Z</time>
      </trkpt>
      <trkpt lat="46.32535" lon="6.05496">
        <ele>582</ele>
        <time>2019-04-18T19:54:24Z</time>
      </trkpt>
      <trkpt lat="46.3254" lon="6.05491">
        <ele>582</ele>
        <time>2019-04-18T19:55:24Z</time>
      </trkpt>
      <trkpt lat="46.32542" lon="6.05487">
        <ele>582</ele>
        <time>2019-04-18T19:56:24Z</time>
      </trkpt>
      <trkpt lat="46.32544" lon="6.05495">
        <ele>582</ele>
        <time>2019-04-18T19:57:24Z</time>
      </trkpt>
      <trkpt lat="46.3266" lon="6.05538">
        <ele>585</ele>
        <time>2019-04-18T19:58:24Z</time>
      </trkpt>
      <trkpt lat="46.32662" lon="6.05534">
        <ele>586</ele>
        <time>2019-04-18T19:59:24Z</time>
      </trkpt>
      <trkpt lat="46.32661" lon="6.05539">
        <ele>585</ele>
        <time>2019-04-18T20:00:24Z</time>
      </trkpt>
      <trkpt lat="46.32772" lon="6.05582">
        <ele>591</ele>
        <time>2019-04-18T20:01:24Z</time>
      </trkpt>
      <trkpt lat="46.32776" lon="6.05579">
        <ele>591</ele>
        <time>2019-04-18T20:02:24Z</time>
      </trkpt>
      <trkpt lat="46.32925" lon="6.05637">
        <ele>590</ele>
        <time>2019-04-18T20:03:24Z</time>
      </trkpt>
      <trkpt lat="46.32929" lon="6.05637">
        <ele>590</ele>
        <time>2019-04-18T20:04:24Z</time>
      </trkpt>
      <trkpt lat="46.3293" lon="6.05641">
        <ele>590</ele>
        <time>2019-04-18T20:05:24Z</time>
      </trkpt>
      <trkpt lat="46.32935" lon="6.05648">
        <ele>590</ele>
        <time>2019-04-18T20:06:24Z</time>
      </trkpt>
      <trkpt lat="46.32941" lon="6.05648">
        <ele>590</ele>
        <time>2019-04-18T20:07:24Z</time>
      </trkpt>
      <trkpt lat="46.32945" lon="6.05643">
        <ele>590</ele>
        <time>2019-04-18T20:08:24Z</time>
      </trkpt>
      <trkpt lat="46.32948" lon="6.05651">
        <ele>590</ele>
        <time>2019-04-18T20:09:24Z</time>
      </trkpt>
      <trkpt lat="46.33033" lon="6.05685">
        <ele>588</ele>
        <time>2019-04-18T20:10:24Z</time>
      </trkpt>
      <trkpt lat="46.33036" lon="6.05682">
        <ele>588</ele>
        <time>2019-04-18T20:11:24Z</time>
      </trkpt>
      <trkpt lat="46.33037" lon="6.05687">
        <ele>588</ele>
        <time>2019-04-18T20:12:24Z</time>
      </trkpt>
      <trkpt lat="46.33179" lon="6.05742">
        <ele>599</ele>
        <time>2019-04-18T20:13:24Z</time>
      </trkpt>
      <trkpt lat="46.3319" lon="6.05744">
        <ele>600</ele>
        <time>2019-04-18T20:14:24Z</time>
      </trkpt>
      <trkpt lat="46.33219" lon="6.05787">
        <ele>602</ele>
        <time>2019-04-18T20:15:24Z</time>
      </trkpt>
      <trkpt lat="46.33217" lon="6.05795">
        <ele>602</ele>
        <time>2019-04-18T20:16:24Z</time>
      </trkpt>
      <trkpt lat="46.3322" lon="6.058">
        <ele>602</ele>
        <time>2019-04-18T20:17:24Z</time>
      </trkpt>
      <trkpt lat="46.33215" lon="6.05814">
        <ele>601</ele>
        <time>2019-04-18T20:18:24Z</time>
      </trkpt>
      <trkpt lat="46.33187" lon="6.05859">
        <ele>599</ele>
        <time>2019-04-18T20:19:24Z</time>
      </trkpt>
      <trkpt lat="46.3318" lon="6.05874">
        <ele>598</ele>
        <time>2019-04-18T20:20:24Z</time>
      </trkpt>
      <trkpt lat="46.33173" lon="6.05871">
        <ele>598</ele>
        <time>2019-04-18T20:21:24Z</time>
      </trkpt>
      <trkpt lat="46.33169" lon="6.05872">
        <ele>598</ele>
        <time>2019-04-18T20:22:24Z</time>
      </trkpt>
      <trkpt lat="46.33162" lon="6.05879">
        <ele>597</ele>
        <time>2019-04-18T20:23:24Z</time>
      </trkpt>
      <trkpt lat="46.33157" lon="6.05891">
        <ele>597</ele>
        <time>2019-04-18T20:24:24Z</time>
      </trkpt>
      <trkpt lat="46.33159" lon="6.05905">
        <ele>597</ele>
        <time>2019-04-18T20:25:24Z</time>
      </trkpt>
      <trkpt lat="46.33161" lon="6.05911">
        <ele>597</ele>
        <time>2019-04-18T20:26:24Z</time>
      </trkpt>
      <trkpt lat="46.3317" lon="6.05918">
        <ele>597</ele>
        <time>2019-04-18T20:27:24Z</time>
      </trkpt>
      <trkpt lat="46.33174" lon="6.05918">
        <ele>597</ele>
        <time>2019-04-18T20:28:24Z</time>
      </trkpt>
      <trkpt lat="46.33176" lon="6.05933">
        <ele>597</ele>
        <time>2019-04-18T20:29:24Z</time>
      </trkpt>
      <trkpt lat="46.33303" lon="6.062">
        <ele>591</ele>
        <time>2019-04-18T20:30:24Z</time>
      </trkpt>
      <trkpt lat="46.33311" lon="6.06198">
        <ele>592</ele>
        <time>2019-04-18T20:31:24Z</time>
      </trkpt>
      <trkpt lat="46.33322" lon="6.06206">
        <ele>592</ele>
        <time>2019-04-18T20:32:24Z</time>
      </trkpt>
      <trkpt lat="46.33329" lon="6.06221">
        <ele>592</ele>
        <time>2019-04-18T20:33:24Z</time>
      </trkpt>
      <trkpt lat="46.33338" lon="6.06236">
        <ele>592</ele>
        <time>2019-04-18T20:34:24Z</time>
      </trkpt>
      <trkpt lat="46.33367" lon="6.06275">
        <ele>592</ele>
        <time>2019-04-18T20:35:24Z</time>
      </trkpt>
      <trkpt lat="46.33406" lon="6.06351">
        <ele>592</ele>
        <time>2019-04-18T20:36:24Z</time>
      </trkpt>
      <trkpt lat="46.33448" lon="6.06445">
        <ele>590</ele>
        <time>2019-04-18T20:37:24Z</time>
      </trkpt>
      <trkpt lat="46.33453" lon="6.06449">
        <ele>590</ele>
        <time>2019-04-18T20:38:24Z</time>
      </trkpt>
      <trkpt lat="46.33459" lon="6.06461">
        <ele>590</ele>
        <time>2019-04-18T20:39:24Z</time>
      </trkpt>
      <trkpt lat="46.3346" lon="6.06468">
        <ele>590</ele>
        <time>2019-04-18T20:40:24Z</time>
      </trkpt>
      <trkpt lat="46.33567" lon="6.06727">
        <ele>589</ele>
        <time>2019-04-18T20:41:24Z</time>
      </trkpt>
      <trkpt lat="46.33566" lon="6.06733">
        <ele>589</ele>
        <time>2019-04-18T20:42:24Z</time>
      </trkpt>
      <trkpt lat="46.33572" lon="6.06736">
        <ele>589</ele>
        <time>2019-04-18T20:43:24Z</time>
      </trkpt>
      <trkpt lat="46.33682" lon="6.0699">
        <ele>592</ele>
        <time>2019-04-18T20:44:24Z</time>
      </trkpt>
      <trkpt lat="46.33681" lon="6.07001">
        <ele>591</ele>
        <time>2019-04-18T20:45:24Z</time>
      </trkpt>
      <trkpt lat="46.33689" lon="6.07003">
        <ele>592</ele>
        <time>2019-04-18T20:46:24Z</time>
      </trkpt>
      <trkpt lat="46.33749" lon="6.07162">
        <ele>593</ele>
        <time>2019-04-18T20:47:24Z</time>
      </trkpt>
      <trkpt lat="46.33748" lon="6.07171">
        <ele>593</ele>
        <time>2019-04-18T20:48:24Z</time>
      </trkpt>
      <trkpt lat="46.33752" lon="6.07171">
        <ele>593</ele>
        <time>2019-04-18T20:49:24Z</time>
      </trkpt>
      <trkpt lat="46.33774" lon="6.07233">
        <ele>593</ele>
        <time>2019-04-18T20:50:24Z</time>
      </trkpt>
      <trkpt lat="46.33773" lon="6.07237">
        <ele>593</ele>
        <time>2019-04-18T20:51:24Z</time>
      </trkpt>
      <trkpt lat="46.33808" lon="6.07346">
        <ele>593</ele>
        <time>2019-04-18T20:52:24Z</time>
      </trkpt>
      <trkpt lat="46.33805" lon="6.07351">
        <ele>593</ele>
        <time>2019-04-18T20:53:24Z</time>
      </trkpt>
      <trkpt lat="46.33801" lon="6.07363">
        <ele>592</ele>
        <time>2019-04-18T20:54:24Z</time>
      </trkpt>
      <trkpt lat="46.33803" lon="6.07377">
        <ele>592</ele>
        <time>2019-04-18T20:55:24Z</time>
      </trkpt>
      <trkpt lat="46.33805" lon="6.07382">
        <ele>592</ele>
        <time>2019-04-18T20:56:24Z</time>
      </trkpt>
      <trkpt lat="46.33813" lon="6.0739">
        <ele>592</ele>
        <time>2019-04-18T20:57:24Z</time>
      </trkpt>
      <trkpt lat="46.33822" lon="6.07391">
        <ele>592</ele>
        <time>2019-04-18T20:58:24Z</time>
      </trkpt>
      <trkpt lat="46.33865" lon="6.07771">
        <ele>589</ele>
        <time>2019-04-18T20:59:24Z</time>
      </trkpt>
      <trkpt lat="46.33888" lon="6.07989">
        <ele>590</ele>
        <time>2019-04-18T21:00:24Z</time>
      </trkpt>
      <trkpt lat="46.3391" lon="6.08112">
        <ele>589</ele>
        <time>2019-04-18T21:01:24Z</time>
      </trkpt>
      <trkpt lat="46.33926" lon="6.08175">
        <ele>587</ele>
        <time>2019-04-18T21:02:24Z</time>
      </trkpt>
      <trkpt lat="46.33949" lon="6.08256">
        <ele>586</ele>
        <time>2019-04-18T21:03:24Z</time>
      </trkpt>
      <trkpt lat="46.34239" lon="6.09134">
        <ele>608</ele>
        <time>2019-04-18T21:04:24Z</time>
      </trkpt>
      <trkpt lat="46.34281" lon="6.09251">
        <ele>608</ele>
        <time>2019-04-18T21:05:24Z</time>
      </trkpt>
      <trkpt lat="46.34389" lon="6.09505">
        <ele>613</ele>
        <time>2019-04-18T21:06:24Z</time>
      </trkpt>
      <trkpt lat="46.3462" lon="6.10029">
        <ele>611</ele>
        <time>2019-04-18T21:07:24Z</time>
      </trkpt>
      <trkpt lat="46.34688" lon="6.10154">
        <ele>617</ele>
        <time>2019-04-18T21:08:24Z</time>
      </trkpt>
      <trkpt lat="46.34736" lon="6.10222">
        <ele>620</ele>
        <time>2019-04-18T21:09:24Z</time>
      </trkpt>
      <trkpt lat="46.34834" lon="6.10349">
        <ele>624</ele>
        <time>2019-04-18T21:10:24Z</time>
      </trkpt>
      <trkpt lat="46.34964" lon="6.10536">
        <ele>627</ele>
        <time>2019-04-18T21:11:24Z</time>
      </trkpt>
      <trkpt lat="46.35006" lon="6.10607">
        <ele>626</ele>
        <time>2019-04-18T21:12:24Z</time>
      </trkpt>
      <trkpt lat="46.35038" lon="6.10671">
        <ele>625</ele>
        <time>2019-04-18T21:13:24Z</time>
      </trkpt>
      <trkpt lat="46.35231" lon="6.11073">
        <ele>619</ele>
        <time>2019-04-18T21:14:24Z</time>
      </trkpt>
      <trkpt lat="46.35252" lon="6.11108">
        <ele>621</ele>
        <time>2019-04-18T21:15:24Z</time>
      </trkpt>
      <trkpt lat="46.35282" lon="6.1115">
        <ele>622</ele>
        <time>2019-04-18T21:16:24Z</time>
      </trkpt>
      <trkpt lat="46.35402" lon="6.11291">
        <ele>624</ele>
        <time>2019-04-18T21:17:24Z</time>
      </trkpt>
      <trkpt lat="46.35517" lon="6.11399">
        <ele>614</ele>
        <time>2019-04-18T21:18:24Z</time>
      </trkpt>
      <trkpt lat="46.35579" lon="6.11448">
        <ele>610</ele>
        <time>2019-04-18T21:19:24Z</time>
      </trkpt>
      <trkpt lat="46.35634" lon="6.11486">
        <ele>607</ele>
        <time>2019-04-18T21:20:24Z</time>
      </trkpt>
      <trkpt lat="46.35699" lon="6.11528">
        <ele>601</ele>
        <time>2019-04-18T21:21:24Z</time>
      </trkpt>
      <trkpt lat="46.35812" lon="6.11591">
        <ele>587</ele>
        <time>2019-04-18T21:22:24Z</time>
      </trkpt>
      <trkpt lat="46.35852" lon="6.11624">
        <ele>584</ele>
        <time>2019-04-18T21:23:24Z</time>
      </trkpt>
      <trkpt lat="46.35891" lon="6.11668">
        <ele>581</ele>
        <time>2019-04-18T21:24:24Z</time>
      </trkpt>
      <trkpt lat="46.3591" lon="6.11693">
        <ele>580</ele>
        <time>2019-04-18T21:25:24Z</time>
      </trkpt>
      <trkpt lat="46.35926" lon="6.11721">
        <ele>580</ele>
        <time>2019-04-18T21:26:24Z</time>
      </trkpt>
      <trkpt lat="46.35945" lon="6.1176">
        <ele>578</ele>
        <time>2019-04-18T21:27:24Z</time>
      </trkpt>
      <trkpt lat="46.35963" lon="6.11805">
        <ele>577</ele>
        <time>2019-04-18T21:28:24Z</time>
      </trkpt>
      <trkpt lat="46.35974" lon="6.1184">
        <ele>575</ele>
        <time>2019-04-18T21:29:24Z</time>
      </trkpt>
      <trkpt lat="46.35986" lon="6.11894">
        <ele>570</ele>
        <time>2019-04-18T21:30:24Z</time>
      </trkpt>
      <trkpt lat="46.35995" lon="6.11954">
        <ele>566</ele>
        <time>2019-04-18T21:31:24Z</time>
      </trkpt>
      <trkpt lat="46.35998" lon="6.11993">
        <ele>566</ele>
        <time>2019-04-18T21:32:24Z</time>
      </trkpt>
      <trkpt lat="46.35999" lon="6.12059">
        <ele>563</ele>
        <time>2019-04-18T21:33:24Z</time>
      </trkpt>
      <trkpt lat="46.35999" lon="6.12118">
        <ele>558</ele>
        <time>2019-04-18T21:34:24Z</time>
      </trkpt>
      <trkpt lat="46.35995" lon="6.12166">
        <ele>555</ele>
        <time>2019-04-18T21:35:24Z</time>
      </trkpt>
      <trkpt lat="46.35988" lon="6.12229">
        <ele>553</ele>
        <time>2019-04-18T21:36:24Z</time>
      </trkpt>
      <trkpt lat="46.3593" lon="6.12524">
        <ele>544</ele>
        <time>2019-04-18T21:37:24Z</time>
      </trkpt>
      <trkpt lat="46.35897" lon="6.12678">
        <ele>542</ele>
        <time>2019-04-18T21:38:24Z</time>
      </trkpt>
      <trkpt lat="46.35861" lon="6.12893">
        <ele>544</ele>
        <time>2019-04-18T21:39:24Z</time>
      </trkpt>
      <trkpt lat="46.35859" lon="6.12912">
        <ele>543</ele>
        <time>2019-04-18T21:40:24Z</time>
      </trkpt>
      <trkpt lat="46.3586" lon="6.12935">
        <ele>541</ele>
        <time>2019-04-18T21:41:24Z</time>
      </trkpt>
      <trkpt lat="46.35863" lon="6.12988">
        <ele>536</ele>
        <time>2019-04-18T21:42:24Z</time>
      </trkpt>
      <trkpt lat="46.35867" lon="6.13018">
        <ele>532</ele>
        <time>2019-04-18T21:43:24Z</time>
      </trkpt>
      <trkpt lat="46.35863" lon="6.13067">
        <ele>525</ele>
        <time>2019-04-18T21:44:24Z</time>
      </trkpt>
      <trkpt lat="46.35852" lon="6.13118">
        <ele>521</ele>
        <time>2019-04-18T21:45:24Z</time>
      </trkpt>
      <trkpt lat="46.35839" lon="6.13153">
        <ele>519</ele>
        <time>2019-04-18T21:46:24Z</time>
      </trkpt>
      <trkpt lat="46.35788" lon="6.13451">
        <ele>506</ele>
        <time>2019-04-18T21:47:24Z</time>
      </trkpt>
      <trkpt lat="46.35776" lon="6.1349">
        <ele>505</ele>
        <time>2019-04-18T21:48:24Z</time>
      </trkpt>
      <trkpt lat="46.35739" lon="6.13577">
        <ele>503</ele>
        <time>2019-04-18T21:49:24Z</time>
      </trkpt>
      <trkpt lat="46.3573" lon="6.13593">
        <ele>502</ele>
        <time>2019-04-18T21:50:24Z</time>
      </trkpt>
      <trkpt lat="46.35712" lon="6.13617">
        <ele>501</ele>
        <time>2019-04-18T21:51:24Z</time>
      </trkpt>
      <trkpt lat="46.35657" lon="6.13654">
        <ele>499</ele>
        <time>2019-04-18T21:52:24Z</time>
      </trkpt>
      <trkpt lat="46.3563" lon="6.13681">
        <ele>494</ele>
        <time>2019-04-18T21:53:24Z</time>
      </trkpt>
      <trkpt lat="46.35618" lon="6.13701">
        <ele>492</ele>
        <time>2019-04-18T21:54:24Z</time>
      </trkpt>
      <trkpt lat="46.35605" lon="6.13726">
        <ele>489</ele>
        <time>2019-04-18T21:55:24Z</time>
      </trkpt>
      <trkpt lat="46.35603" lon="6.13736">
        <ele>488</ele>
        <time>2019-04-18T21:56:24Z</time>
      </trkpt>
      <trkpt lat="46.35604" lon="6.13753">
        <ele>487</ele>
        <time>2019-04-18T21:57:24Z</time>
      </trkpt>
      <trkpt lat="46.35599" lon="6.13756">
        <ele>487</ele>
        <time>2019-04-18T21:58:24Z</time>
      </trkpt>
      <trkpt lat="46.35597" lon="6.13763">
        <ele>487</ele>
        <time>2019-04-18T21:59:24Z</time>
      </trkpt>
      <trkpt lat="46.35599" lon="6.13773">
        <ele>487</ele>
        <time>2019-04-18T22:00:24Z</time>
      </trkpt>
      <trkpt lat="46.35589" lon="6.13789">
        <ele>487</ele>
        <time>2019-04-18T22:01:24Z</time>
      </trkpt>
      <trkpt lat="46.3558" lon="6.13813">
        <ele>487</ele>
        <time>2019-04-18T22:02:24Z</time>
      </trkpt>
      <trkpt lat="46.3557" lon="6.13826">
        <ele>486</ele>
        <time>2019-04-18T22:03:24Z</time>
      </trkpt>
      <trkpt lat="46.35561" lon="6.13835">
        <ele>486</ele>
        <time>2019-04-18T22:04:24Z</time>
      </trkpt>
    </trkseg>
  </trk>
</gpx>